     2.11           OBSERVATION DATA    G (GPS)             RINEX VERSION / TYPE
teqc 2010Oct21 OPUS Account 20111027 19:22:04UTC            PGM / RUN BY / DATE
F 1526                                                      MARKER NAME
3042                                                        MARKER NUMBER
CSMIDDLETON NGS                                             OBSERVER / AGENCY
0220280359 TRIMBLE 5700 NP 2.32 / SP 2.32                   REC # / TYPE / VERS
11885611 TRM41249.00 NONE                                   ANT # / TYPE
  -755449.6478 -5565126.2710  3013065.8068                  APPROX POSITION XYZ
        1.9990        0.0000        0.0000                  ANTENNA: DELTA H/E/N
     1     1                                                WAVELENGTH FACT L1/2
     5    L1    L2    C1    P1    P2                        # / TYPES OF OBSERV
    15                                                      LEAP SECONDS
  2011     8    19     0     0   30.0000000     GPS         TIME OF FIRST OBS
                                                            END OF HEADER
 11  8 19  0  0 30.0000000  0  7G17G09G12G10G02G04G05
 -81227358.33257 -63252418.16054  22828210.1954                   22828207.6564
 -38700821.90656 -29751517.68454  23086025.0864                   23086024.8094
 -28021644.13757 -21788139.15255  22187065.3444                   22187063.2304
 -44209407.90657 -33982190.72355  21125127.3364                   21125125.8404
 -52808120.75057 -40484727.82856  20788632.8364                   20788628.3954
 -67506498.69557 -52558685.99655  21140667.4144                   21140665.5514
 -18730636.19557 -14547132.60554  22950573.4534                   22950573.0234
 11  8 19  0  1  0.0000000  0  7G17G09G12G10G02G04G05
 -81276792.23847 -63290938.11744  22818802.9454                   22818801.5164
 -38729717.33246 -29774033.63744  23080525.4534                   23080525.6334
 -28194545.55947 -21922867.50045  22154163.6644                   22154160.9574
 -44333462.53947 -34078856.64545  21101520.6644                   21101518.3874
 -52918071.43448 -40570403.66046  20767709.3754                   20767705.0554
 -67533623.10948 -52579821.93445  21135505.4384                   21135503.7974
 -18926450.02747 -14699714.70744  22913310.8594                   22913311.0984
 11  8 19  0  1 30.0000000  0  7G17G09G12G10G02G04G05
 -81326044.35947 -63329316.41044  22809431.0004                   22809429.5394
 -38758227.71946 -29796249.56244  23075100.5784                   23075100.3754
 -28367083.39847 -22057312.55145  22121330.3594                   22121328.3204
 -44456875.62547 -34175022.64845  21078035.5234                   21078033.7734
 -53027630.12547 -40655774.04746  20746861.2504                   20746857.0634
 -67560451.93047 -52600727.52345  21130400.6564                   21130398.3444
 -19122044.32047 -14852125.73844  22876090.2274                   22876090.5044
 11  8 19  0  2  0.0000000  0  7G17G09G12G10G02G04G05
 -81375129.28547 -63367564.44544  22800090.2584                   22800088.4694
 -38786372.19546 -29818180.36343  23069744.3674                   23069744.5664
 -28539271.29747 -22191484.90645  22088563.9384                   22088562.0084
 -44579661.14847 -34270699.65245  21054670.1334                   21054668.7774
 -53136813.01647 -40740851.60246  20726084.6644                   20726080.1414
 -67587003.02747 -52621416.70745  21125347.9144                   21125346.0434
 -19317431.56647 -15004375.43444  22838909.9614                   22838909.6604
 11  8 19  0  2 30.0000000  0  7G17G09G12G10G02G04G05
 -81424050.36747 -63405684.77344  22790780.8834                   22790779.0044
 -38814157.63746 -29839831.40643  23064457.6954                   23064457.2664
 -28711109.98047 -22325385.14845  22055864.5784                   22055861.9964
 -44701821.20747 -34365889.28145  21031423.9694                   21031422.3164
 -53245624.50047 -40825639.74646  20705378.5784                   20705374.0744
 -67613282.25447 -52641894.04345  21120347.3674                   21120345.2704
 -19512612.24247 -15156464.14845  22801768.6724                   22801768.0514
 11  8 19  0  3  0.0000000  0  7G17G09G12G10G02G04G05
 -81472803.54747 -63443674.28944  22781503.1334                   22781501.4614
 -38841584.08646 -29861202.71543  23059238.4774                   23059238.3794
 -28882593.63347 -22459008.74645  22023232.1644                   22023229.6414
 -44823351.02747 -34460587.80945  21008298.0004                   21008295.5274
 -53354062.44148 -40910136.82846  20684743.2504                   20684738.8594
 -67639288.66847 -52662158.80545  21115398.3524                   21115396.3914
 -19707580.29347 -15308387.19144  22764667.1484                   22764666.2894
 11  8 19  0  3 30.0000000  0  7G17G09G12G10G02G04G05
 -81521389.53547 -63481533.51644  22772257.6024                   22772256.0784
 -38868656.16446 -29882297.88743  23054086.6254                   23054086.8134
 -29053720.93447 -22592354.66845  21990667.8054                   21990665.3324
 -44944250.11747 -34554794.85245  20985291.8284                   20985289.8134
 -53462128.90647 -40994344.43746  20664178.8444                   20664174.2854
 -67665025.83247 -52682213.74645  21110500.2504                   21110498.8674
 -19902334.16047 -15460143.35544  22727606.2974                   22727605.8404
 11  8 19  0  4  0.0000000  0  7G17G09G12G10G02G04G05
 -81569805.19146 -63519260.05544  22763044.0474                   22763043.1024
 -38895374.85946 -29903117.68043  23049002.3594                   23049002.2074
 -29224486.87547 -22725419.00045  21958172.1334                   21958169.5744
 -45064514.60247 -34648507.40645  20962406.2814                   20962404.0554
 -53569822.28547 -41078261.33246  20643685.4224                   20643680.8554
 -67690493.66047 -52702058.81645  21105654.1254                   21105652.2704
 -20096868.02747 -15611728.08644  22690587.1564                   22690587.0554
 11  8 19  0  4 30.0000000  0  7G17G09G12G10G02G04G05
 -81618049.75447 -63556853.29344  22753864.0784                   22753862.6374
 -38921743.44146 -29923664.70344  23043984.8284                   23043984.7934
 -29394888.79347 -22858199.68745  21925745.6254                   21925743.3834
 -45184143.12547 -34741724.39145  20939641.4534                   20939639.4924
 -53677143.47347 -41161888.21146  20623263.0234                   20623258.2854
 -67715694.37547 -52721695.73845  21100858.7504                   21100856.8554
 -20291178.88347 -15763139.02344  22653611.5784                   22653611.0394
 11  8 19  0  5  0.0000000  0  7G17G09G12G10G02G04G05
 -81666123.25846 -63594313.22744  22744715.7664                   22744714.5704
 -38947766.00846 -29943942.09043  23039032.0234                   23039032.2974
 -29564924.64847 -22990695.13745  21893388.5554                   21893386.3404
 -45303134.79347 -34834445.13745  20916998.0004                   20916995.7854
 -53784093.94147 -41245226.21546  20602910.6094                   20602906.2774
 -67740630.70347 -52741126.64145  21096113.1804                   21096111.7424
 -20485264.44947 -15914374.43044  22616678.2974                   22616677.5004
 11  8 19  0  5 30.0000000  0  7G17G09G12G10G02G04G05
 -81714024.50047 -63631638.91844  22735600.4454                   22735599.3134
 -38973444.94946 -29963951.72343  23034146.3754                   23034146.1134
 -29734591.30947 -23122902.89145  21861102.2814                   21861099.9184
 -45421487.82847 -34926668.25045  20894476.6954                   20894474.0164
 -53890673.99647 -41328275.58246  20582629.5004                   20582624.5784
 -67765304.64547 -52760353.10245  21091418.4534                   21091416.3794
 -20679121.33647 -16065431.63344  22579788.6024                   22579787.6604
 11  8 19  0  6  0.0000000  0  7G17G09G12G10G02G04G05
 -81761754.00447 -63668830.79744  22726518.2424                   22726516.6414
 -38998785.07446 -29983697.31243  23029324.6024                   23029324.4144
 -29903887.62947 -23254822.06645  21828886.1804                   21828883.8244
 -45539201.81647 -35018393.41845  20872075.5474                   20872073.3404
 -53996885.77347 -41411037.99246  20562418.0004                   20562413.2704
 -67789719.40647 -52779377.59045  21086772.3524                   21086770.4734
 -20872747.52047 -16216309.07444  22542942.3834                   22542941.4964
 11  8 19  0  6 30.0000000  0  7G17G09G12G10G02G04G05
 -81809311.51646 -63705888.64144  22717468.1644                   22717466.8954
 -39023790.12546 -30003181.82844  23024566.8054                   23024566.2894
 -30072811.20747 -23386450.78945  21796740.8594                   21796738.6484
 -45656275.83647 -35109619.91445  20849797.6724                   20849795.5594
 -54102730.41047 -41493514.31246  20542276.5234                   20542271.9224
 -67813877.95747 -52798202.43445  21082175.5084                   21082173.0664
 -21066140.50047 -16367004.79744  22506140.7344                   22506139.9654
 11  8 19  0  7  0.0000000  0  8G17G09G12G10G02G04G05G30
 -81856696.18046 -63742811.79344  22708451.5784                   22708449.6884
 -39048463.18446 -30022407.63744  23019870.6484                   23019870.7034
 -30241359.35947 -23517786.97745  21764667.0704                   21764664.7814
 -45772708.55547 -35200346.68745  20827640.7114                   20827639.6524
 -54208208.83247 -41575705.27046  20522204.6254                   20522199.9614
 -67837782.23447 -52816829.14145  21077626.2424                   21077624.5234
 -21259297.03947 -16517516.26245  22469383.9924                   22469383.4804
   -293245.09416                  24212197.367
 11  8 19  0  7 30.0000000  0  8G17G09G12G10G02G04G05G30
 -80328492.38746 -62552003.68044  22999259.0314                   22999257.2584
 -37497393.66446 -28813782.09444  23315030.1954                   23315029.5984
 -28834110.73847 -22421229.56645  22032458.0314                   22032455.6804
 -44313081.41447 -34062974.87545  21105398.6024                   21105397.0634
 -52737905.08647 -40430014.02746  20801993.8524                   20801989.4574
 -66286020.37547 -51607664.05945  21372916.6954                   21372914.6604
 -19876794.48847 -15440241.43445  22732465.4694                   22732465.2974
   1082392.45346   1099033.39852  24473972.0474                   24473972.8594
 11  8 19  0  8  0.0000000  0  8G17G09G12G10G02G04G05G30
 -80375545.17246 -62588668.22344  22990304.4614                   22990303.9964
 -37521428.66447 -28832510.72344  23310456.2344                   23310455.7074
 -29001916.27347 -22551987.08245  22000525.5474                   22000522.9884
 -44428243.19147 -34152711.29345  21083484.3594                   21083482.2734
 -52842669.55547 -40511648.65646  20782057.8284                   20782053.2704
 -66309438.47347 -51625911.94545  21368460.6334                   21368458.6844
 -20069485.24247 -15590389.97745  22695798.3984                   22695797.5274
    882803.62945    943509.66442  24435991.3204                   24435991.5124
 11  8 19  0  8 30.0000000  0  8G17G09G12G10G02G04G05G30
 -80422437.26246 -62625207.54344  22981381.2894                   22981379.9884
 -37545155.47346 -28850999.21544  23305941.0474                   23305941.0084
 -29169352.01247 -22682456.45345  21968663.4224                   21968660.8874
 -44542773.73847 -34241955.85545  21061689.7424                   21061687.7854
 -52947084.46947 -40593010.91446  20762188.6254                   20762183.8984
 -66332623.08247 -51643977.88345  21364048.5864                   21364046.6954
 -20261944.41447 -15740358.05945  22659173.9224                   22659173.1884
    683412.96945    788140.35242  24398049.7034                   24398049.3524
 11  8 19  0  9  0.0000000  0  8G17G09G12G10G02G04G05G30
 -80469163.24646 -62661617.43744  22972490.4924                   22972488.5664
 -37568572.84046 -28869246.55544  23301484.8754                   23301484.9344
 -29336411.48047 -22812632.62145  21936873.2424                   21936871.0124
 -44656667.31247 -34330704.06645  21040016.2344                   21040014.4104
 -53051146.07847 -40674097.86346  20742386.3594                   20742381.6294
 -66355571.50847 -51661859.78945  21359681.6094                   21359679.6884
 -20454164.60247 -15890139.92645  22622595.3524                   22622594.7854
    484227.96945    632931.34042  24360145.4694                   24360146.1134
 11  8 19  0  9 30.0000000  0  8G17G09G12G10G02G04G05G30
 -80515722.68446 -62697897.57044  22963630.2504                   22963629.0904
 -37591684.39147 -28887255.62944  23297087.2194                   23297086.8714
 -29503092.01647 -22942513.53145  21905154.9144                   21905152.2304
 -44769922.65247 -34418954.95345  21018464.5554                   21018462.6134
 -53154855.15247 -40754910.11346  20722650.9534                   20722646.5824
 -66378286.20347 -51679559.55945  21355358.8914                   21355357.4734
 -20646142.62147 -16039733.08645  22586063.2114                   22586062.2624
    285251.37545    477884.74242  24322281.1334                   24322282.0124
 11  8 19  0 10  0.0000000  0  8G17G09G12G10G02G04G05G30
 -80562112.05546 -62734045.15644  22954803.0784                   22954800.8594
 -37614490.98046 -28905027.05544  23292747.1094                   23292747.0904
 -29669388.59847 -23072095.24645  21873509.4844                   21873506.9184
 -44882535.76647 -34506705.40645  20997034.9924                   20997033.0594
 -53258210.30947 -40835446.59046  20702983.0944                   20702978.5864
 -66400766.85247 -51697076.96145  21351081.7274                   21351079.2424
 -20837873.12147 -16189133.36345  22549578.5784                   22549577.5044
     86488.28945    323004.48843  24284457.9924                   24284458.1914
 11  8 19  0 10 30.0000000  0  8G17G09G12G10G02G04G05G30
 -80608330.57047 -62770059.60244  22946007.3984                   22946006.1374
 -37636995.77046 -28922563.30544  23288465.4774                   23288465.2154
 -29835298.35947 -23201375.54745  21841938.1484                   21841935.4964
 -44994505.73047 -34593954.69145  20975727.7734                   20975725.6644
 -53361212.58247 -40915708.09046  20683382.3364                   20683377.6174
 -66423015.32847 -51714413.45345  21346847.9304                   21346845.5474
 -21029352.89147 -16338338.28145  22513140.1564                   22513139.7464
   -112058.39545    168292.89842  24246675.2814                   24246675.9494
 11  8 19  0 11  0.0000000  0  8G17G09G12G10G02G04G05G30
 -80654377.28146 -62805940.18444  22937244.2974                   22937243.7974
 -37659201.53146 -28939866.57444  23284238.9534                   23284239.5474
 -30000818.14147 -23330351.97745  21810440.7034                   21810437.9884
 -45105830.61347 -34680701.32845  20954543.3594                   20954541.4184
 -53463862.07047 -40995694.69146  20663849.1024                   20663844.2034
 -66445033.41047 -51731570.41045  21342657.5164                   21342655.7814
 -21220578.17647 -16487344.88345  22476751.3284                   22476750.2114
   -310385.07845     13752.77042  24208935.5704                   24208935.3874
 11  8 19  0 11 30.0000000  0  8G17G09G12G10G02G04G05G30
 -80700251.13347 -62841686.07844  22928515.9844                   22928514.3674
 -37681111.49646 -28956939.34844  23280069.2584                   23280069.6454
 -30165944.75847 -23459022.04345  21779018.0704                   21779015.4494
 -45216509.36747 -34766944.47345  20933481.7974                   20933479.7774
 -53566159.36347 -41075406.85246  20644382.6804                   20644377.8404
 -66466822.89547 -51748549.23045  21338511.4844                   21338509.4804
 -21411546.05147 -16636150.90644  22440411.1484                   22440410.9264
   -508488.87146   -140613.76643  24171237.5084                   24171237.1684
 11  8 19  0 12  0.0000000  0  9G17G09G12G10G02G04G05G30G25
 -80745950.98047 -62877296.39844  22919819.5554                   22919817.9774
 -37702728.52346 -28973783.85944  23275956.7814                   23275956.5004
 -30330675.96947 -23587383.99245  21747671.2664                   21747667.9804
 -45326540.37147 -34852682.87545  20912543.7344                   20912541.8404
 -53668105.36747 -41154845.28146  20624982.8364                   20624978.5514
 -66488385.52047 -51765351.28545  21334407.8834                   21334405.9344
 -21602253.03947 -16784753.63745  22404121.0944                   22404120.2384
   -706366.54346   -294804.08243  24133582.5634                   24133581.5204
   1285993.53956   1049255.56353  24625863.8594                   24625865.2974
 11  8 19  0 12 30.0000000  0  9G17G09G12G10G02G04G05G30G25
 -80791477.23047 -62912771.43044  22911155.5164                   22911154.6844
 -37724056.84846 -28990403.39544  23271897.8364                   23271897.9924
 -30495010.22347 -23715436.63345  21716399.1484                   21716396.2194
 -45435923.48847 -34937916.44145  20891728.8524                   20891726.6844
 -53769701.78147 -41234011.30546  20605650.1954                   20605644.9224
 -66509724.82847 -51781979.33245  21330347.5554                   21330345.7734
 -21792697.02347 -16933151.43745  22367880.7034                   22367879.6724
   -904016.25846   -448816.78943  24095970.5084                   24095970.7424
   1088799.72746    895598.11743  24588339.4534                   24588340.6024
 11  8 19  0 13  0.0000000  0  9G17G09G12G10G02G04G05G30G25
 -80836833.88347 -62948114.32044  22902524.3444                   22902523.5004
 -37745104.57446 -29006804.27043  23267893.0704                   23267892.8094
 -30658949.37947 -23843181.39545  21685202.3364                   21685199.8674
 -45544662.53547 -35022648.13745  20871036.4614                   20871034.4344
 -53870954.41447 -41312909.44946  20586381.8914                   20586377.2384
 -66530847.42647 -51798438.52745  21326327.8984                   21326326.0274
 -21982879.69947 -17081345.61745  22331690.0864                   22331689.4184
  -1101440.06646   -602653.44543  24058403.0634                   24058401.7034
    891742.12146    742046.80143  24550840.1484                   24550841.8284
 11  8 19  0 13 30.0000000  0  9G17G09G12G10G02G04G05G30G25
 -80882023.15246 -62983326.78944  22893926.4774                   22893924.1914
 -37765877.61346 -29022991.13744  23263939.5004                   23263939.8054
 -30822493.18047 -23970618.10545  21654081.1724                   21654078.9414
 -45652758.88747 -35106879.03945  20850466.3364                   20850464.4304
 -53971866.66447 -41391542.35946  20567178.8754                   20567174.0864
 -66551758.07847 -51814732.53545  21322348.9774                   21322346.9224
 -22172800.68047 -17229335.88745  22295549.3984                   22295548.2344
  -1298637.44946   -756313.68043  24020876.7424                   24020876.0514
    694820.88345    588601.80143  24513366.6884                   24513368.9924
 11  8 19  0 14  0.0000000  0  9G17G09G12G10G02G04G05G30G25
 -80927041.00847 -63018405.69144  22885359.4384                   22885357.9964
 -37786376.28146 -29038964.19543  23260038.8594                   23260039.0744
 -30985636.21147 -24097742.51645  21623035.8594                   21623033.2504
 -45760208.46947 -35190605.96145  20830019.1724                   20830017.2584
 -54072436.39547 -41469908.36746  20548041.1954                   20548036.3674
 -66572455.60547 -51830860.50445  21318409.9534                   21318408.4304
 -22362453.47747 -17377117.18045  22259459.2424                   22259458.6684
  -1495602.46946   -909792.89543  23983395.7114                   23983395.1374
    498041.74645    435267.51242  24475920.6414                   24475923.1454
 11  8 19  0 14 30.0000000  0  9G17G09G12G10G02G04G05G30G25
 -80971889.14546 -63053352.32844  22876824.0234                   22876823.5594
 -37806606.35546 -29054727.97343  23256188.9614                   23256189.7344
 -31148378.27747 -24224554.49645  21592066.9384                   21592064.3794
 -45867012.87547 -35273830.16045  20809695.4224                   20809693.1604
 -54172667.20347 -41548010.28146  20528967.6414                   20528963.1804
 -66592944.64547 -51846825.99245  21314511.0554                   21314509.5824
 -22551837.90247 -17524689.35945  22223420.6954                   22223419.5474
  -1692334.89146  -1063090.85243  23945958.1954                   23945958.4844
    301404.63346    282043.84443  24438501.6254                   24438504.1994
 11  8 19  0 15  0.0000000  0  9G17G09G12G10G02G04G05G30G25
 -81016563.75046 -63088163.76244  22868323.4844                   22868322.3014
 -37826568.02746 -29070282.59843  23252391.3674                   23252390.9574
 -31310713.89547 -24351049.76245  21561175.8674                   21561173.1684
 -45973168.36747 -35356548.71145  20789494.4064                   20789492.1414
 -54272557.01247 -41625846.48446  20509959.5554                   20509954.9184
 -66613224.43447 -51862628.44545  21310651.9774                   21310650.2854
 -22740947.90647 -17672047.69545  22187434.2814                   22187433.3364
  -1888828.83246  -1216203.00443  23908567.3524                   23908566.7154
    104915.11346    128935.23043  24401111.1254                   24401112.9344
 11  8 19  0 15 30.0000000  0  9G17G09G12G10G02G04G05G30G25
 -81061065.46947 -63122840.46144  22859855.9924                   22859854.0514
 -37846265.85246 -29085631.64143  23248642.2734                   23248642.5314
 -31472641.71947 -24477227.24645  21530361.7734                   21530359.3714
 -46078674.95347 -35438761.61745  20769417.1414                   20769415.0474
 -54372107.63347 -41703418.38346  20491015.9614                   20491010.9144
 -66633298.06247 -51878270.26645  21306832.2504                   21306830.3834
 -22929781.37547 -17819190.55145  22151500.0004                   22151499.2304
  -2085082.36746  -1369127.83642  23871221.6094                   23871220.8794
    -91425.33646    -24057.25443  24363749.4144                   24363750.6024
 11  8 19  0 16  0.0000000  0  9G17G09G12G10G02G04G05G30G25
 -79529968.07446 -61929777.62144  23151213.5944                   23151211.8244
 -36290278.54746 -27873174.07843  23544737.7274                   23544737.6374
 -30058729.44947 -23375477.40245  21799420.3674                   21799417.5904
 -44608104.01247 -34292862.16845  21049257.3524                   21049255.2704
 -52895892.79347 -40553121.09446  20771929.7274                   20771925.2504
 -65077742.88747 -50666149.37545  21602843.9924                   21602842.8054
 -21542904.94547 -16738507.52745  22415413.6334                   22415412.7344
   -705662.06246   -294254.89543  24133716.2344                   24133715.9064
   1287816.55146   1050676.79743  24626209.8984                   24626212.1414
 11  8 19  0 16 30.0000000  0  9G17G09G12G10G02G04G05G30G25
 -79574112.53946 -61964175.98844  23142812.8834                   23142811.8954
 -36309449.53946 -27888112.57043  23541088.7274                   23541089.3444
 -30219824.52047 -23501005.99645  21768764.8204                   21768762.3984
 -44712300.89147 -34374054.52345  21029429.9694                   21029427.3054
 -52994759.07447 -40630159.74246  20753116.4924                   20753111.4734
 -65097401.18747 -50681467.55545  21599103.7504                   21599101.7034
 -21731167.39147 -16885205.43745  22379588.8054                   22379587.7464
   -901417.11745   -446791.25842  24096464.7114                   24096464.3594
   1091791.19546    897929.81343  24588907.5004                   24588909.3244
 11  8 19  0 17  0.0000000  0  9G17G09G12G10G02G04G05G30G25
 -79618076.14146 -61998433.41844  23134447.3054                   23134445.9384
 -36328360.92646 -27902848.81243  23537490.2734                   23537490.4654
 -30380498.01647 -23626206.09845  21738189.7814                   21738187.2194
 -44815840.60247 -34454734.79345  21009726.9694                   21009724.8244
 -53093283.40247 -40706931.93446  20734367.7424                   20734362.8324
 -65116853.80947 -50696625.46145  21595402.3054                   21595400.2664
 -21919138.54747 -17031676.37145  22343818.9774                   22343817.9454
  -1096917.30546   -599129.05942  24059263.0784                   24059262.5234
    895928.55546    745309.60543  24551636.1724                   24551638.0234
 11  8 19  0 17 30.0000000  0  9G17G09G12G10G02G04G05G30G25
 -79661858.23846 -62032549.41044  23126115.8674                   23126114.5664
 -36347016.03946 -27917385.32043  23533940.9064                   23533940.8524
 -30540747.44147 -23751075.75845  21707695.4384                   21707692.8594
 -44918722.19147 -34534902.25445  20990148.7584                   20990146.6134
 -53191466.68047 -40783438.37146  20715684.0554                   20715679.4304
 -65136102.53147 -50711624.48845  21591739.1334                   21591737.1454
 -22106815.40247 -17177917.99245  22308105.4384                   22308103.9884
  -1292159.80546   -751266.03142  24022109.2274                   24022108.3164
    700231.12546    592818.15243  24514396.1094                   24514398.0984
 11  8 19  0 18  0.0000000  0  9G17G09G12G10G02G04G05G30G25
 -79705457.19546 -62066522.66044  23117819.1954                   23117818.1484
 -36365417.41046 -27931724.12943  23530438.6804                   23530438.8754
 -30700569.87147 -23875612.68745  21677282.2424                   21677279.6374
 -45020943.92647 -34614555.53545  20970696.2974                   20970694.4924
 -53289308.97347 -40859679.09846  20697065.2344                   20697060.4104
 -65155149.03547 -50726465.93445  21588114.4924                   21588112.5634
 -22294193.91447 -17323927.12145  22272447.8914                   22272447.2384
  -1487140.98046   -903199.43442  23985005.6414                   23985004.8634
    504702.28546    440458.05943  24477188.0234                   24477190.0864
 11  8 19  0 18 30.0000000  0  9G17G09G12G10G02G04G05G30G25
 -79748873.21146 -62100353.34044  23109557.6094                   23109555.8324
 -36383569.19146 -27945868.45343  23526984.5784                   23526985.3364
 -30859963.11747 -23999815.19145  21646950.2274                   21646947.7734
 -45122505.91847 -34693694.73845  20951369.8674                   20951368.0394
 -53386812.50047 -40935655.85546  20678511.0634                   20678506.1804
 -65173995.76647 -50741151.71545  21584528.3834                   21584526.5864
 -22481272.09847 -17469702.23445  22236848.3914                   22236847.2974
  -1681858.63346  -1054927.40642  23947952.1954                   23947951.7114
    309343.95746    288230.78543  24440012.4454                   24440014.3594
 11  8 19  0 19  0.0000000  0  9G17G09G12G10G02G04G05G30G25
 -79792108.04746 -62134042.86744  23101330.0944                   23101328.6724
 -36401477.06646 -27959822.71543  23523577.6174                   23523577.4024
 -31018927.04747 -24123683.16045  21616700.6724                   21616698.2464
 -45223410.43447 -34772321.62545  20932168.3984                   20932166.2074
 -53483980.39847 -41011371.08646  20660020.3674                   20660015.8094
 -65192647.42247 -50755685.49245  21580979.3444                   21580977.1094
 -22668049.32447 -17615242.84045  22201305.8284                   22201304.6604
  -1876312.33646  -1206449.73443  23910947.4774                   23910948.4694
    114156.25046    136136.45743  24402869.5784                   24402870.9694
 11  8 19  0 19 30.0000000  0  9G17G09G12G10G02G04G05G30G25
 -79835158.79746 -62167588.98044  23093138.4384                   23093136.6564
 -36419141.87546 -27973587.56243  23520215.2894                   23520216.0744
 -31177457.07447 -24247213.01645  21586533.6334                   21586530.8404
 -45323654.15647 -34850433.59845  20913092.5084                   20913090.3674
 -53580811.60547 -41086823.96146  20641594.0474                   20641589.4144
 -65211103.55547 -50770066.91045  21577467.0084                   21577465.1724
 -22854520.16047 -17760544.70745  22165821.6804                   22165820.3594
  -2070496.87146  -1357762.34843  23873995.8524                   23873995.8794
    -80855.84446    -15821.02343  24365760.3524                   24365761.5514
 11  8 19  0 20  0.0000000  0  9G17G09G12G10G02G04G05G30G25
 -79878020.72746 -62200987.96143  23084981.2894                   23084980.6054
 -36436563.00446 -27987162.55543  23516900.3834                   23516900.5394
 -31335546.44547 -24370399.51645  21556450.2974                   21556447.3324
 -45423232.53947 -34928027.11745  20894143.6804                   20894141.4384
 -53677302.59447 -41162011.72746  20623232.3754                   20623227.7194
 -65229362.20747 -50784294.44145  21573992.3674                   21573990.2464
 -23040677.55147 -17905602.31245  22130396.5554                   22130395.7774
  -2264405.18746  -1508859.68743  23837096.9384                   23837096.6334
   -275685.70346   -167636.51643  24328685.4924                   24328686.7704
 11  8 19  0 20 30.0000000  0  9G17G09G12G10G02G04G05G30G25
 -79920697.43746 -62234242.60244  23076860.0394                   23076859.0124
 -36453748.37146 -28000553.81243  23513630.4774                   23513630.6094
 -31493197.53947 -24493244.50445  21526450.4144                   21526447.1334
 -45522149.19147 -35005105.00845  20875320.5864                   20875318.4104
 -53773459.30147 -41236939.02346  20604934.1564                   20604929.5944
 -65247429.91447 -50798373.20345  21570554.2274                   21570552.2194
 -23226523.07447 -18050416.91445  22095031.5084                   22095029.8874
  -2458039.08246  -1659743.20743  23800250.3984                   23800249.3874
   -470335.13346   -319311.41043  24291645.1254                   24291646.3164
 11  8 19  0 21  0.0000000  0  9G17G09G12G10G02G04G05G30G25
 -79963187.59846 -62267351.84844  23068774.1884                   23068773.8094
 -36470700.48446 -28013763.31643  23510404.4924                   23510404.5664
 -31650407.04747 -24615745.40245  21496533.8134                   21496531.2584
 -45620402.68747 -35081666.14845  20856623.2274                   20856621.0314
 -53869281.91847 -41311605.97746  20586699.9224                   20586695.1214
 -65265307.58647 -50812303.87945  21567152.2664                   21567150.6884
 -23412053.04747 -18194985.64545  22059726.3134                   22059724.5904
  -2651394.73846  -1810409.93743  23763455.0704                   23763454.4694
   -664800.75846   -470843.03143  24254639.1414                   24254640.8524
 11  8 19  0 21 30.0000000  0  9G17G09G12G10G02G04G05G30G25
 -80005489.08646 -62300314.07844  23060725.3594                   23060724.0084
 -36487421.38746 -28026792.66443  23507223.1884                   23507223.0044
 -31807170.74247 -24737898.90645  21466702.7974                   21466700.2704
 -45717991.23847 -35157709.15245  20838052.3524                   20838050.7424
 -53964770.07447 -41386012.32046  20568529.3204                   20568524.7814
 -65282996.14147 -50826087.19145  21563786.8984                   21563784.3164
 -23597262.82047 -18339304.85945  22024481.9304                   22024480.5594
  -2844467.86546  -1960856.51243  23726714.7274                   23726714.2074
   -859078.59446   -622228.34043  24217669.0864                   24217671.0594
 11  8 19  0 22  0.0000000  0  9G17G09G12G10G02G04G05G30G25
 -80047602.59447 -62333129.80944  23052711.8984                   23052710.4024
 -36503915.55146 -28039645.31243  23504084.1094                   23504084.5124
 -31963487.73447 -24859704.33645  21436956.9534                   21436954.4264
 -45814915.56247 -35233234.57445  20819608.8364                   20819606.3714
 -54059925.97347 -41460159.75846  20550421.3674                   20550416.7584
 -65300499.00447 -50839725.81245  21560455.6024                   21560453.6374
 -23782151.02747 -18483373.48845  21989298.5234                   21989297.2234
  -3037256.85546  -2111081.63343  23690027.4064                   23690027.4494
  -1053167.21546   -773466.23843  24180735.4224                   24180737.0864
 11  8 19  0 22 30.0000000  0  9G17G09G12G10G02G04G05G30G25
 -80089525.37147 -62365796.95344  23044733.5704                   23044732.8284
 -36520184.32046 -28052322.34043  23500988.4224                   23500989.0234
 -32119353.07047 -24981157.82445  21407296.7504                   21407294.1954
 -45911172.91847 -35308240.28145  20801291.5554                   20801289.6724
 -54154748.60947 -41534047.52046  20532377.5864                   20532372.5984
 -65317815.60547 -50853219.28545  21557160.7734                   21557158.4614
 -23966712.49247 -18627187.53545  21954177.5314                   21954176.0274
  -3229756.74246  -2261081.49243  23653396.2974                   23653395.5744
  -1247061.93446   -924553.02743  24143838.6484                   24143840.4844
 11  8 19  0 23  0.0000000  0  9G17G09G12G10G02G04G05G30G25
 -80131259.22347 -62398316.86344  23036792.6804                   23036791.1994
 -36536233.57046 -28064828.30543  23497933.6484                   23497934.2504
 -32274767.16447 -25102259.68445  21377722.1174                   21377719.4304
 -46006765.80547 -35382728.22345  20783101.0004                   20783098.3484
 -54249241.40247 -41607678.25846  20514396.0004                   20514391.5784
 -65334950.75847 -50866571.37945  21553899.6884                   21553897.6764
 -24150946.65647 -18770746.54345  21919119.3364                   21919117.8554
  -3421966.98446  -2410855.67243  23616819.6804                   23616819.5474
  -1440762.48046  -1075488.50843  24106978.2734                   24106979.9224
 11  8 19  0 23 30.0000000  0  9G17G09G12G10G02G04G05G30G25
 -80172804.52347 -62430689.85944  23028887.2664                   23028885.1414
 -36552067.52046 -28077166.48843  23494921.6564                   23494921.5634
 -32429728.26647 -25223008.56645  21348234.0784                   21348231.3634
 -46101694.12947 -35456698.31245  20765036.5394                   20765034.6644
 -54343406.14547 -41681053.36746  20496477.0634                   20496472.6844
 -65351907.10247 -50879784.13345  21550673.3834                   21550671.3284
 -24334851.29747 -18914048.78545  21884123.0394                   21884121.8984
  -3613885.63746  -2560402.59443  23580299.6564                   23580298.7424
  -1634267.07046  -1226271.28543  24070155.2894                   24070157.5904
 11  8 19  0 24  0.0000000  0  9G17G09G12G10G02G04G05G30G25
 -80214158.00847 -62462913.44944  23021016.5634                   23021016.2934
 -36567686.93746 -28089337.57043  23491949.1254                   23491949.6094
 -32584231.60247 -25343400.75045  21318832.8364                   21318830.1524
 -46195955.57447 -35530148.77045  20747099.1564                   20747097.1724
 -54437241.99647 -41754172.20346  20478620.8524                   20478616.4264
 -65368684.26247 -50892857.27345  21547480.4844                   21547478.3984
 -24518421.54347 -19057090.45345  21849190.5704                   21849189.2664
  -3805507.42646  -2709718.21543  23543834.7344                   23543834.5824
  -1827570.80546  -1376897.53543  24033370.7504                   24033373.0904
 11  8 19  0 24 30.0000000  0  9G17G09G12G10G02G04G05G30G25
 -78679898.86346 -61267386.91044  23312977.2114                   23312975.9384
 -35007675.78146 -26873744.51243  23788809.1484                   23788810.2194
 -31162850.58647 -24235831.10945  21589312.8524                   21589310.3914
 -44714127.34447 -34375477.39545  21029081.4844                   21029079.6414
 -52955327.53147 -40599433.63346  20760619.5944                   20760615.0274
 -63809864.79347 -49678192.78145  21844114.0784                   21844112.0634
 -23126228.98447 -17972265.02045  22114116.1334                   22114114.7814
  -2421404.14546  -1631196.09443  23807219.7344                   23807220.2974
   -445245.55146   -299760.94143  24296418.9534                   24296420.8484
 11  8 19  0 25  0.0000000  0  9G17G09G12G10G02G04G05G30G25
 -78720871.02346 -61299313.31644  23305179.9454                   23305179.2234
 -35022880.11746 -26885592.12143  23785916.0164                   23785916.7154
 -31316435.20347 -24355507.41445  21560087.0554                   21560083.7734
 -44807057.25447 -34447890.28545  21011398.0004                   21011395.6644
 -53048512.11347 -40672044.97746  20742887.1644                   20742882.5744
 -63826293.30947 -49690994.24645  21840987.8594                   21840986.0434
 -23309124.85547 -18114781.20745  22079312.0944                   22079310.6644
  -2612427.40246  -1780045.32842  23770869.4844                   23770869.6724
   -638143.30146   -450070.80943  24259711.5704                   24259713.6174
 11  8 19  0 25 30.0000000  0  9G17G09G12G10G02G04G05G30G25
 -78761651.00846 -61331089.94944  23297420.1414                   23297418.8284
 -35037881.89146 -26897281.88343  23783060.6804                   23783061.7194
 -31469556.46547 -24474822.66445  21530948.5704                   21530945.8754
 -44899320.90247 -34519784.02345  20993840.5864                   20993838.2304
 -53141372.51647 -40744403.71946  20725216.3674                   20725211.7544
 -63842550.19547 -49703661.98045  21837894.1954                   21837892.4774
 -23491678.67247 -18257030.86345  22044573.5554                   22044571.9884
  -2803146.80546  -1928657.75443  23734577.2344                   23734576.7424
   -830833.84446   -600219.22743  24223044.1094                   24223045.3554
 11  8 19  0 26  0.0000000  0  9G17G09G12G10G02G04G05G30G25
 -78802238.27046 -61362716.39544  23289696.8674                   23289695.1844
 -35052684.09046 -26908816.12143  23780244.1644                   23780245.2344
 -31622211.92647 -24593774.94145  21501899.5634                   21501896.5514
 -44990917.59847 -34591158.05145  20976410.1254                   20976408.1804
 -53233909.57047 -40816510.50846  20707607.1254                   20707602.6024
 -63858637.24247 -49716197.36745  21834833.0944                   21834831.1884
 -23673887.44147 -18399011.65645  22009900.1644                   22009898.7774
  -2993559.14546  -2077030.85242  23698342.4384                   23698341.9224
  -1023314.24646   -750203.92643  24186415.3594                   24186417.9964
 11  8 19  0 26 30.0000000  0  9G17G09G12G10G02G04G05G30G25
 -78842631.36747 -61394191.57844  23282010.7034                   23282009.0824
 -35067289.60946 -26920197.11343  23777465.0784                   23777465.9804
 -31774398.53547 -24712361.88345  21472939.5784                   21472936.1214
 -45081846.61347 -34662011.81245  20959106.7114                   20959105.0234
 -53326123.36747 -40888365.40246  20690059.3364                   20690054.7304
 -63874555.64847 -49728601.37145  21831803.9304                   21831802.0204
 -23855747.61747 -18540720.80945  21975293.1724                   21975291.8754
  -3183660.89546  -2225162.00043  23662167.8914                   23662166.7274
  -1215581.28546   -900022.32443  24149829.0394                   24149830.8524
 11  8 19  0 27  0.0000000  0  9G17G09G12G10G02G04G05G30G25
 -78882828.61747 -61425514.16444  23274361.5474                   23274359.6174
 -35081700.12946 -26931426.16043  23774722.6564                   23774724.0394
 -31926112.25447 -24830580.34045  21444068.8984                   21444066.1564
 -45172106.74647 -34732344.37145  20941930.9774                   20941929.4304
 -53418014.24247 -40959968.67246  20672573.0784                   20672568.7074
 -63890306.24247 -49740874.58645  21828806.6334                   21828804.7934
 -24037255.13347 -18682155.17645  21940753.6724                   21940751.9224
  -3373448.14846  -2373048.05143  23626052.7664                   23626051.4024
  -1407631.12546  -1049671.49643  24113282.8674                   24113284.7114
 11  8 19  0 27 30.0000000  0  9G17G09G12G10G02G04G05G30G25
 -78922830.34846 -61456684.38344  23266748.8524                   23266748.1564
 -35095920.21946 -26942506.84443  23772016.5554                   23772017.7974
 -32077352.27747 -24948429.68445  21415288.5164                   21415286.4384
 -45261698.22347 -34802155.90645  20924882.5784                   20924879.8794
 -53509584.16447 -41031321.84446  20655147.7424                   20655143.4774
 -63905891.71947 -49753019.13345  21825840.8134                   21825839.1054
 -24218407.99647 -18823313.16845  21906281.4694                   21906279.4454
  -3562918.78946  -2520687.44143  23589997.2814                   23589996.4964
  -1599461.93746  -1199149.98044  24076779.2504                   24076780.2734
 11  8 19  0 28  0.0000000  0  9G17G09G12G10G02G04G05G30G25
 -78962635.84046 -61487701.71544  23259174.1254                   23259173.8444
 -35109953.08646 -26953441.60943  23769345.9144                   23769347.6254
 -32228116.09047 -25065907.96545  21386599.8834                   21386596.5664
 -45350620.97347 -34871446.35245  20907960.9304                   20907958.5004
 -53600833.90647 -41102425.53546  20637783.7894                   20637779.2194
 -63921313.89147 -49765036.44145  21822906.1174                   21822903.9144
 -24399203.36347 -18964192.60245  21871876.7344                   21871875.7504
  -3752069.81246  -2668077.73043  23554003.1644                   23554001.8404
  -1791070.90246  -1348455.57043  24040316.8444                   24040318.4534
 11  8 19  0 28 30.0000000  0  9G17G09G12G10G02G04G05G30G25
 -79002245.43446 -61518566.40244  23251636.8054                   23251636.5904
 -35123803.17246 -26964233.96543  23766711.1414                   23766712.4384
 -32378402.29747 -25183014.08245  21358001.1724                   21357998.3444
 -45438875.93047 -34940216.42245  20891166.4224                   20891164.4734
 -53691765.80547 -41173281.54746  20620479.7584                   20620475.4884
 -63936575.85247 -49776928.91045  21820002.4774                   21820000.2624
 -24579639.34847 -19104791.99645  21837541.2814                   21837539.5744
  -3940899.51246  -2815217.64143  23518069.4144                   23518069.1954
  -1982456.55946  -1497587.12943  24003897.3054                   24003898.9454
 11  8 19  0 29  0.0000000  0  9G17G09G12G10G02G04G05G30G25
 -79041657.59846 -61549277.27343  23244136.2664                   23244136.1094
 -35137472.57846 -26974885.56643  23764110.2424                   23764111.0164
 -32528207.97747 -25299745.76245  21329494.2114                   21329491.1764
 -45526462.17647 -35008465.42645  20874499.6024                   20874497.3324
 -53782380.02047 -41243890.01246  20603236.3914                   20603232.3324
 -63951678.40247 -49788697.17245  21817127.7424                   21817126.5274
 -24759711.57447 -19245107.95345  21803273.7584                   21803272.7704
  -4129404.03546  -2962104.17643  23482198.5234                   23482197.5864
  -2173615.14846  -1646541.77743  23967521.0084                   23967522.2424
 11  8 19  0 29 30.0000000  0  9G17G09G12G10G02G04G05G30G25
 -79080873.33246 -61579835.05144  23236673.3914                   23236673.7344
 -35150966.09846 -26985400.04343  23761542.4384                   23761543.4804
 -32677531.65247 -25416101.85545  21301078.6644                   21301075.4454
 -45613380.98447 -35076194.35245  20857959.4694                   20857957.2274
 -53872679.05947 -41314252.89846  20586053.1484                   20586048.5084
 -63966624.94947 -49800343.85244  21814283.8524                   21814282.2194
 -24939419.33647 -19385139.89845  21769077.2664                   21769075.9924
  -4317581.68746  -3108736.00443  23446389.2194                   23446388.6134
  -2364545.41046  -1795318.49243  23931188.1024                   23931189.4024
 11  8 19  0 30  0.0000000  0  9G17G09G12G10G02G04G05G30G25
 -79119889.56246 -61610237.36743  23229250.2814                   23229248.7304
 -35164285.22746 -26995778.69543  23759007.4454                   23759008.8054
 -32826369.41047 -25532079.30945  21272755.4304                   21272753.1524
 -45699630.36347 -35143401.63745  20841546.5394                   20841544.5124
 -53962661.86347 -41384369.35546  20568930.3594                   20568925.5434
 -63981415.08247 -49811868.64845  21811469.3914                   21811467.4064
 -25118757.55947 -19524883.90245  21734950.3524                   21734948.3954
  -4505427.71146  -3255109.44143  23410643.5084                   23410642.1684
  -2555242.66046  -1943913.59443  23894899.8984                   23894900.6484
 11  8 19  0 30 30.0000000  0  9G17G09G12G10G02G04G05G30G25
 -79158705.90646 -61640483.88343  23221863.6724                   23221862.1454
 -35177432.73046 -27006023.59843  23756506.1804                   23756506.7234
 -32974718.56247 -25647676.03146  21244525.7114                   21244522.9414
 -45785210.06247 -35210087.10545  20825261.7894                   20825259.0554
 -54052329.57447 -41454240.30146  20551867.1484                   20551862.4734
 -63996050.56247 -49823272.94945  21808684.4384                   21808682.8874
 -25297723.05547 -19664337.46545  21700894.1484                   21700892.5594
  -4692938.89946  -3401221.93043  23374961.2344                   23374960.0784
  -2745703.85546  -2092324.81643  23858654.9384                   23858656.4734
 11  8 19  0 31  0.0000000  0  9G17G09G12G10G02G04G05G30G25
 -79197322.20346 -61670574.52743  23214515.2034                   23214513.4534
 -35190412.57446 -27016137.85543  23754036.3364                   23754037.1174
 -33122577.26247 -25762890.57445  21216389.1414                   21216386.3364
 -45870120.44547 -35276251.02045  20809103.2274                   20809101.1994
 -54141683.52747 -41523866.74646  20534863.3134                   20534858.7384
 -64010533.61347 -49834558.46944  21805927.6254                   21805926.6524
 -25476313.09047 -19803498.46545  21666909.2194                   21666907.6134
  -4880112.90246  -3547071.72743  23339343.0084                   23339342.1294
  -2935926.87146  -2240550.44943  23822456.7274                   23822458.7624
 11  8 19  0 31 30.0000000  0  9G17G09G12G10G02G04G05G30G25
 -79235735.78947 -61700507.22344  23207205.8524                   23207203.3834
 -35203226.19546 -27026122.60243  23751597.6954                   23751598.5904
 -33269941.30947 -25877719.68045  21188346.3134                   21188343.6994
 -45954359.67647 -35341891.96945  20793072.9694                   20793070.7854
 -54230723.15647 -41593248.27046  20517919.5944                   20517915.3484
 -64024864.39147 -49845725.30945  21803200.9064                   21803199.9384
 -25654522.85947 -19942363.17245  21632997.1884                   21632995.3524
  -5066944.92646  -3692655.04343  23303789.8444                   23303789.4344
  -3125907.07846  -2388586.84043  23786305.2114                   23786306.6954
 11  8 19  0 32  0.0000000  0  9G17G09G12G10G02G04G05G30G25
 -79273948.27046 -61730283.21944  23199933.3984                   23199932.3834
 -35215879.05546 -27035982.07843  23749190.7114                   23749191.2894
 -33416810.69947 -25992163.34045  21160398.5474                   21160395.0354
 -46037930.23847 -35407011.87945  20777169.8754                   20777167.7854
 -54319451.52047 -41662387.24646  20501035.5234                   20501030.5124
 -64039046.62547 -49856776.42645  21800502.6644                   21800500.8134
 -25832352.30947 -20080931.50845  21599157.3674                   21599156.1604
  -5253434.21146  -3837971.28143  23268302.0704                   23268301.6174
  -3315643.95746  -2536433.64143  23750199.5004                   23750200.1644
 11  8 19  0 32 30.0000000  0  9G17G09G12G10G02G04G05G30G25
 -79311954.23446 -61759898.31244  23192701.9924                   23192700.5984
 -35228369.76246 -27045715.20743  23746813.3054                   23746814.4964
 -33563178.64847 -26106216.25845  21132545.3364                   21132542.2544
 -46120827.22747 -35471606.91445  20761395.3754                   20761393.0044
 -54407865.00447 -41731280.87546  20484210.4924                   20484205.9184
 -64053077.60947 -49867709.68445  21797832.2814                   21797831.1024
 -26009793.50847 -20219197.30945  21565391.0394                   21565389.4924
  -5439573.12946  -3983014.53543  23232880.6564                   23232880.5944
  -3505130.02346  -2684084.98843  23714141.1564                   23714142.4224
 11  8 19  0 33  0.0000000  0  9G17G09G12G10G02G04G05G30G25
 -77774336.05546 -60561754.33643  23485300.7344                   23485299.3674
 -33665285.53946 -25827727.59443  24044258.1174                   24044259.7274
 -32133622.18747 -24992276.12946  21404580.6094                   21404578.2304
 -44627632.78947 -34308078.77745  21045540.8524                   21045538.4964
 -52920546.19547 -40572331.15646  20767237.9694                   20767233.3874
 -62491542.77747 -48650929.30944  22094982.6024                   22094981.2034
 -24611422.36747 -19129557.40645  21831492.9224                   21831490.6054
  -4049937.04346  -2900181.17243  23497319.9844                   23497319.2854
  -2118940.68746  -1603937.34843  23977924.5704                   23977925.5904
 11  8 19  0 33 30.0000000  0  9G17G09G12G10G02G04G05G30G25
 -77811936.33246 -60591053.34843  23478145.3674                   23478144.6604
 -33677470.56646 -25837222.56643  24041939.6884                   24041940.5824
 -32278989.07047 -25105549.00045  21376918.5164                   21376915.6994
 -44709192.35247 -34371631.66445  21030020.4924                   21030017.9774
 -53008342.49647 -40640743.84846  20750531.0944                   20750526.2774
 -62505285.35547 -48661637.84045  22092367.8834                   22092366.5744
 -24788087.86747 -19267218.78145  21797873.8134                   21797872.4574
  -4235375.56246  -3044678.66843  23462031.8914                   23462031.1174
  -2307926.03146  -1751198.54344  23941961.6644                   23941962.7664
 11  8 19  0 34  0.0000000  0  9G17G09G12G10G02G04G05G30G25
 -77849331.67246 -60620192.64544  23471029.1484                   23471029.1374
 -33689506.80146 -25846601.55143  24039650.2814                   24039650.5864
 -32423851.23447 -25218428.57446  21349352.1484                   21349349.3524
 -44790082.28547 -34434662.77045  21014627.3834                   21014625.3634
 -53095830.85947 -40708916.59846  20733882.3674                   20733878.2584
 -62518885.19547 -48672235.12944  22089779.7664                   22089777.9614
 -24964360.08647 -19404573.68445  21764330.6334                   21764328.9844
  -4420458.45746  -3188899.03943  23426812.1024                   23426811.2584
  -2496655.90646  -1898260.67644  23906046.9924                   23906048.3594
 11  8 19  0 34 30.0000000  0  9G17G09G12G10G02G04G05G30G25
 -77886522.83246 -60649172.84844  23463952.2114                   23463951.8164
 -33701398.10546 -25855867.62143  24037386.9534                   24037387.4694
 -32568206.99247 -25330913.54346  21321882.0004                   21321878.9384
 -44870303.78547 -34497173.00845  20999361.7344                   20999360.2624
 -53183013.08647 -40776850.79746  20717292.3914                   20717287.8404
 -62532345.25847 -48682723.50045  22087218.1254                   22087216.8714
 -25140236.98847 -19541620.56645  21730862.0784                   21730860.8324
  -4605183.71546  -3332840.76643  23391659.4384                   23391658.9734
  -2685128.35246  -2045122.21544  23870182.1414                   23870183.4144
 11  8 19  0 35  0.0000000  0  9G17G09G12G10G02G04G05G30G25
 -77923509.64846 -60677993.79744  23456913.8754                   23456913.3134
 -33713148.50046 -25865023.89543  24035151.0084                   24035152.0514
 -32712055.08647 -25443002.92646  21294508.9924                   21294505.8444
 -44949857.93047 -34559163.24245  20984223.7424                   20984220.9844
 -53269890.99247 -40844547.87546  20700760.2504                   20700755.1414
 -62545667.62147 -48693104.57044  22084683.1334                   22084681.7464
 -25315716.73047 -19678357.96945  21697469.6414                   21697468.2034
  -4789549.09846  -3476502.08243  23356576.0394                   23356575.2934
  -2873341.38346  -2191781.64144  23834365.7034                   23834367.3874
 11  8 19  0 35 30.0000000  0  9G17G09G12G10G02G04G05G30G25
 -77960289.89847 -60706653.79744  23449915.5314                   23449914.0594
 -33724759.55946 -25874071.60243  24032941.3054                   24032942.1294
 -32855391.75847 -25554693.80546  21267232.6024                   21267229.3914
 -45028743.38747 -34620632.41845  20969211.8054                   20969209.9414
 -53356464.24647 -40912007.55146  20684285.5394                   20684281.3594
 -62558852.67647 -48703378.63744  22082174.2814                   22082172.3484
 -25490794.79747 -19814782.37945  21664152.8754                   21664151.5204
  -4973550.18446  -3619879.56643  23321562.7814                   23321561.2854
  -3061290.65646  -2338235.55943  23798600.4144                   23798602.3324
 11  8 19  0 36  0.0000000  0  9G17G09G12G10G02G04G05G30G25
 -77996865.54346 -60735154.33644  23442955.6724                   23442953.6094
 -33736237.24646 -25883015.37143  24030758.1564                   24030758.2934
 -32998217.22347 -25665986.34046  21240053.6414                   21240051.0904
 -45106962.49647 -34681582.36345  20954327.0084                   20954325.0634
 -53442736.50847 -40979232.68446  20667868.3524                   20667863.9104
 -62571904.58647 -48713548.97744  22079690.2504                   22079688.7974
 -25665470.89147 -19950893.56245  21630913.3674                   21630911.7504
  -5157186.50446  -3762972.78143  23286616.8834                   23286615.9614
  -3248975.98846  -2484483.80943  23762884.6094                   23762886.7154
 11  8 19  0 36 30.0000000  0  9G17G09G12G10G02G04G05G30G25
 -78033235.18046 -60763494.34043  23436033.2894                   23436032.6724
 -33747584.03546 -25891857.15243  24028597.8754                   24028599.2074
 -33140528.93447 -25776878.54746  21212972.3364                   21212969.5864
 -45184515.20747 -34742013.03145  20939569.2114                   20939567.2854
 -53528708.16047 -41046223.57446  20651508.8524                   20651504.2664
 -62584824.36347 -48723616.35244  22077231.6414                   22077230.8484
 -25839741.61347 -20086688.88345  21597750.9924                   21597749.0784
  -5340454.52746  -3905779.01643  23251742.7194                   23251741.4344
  -3436393.86346  -2630523.67244  23727221.4304                   23727222.2934
 11  8 19  0 37  0.0000000  0  9G17G09G12G10G02G04G05G30G25
 -78069398.29746 -60791673.42643  23429152.6334                   23429150.9964
 -33758802.88346 -25900599.24243  24026463.8524                   24026464.5394
 -33282324.30947 -25887368.41446  21185989.9064                   21185987.1604
 -45261401.68047 -34801924.55145  20924938.8834                   20924936.0164
 -53614380.10247 -41112980.93046  20635205.6484                   20635200.9614
 -62597613.67247 -48733582.07044  22074798.0314                   22074796.7154
 -26013603.85947 -20222165.91445  21564665.6644                   21564664.2424
  -5523351.23046  -4048295.91043  23216938.3914                   23216937.3554
  -3623541.43046  -2776352.90243  23691607.4454                   23691608.8874
 11  8 19  0 37 30.0000000  0  9G17G09G12G10G02G04G05G30G25
 -78105353.66446 -60819690.60543  23422309.8444                   23422309.2974
 -33769896.80946 -25909244.01243  24024351.9924                   24024353.7194
 -33423601.11747 -25997454.21546  21159105.8984                   21159103.0314
 -45337622.10547 -34861317.07045  20910434.6644                   20910432.2544
 -53699753.18747 -41179505.42246  20618960.0554                   20618955.3984
 -62610273.78547 -48743447.10944  22072388.6644                   22072387.5434
 -26187054.51247 -20357322.21145  21531659.3204                   21531657.2734
  -5705873.23846  -4190520.82843  23182205.3444                   23182204.0704
  -3810415.56246  -2921969.06644  23656046.9064                   23656048.4964
 11  8 19  0 38  0.0000000  0  9G17G09G12G10G02G04G05G30G25
 -78141102.89846 -60847547.23043  23415507.1254                   23415506.7154
 -33780870.97746 -25917795.45343  24022263.9304                   24022264.7894
 -33564358.84047 -26107135.53146  21132320.7504                   21132317.7894
 -45413179.05947 -34920192.59845  20896056.4224                   20896054.0084
 -53784830.14547 -41245799.15646  20602770.5234                   20602765.6414
 -62622808.08247 -48753214.12144  22070003.7424                   22070002.4024
 -26360092.65647 -20492157.08245  21498731.5234                   21498729.3364
  -5888019.62546  -4332453.01243  23147544.8674                   23147543.5944
  -3997015.24246  -3067371.40244  23620538.1724                   23620539.1764
 11  8 19  0 38 30.0000000  0  9G17G09G12G10G02G04G05G30G25
 -78176644.13346 -60875241.76643  23408743.4384                   23408743.6804
 -33791727.04746 -25926254.89143  24020198.7424                   24020200.4654
 -33704593.87147 -26216409.55946  21105634.3984                   21105631.3014
 -45488071.23047 -34978550.11745  20881804.6644                   20881802.3524
 -53869610.91047 -41311862.09846  20586637.0944                   20586632.8674
 -62635216.95347 -48762883.38744  22067642.6334                   22067641.2934
 -26532714.24247 -20626667.35245  21465882.4614                   21465880.5864
  -6069786.03946  -4474089.14543  23112954.8134                   23112954.4844
  -4183336.46546  -3212556.73443  23585082.1024                   23585083.4064
 11  8 19  0 39  0.0000000  0  9G17G09G12G10G02G04G05G30G25
 -78211978.02046 -60902774.77044  23402020.1564                   23402020.2034
 -33802469.37146 -25934625.63743  24018154.5554                   24018155.9804
 -33844305.50847 -26325275.73846  21079048.3594                   21079045.4774
 -45562300.18047 -35036390.83245  20867679.2584                   20867677.1134
 -53954097.83647 -41377696.06646  20570559.7034                   20570555.1884
 -62647503.33247 -48772457.20344  22065304.0234                   22065303.0234
 -26704917.34847 -20760851.53945  21433113.4924                   21433111.3954
  -6251170.93046  -4615427.95743  23078438.6414                   23078437.7344
  -4369377.52746  -3357523.78144  23549680.0004                   23549680.7034
 11  8 19  0 39 30.0000000  0  9G17G09G12G10G02G04G05G30G25
 -78247103.74646 -60930145.55544  23395336.2034                   23395336.1414
 -33813101.37546 -25942910.47743  24016131.4064                   24016132.7774
 -33983491.73047 -26433732.50846  21052562.3754                   21052558.9534
 -45635866.76647 -35093715.43045  20853680.1564                   20853677.7304
 -54038292.06648 -41443301.95746  20554537.4534                   20554533.5594
 -62659669.00447 -48781936.96544  22062989.3594                   22062987.9654
 -26876699.96147 -20894708.07045  21400424.0474                   21400421.7894
  -6432171.51246  -4756467.30943  23043995.3284                   23043994.4024
  -4555135.86346  -3502270.52044  23514330.9694                   23514331.9774
 11  8 19  0 40  0.0000000  0  9G17G09G12G10G02G04G05G30G25
 -78282021.04346 -60957353.89544  23388691.9224                   23388691.5864
 -33823626.22746 -25951111.79343  24014129.3524                   24014129.9844
 -34122150.67647 -26541778.42246  21026176.3524                   21026173.3484
 -45708771.33647 -35150524.15645  20839807.0474                   20839804.6024
 -54122194.81247 -41508680.71546  20538572.0394                   20538567.5664
 -62671715.44147 -48791323.82844  22060697.5004                   22060695.2274
 -27048059.16847 -21028234.67645  21367815.3054                   21367813.9804
  -6612784.83646  -4897204.88343  23009625.6024                   23009625.0314
  -4740608.78147  -3646794.86344  23479037.1414                   23479037.7734
 11  8 19  0 40 30.0000000  0  9G17G09G12G10G02G04G05G30G25
 -78316727.89846 -60984398.23444  23382088.3754                   23382087.0594
 -33834045.55946 -25959230.89543  24012146.2424                   24012147.4654
 -34260278.94148 -26649410.82846  20999891.5084                   20999888.5474
 -45781012.98847 -35206816.33645  20826059.8284                   20826057.3594
 -54205805.73047 -41573832.08246  20522661.0164                   20522656.7194
 -62683643.05947 -48800618.10944  22058427.7504                   22058425.5984
 -27218990.79747 -21161428.10245  21335288.3054                   21335286.7424
  -6793006.71946  -5037637.47544  22975329.7664                   22975329.5274
  -4925792.08247  -3791093.52344  23443797.9384                   23443798.8284
 11  8 19  0 41  0.0000000  0  9G17G09G12G10G02G04G05G30G25
 -78351224.59846 -61011278.81244  23375523.2894                   23375522.2584
 -33844363.70746 -25967271.17643  24010183.1094                   24010184.1804
 -34397875.27047 -26756628.73446  20973707.3984                   20973704.5514
 -45852593.22747 -35262593.13345  20812438.0164                   20812436.2894
 -54289126.83647 -41638757.62146  20506805.7974                   20506801.3914
 -62695454.41847 -48809821.80544  22056179.8054                   22056178.0824
 -27389493.19947 -21294287.05945  21302842.7894                   21302840.9614
  -6972835.21146  -5177763.53143  22941110.3524                   22941109.4384
  -5110683.80547  -3935165.00044  23408614.7114                   23408614.9414
 11  8 19  0 41 30.0000000  0  9G17G09G12G10G02G04G05G30G25
 -76810089.59446 -59810394.43443  23668791.3134                   23668790.4884
 -32279163.72746 -24747634.96143  24308030.9534                   24308031.8134
 -32959512.98447 -25635826.94546  21247419.2664                   21247416.0984
 -44348090.32847 -34090253.20745  21098735.9774                   21098733.7624
 -52796736.73447 -40475856.24646  20790798.2504                   20790793.4454
 -61131730.59447 -47591335.74244  22353746.5864                   22353745.2424
 -25984138.03947 -20199205.06645  21570272.9774                   21570271.0044
  -5576841.50846  -4089976.16043  23206758.7424                   23206758.4614
  -3719855.22747  -2851402.44944  23673279.9224                   23673280.7974
 11  8 19  0 42  0.0000000  0  9G17G09G12G10G02G04G05G30G25
 -76844164.03546 -59836946.01243  23662306.2344                   23662306.2384
 -32289288.69146 -24755524.69543  24306104.1804                   24306105.2704
 -33096038.88347 -25742210.75446  21221438.3914                   21221435.8014
 -44418349.12947 -34145000.30545  21085365.9304                   21085363.4654
 -52879481.01247 -40540332.29346  20775052.7344                   20775047.9144
 -61143313.35947 -47600361.29744  22351542.9224                   22351541.0204
 -26153773.21947 -20331388.26245  21537992.3134                   21537990.1764
  -5755874.12146  -4229481.99643  23172690.3834                   23172689.1764
  -3904155.15247  -2995012.72744  23638209.7114                   23638209.8524
 11  8 19  0 42 30.0000000  0  9G17G09G12G10G02G04G05G30G25
 -76878029.55146 -59863334.78143  23655862.4384                   23655861.5784
 -32299324.82046 -24763345.19943  24304194.0704                   24304195.6174
 -33232029.63347 -25848177.55546  21195560.5634                   21195557.7074
 -44487951.42247 -34199235.84045  21072121.1094                   21072118.8134
 -52961941.78147 -40604587.42646  20759360.6564                   20759356.2344
 -61154787.56247 -47609302.27344  22349358.8204                   22349357.6134
 -26322973.87547 -20463232.89145  21505794.2664                   21505792.0554
  -5934507.55946  -4368676.83643  23138696.9614                   23138696.5234
  -4088158.04347  -3138391.57044  23603193.8364                   23603195.2114
 11  8 19  0 43  0.0000000  0  9G17G09G12G10G02G04G05G30G25
 -76911682.52046 -59889557.93043  23649458.6884                   23649457.9454
 -32309271.63346 -24771096.11743  24302301.5554                   24302303.3404
 -33367480.16847 -25953723.42246  21169785.1644                   21169781.9774
 -44556894.08247 -34252957.38745  21059001.0864                   21058999.6954
 -53044116.98048 -40668620.03546  20743723.6484                   20743718.8324
 -61166151.12147 -47618157.02344  22347196.0084                   22347194.7734
 -26491733.59847 -20594733.91045  21473680.1564                   21473678.6884
  -6112735.53946  -4507555.73843  23104782.3524                   23104780.7584
  -4271857.82846  -3281534.22344  23568237.5164                   23568237.8554
 11  8 19  0 43 30.0000000  0  9G17G09G12G10G02G04G05G30G25
 -76945122.37146 -59915615.01643  23643095.2814                   23643094.1094
 -32319132.61746 -24778780.14843  24300425.3834                   24300427.0824
 -33502388.25447 -26058846.60546  21144112.8524                   21144109.9924
 -44625178.21147 -34306165.78545  21046007.6884                   21046005.3834
 -53126007.58247 -40732430.87146  20728139.8914                   20728135.6454
 -61177405.91847 -47626927.02044  22345055.5554                   22345053.6954
 -26660050.13747 -20725889.59446  21441650.9064                   21441649.0354
  -6290555.55146  -4646116.73043  23070943.7974                   23070942.6484
  -4455251.92646  -3424438.68444  23533338.1334                   23533339.1684
 11  8 19  0 44  0.0000000  0  9G17G09G12G10G02G04G05G30G25
 -76978349.64546 -59941506.44543  23636771.8054                   23636771.3674
 -32328911.78946 -24786400.44543  24298564.7974                   24298565.9224
 -33636753.03947 -26163546.43045  21118544.1334                   21118541.2774
 -44692805.93047 -34358862.70745  21033138.8674                   21033136.3134
 -53207615.64147 -40796021.55546  20712610.5784                   20712606.0354
 -61188554.46547 -47635614.23444  22342933.9614                   22342931.7154
 -26827922.33647 -20856699.05145  21409705.7344                   21409703.7934
  -6467965.69146  -4784358.36743  23037183.3984                   23037182.4654
  -4638338.52046  -3567103.51644  23498497.8524                   23498498.9774
 11  8 19  0 44 30.0000000  0  9G17G09G12G10G02G04G05G30G25
 -77011364.29746 -59967232.12743  23630490.1174                   23630489.0784
 -32338612.96146 -24793959.92643  24296718.8594                   24296720.0864
 -33770573.44147 -26267822.06646  21093079.2194                   21093076.1254
 -44759778.21947 -34411048.89545  21020394.3204                   21020391.8674
 -53288942.97747 -40859393.49646  20697134.3834                   20697129.9104
 -61199598.80547 -47644220.25044  22340831.9384                   22340830.0984
 -26995347.87947 -20987160.45745  21377845.7274                   21377843.8874
  -6644963.67647  -4922278.85243  23003502.0784                   23003500.6604
  -4821115.39846  -3709527.00844  23463716.6094                   23463717.9104
 11  8 19  0 45  0.0000000  0  9G17G09G12G10G02G04G05G30G25
 -77044166.41046 -59992792.25043  23624248.2584                   23624247.0704
 -32348239.89846 -24801461.60943  24294886.9534                   24294888.5904
 -33903847.83647 -26371672.24646  21067718.1484                   21067715.0664
 -44826096.45747 -34462725.43745  21007774.2424                   21007772.1024
 -53369991.01647 -40922547.79746  20681711.5314                   20681707.0984
 -61210540.83247 -47652746.55144  22338750.0394                   22338747.9654
 -27162324.41847 -21117271.99245  21346070.9224                   21346069.0394
  -6821547.00847  -5059876.23043  22969899.0474                   22969897.9884
  -5003580.18046  -3851707.30144  23428994.4224                   23428995.6954
 11  8 19  0 45 30.0000000  0  9G17G09G12G10G02G04G05G30G25
 -77076754.46146 -60018185.56643  23618047.0164                   23618046.3914
 -32357794.96146 -24808907.27743  24293068.6024                   24293070.3524
 -34036573.65647 -26475094.96546  21042460.5944                   21042458.0664
 -44891760.41047 -34513892.14145  20995279.1724                   20995276.5514
 -53450760.35948 -40985484.94546  20666341.5394                   20666337.1644
 -61221381.34847 -47661193.74244  22336686.8834                   22336685.0474
 -27328848.27347 -21247030.78945  21314382.9144                   21314380.1414
  -6997712.25447  -5197147.82443  22936376.3834                   22936374.8524
  -5185729.30146  -3993641.60244  23394332.5164                   23394333.8014
 11  8 19  0 46  0.0000000  0  9G17G09G12G10G02G04G05G30G25
 -77109128.05546 -60043411.79343  23611885.8284                   23611885.5474
 -32367280.70746 -24816298.94143  24291263.8054                   24291265.5004
 -34168748.69548 -26578088.50046  21017308.8444                   21017305.9654
 -44956770.77747 -34564549.55145  20982907.9384                   20982905.5944
 -53531251.74648 -41048205.48846  20651024.5704                   20651019.7704
 -61232121.82447 -47669562.98444  22334642.9224                   22334641.5784
 -27494917.02347 -21376434.94945  21282780.7814                   21282778.8404
  -7173456.23446  -5334091.15243  22902933.4144                   22902931.8634
  -5367559.87546  -4135327.69944  23359732.1334                   23359733.0434
 11  8 19  0 46 30.0000000  0  9G17G09G12G10G02G04G05G30G25
 -77141288.60946 -60068471.99243  23605766.2344                   23605765.6764
 -32376702.24646 -24823640.57843  24289470.5004                   24289472.7304
 -34300372.86347 -26680652.78546  20992261.6254                   20992258.5474
 -45021131.01647 -34614700.36745  20970660.5394                   20970658.0744
 -53611468.52048 -41110712.05946  20635759.4844                   20635754.9964
 -61242765.54747 -47677856.83244  22332617.5164                   22332616.1914
 -27660530.27347 -21505484.18746  21251266.0314                   21251263.4534
  -7348778.35546  -5470705.74644  22869570.8444                   22869569.1524
  -5549071.17246  -4276765.01644  23325191.2424                   23325192.1684
 11  8 19  0 47  0.0000000  0  9G17G09G12G10G02G04G05G30G25
 -77173233.21946 -60093363.94543  23599687.0634                   23599686.8134
 -32386060.28946 -24830932.69943  24287689.7424                   24287692.4774
 -34431442.15647 -26782784.69946  20967320.0394                   20967317.1764
 -45084839.17247 -34664343.06645  20958536.7734                   20958534.5004
 -53691408.99648 -41173003.33246  20620547.9144                   20620543.4454
 -61253311.74247 -47686074.69944  22330610.6884                   22330609.5394
 -27825682.67647 -21634174.30945  21219837.5944                   21219835.4224
  -7523673.15646  -5606987.37543  22836288.8674                   22836287.9384
  -5730257.77746  -4417949.32444  23290712.7424                   23290713.5904
 11  8 19  0 47 30.0000000  0  9G17G09G12G10G02G04G05G30G25
 -77204964.82446 -60118089.90643  23593649.0164                   23593648.6524
 -32395361.47746 -24838180.55142  24285920.2274                   24285922.6764
 -34561958.61347 -26884485.83246  20942483.8284                   20942480.8164
 -45147899.69947 -34713481.13745  20946537.1254                   20946534.6254
 -53771077.91848 -41235083.00446  20605387.3834                   20605382.8444
 -61263765.38347 -47694220.41844  22328621.6414                   22328619.7034
 -27990375.23847 -21762506.12546  21188498.0704                   21188495.8054
  -7698141.51646  -5742936.70743  22803088.9924                   22803087.5084
  -5911120.67647  -4558881.41444  23256295.2034                   23256296.0394
 11  8 19  0 48  0.0000000  0  9G17G09G12G10G02G04G05G30G25
 -77236482.37946 -60142649.05543  23587651.7114                   23587651.1174
 -32404608.45346 -24845386.14143  24284161.0864                   24284162.8714
 -34691919.57447 -26985754.11346  20917753.1564                   20917749.9414
 -45210312.93047 -34762114.81645  20934660.0634                   20934657.8054
 -53850475.65648 -41296951.37146  20590278.3134                   20590273.4064
 -61274127.23847 -47702294.62544  22326650.2734                   22326648.5204
 -28154605.16447 -21890477.44545  21157246.2894                   21157244.0274
  -7872180.02046  -5878551.06644  22769970.4384                   22769969.1214
  -6091656.38347  -4699558.54744  23221940.6334                   23221941.6414
 11  8 19  0 48 30.0000000  0  9G17G09G12G10G02G04G05G30G25
 -77267784.57046 -60167040.40643  23581695.2504                   23581694.5944
 -32413803.12546 -24852551.01642  24282411.5634                   24282413.5784
 -34821322.08648 -27086587.23446  20893128.5004                   20893125.2154
 -45272078.86747 -34810244.12945  20922906.2584                   20922904.2464
 -53929602.88348 -41358608.94146  20575220.9454                   20575216.2234
 -61284397.88347 -47710297.77044  22324695.3134                   22324694.0744
 -28318368.65247 -22018085.31245  21126083.0234                   21126080.9924
  -8045784.91046  -6013827.57044  22736934.0394                   22736932.8954
  -6271861.23446  -4839977.85944  23187648.5554                   23187649.1524
 11  8 19  0 49  0.0000000  0  9G17G09G12G10G02G04G05G30G25
 -77298871.16446 -60191263.71543  23575780.2424                   23575779.0314
 -32422948.95746 -24859677.80942  24280671.5864                   24280673.2384
 -34950164.70748 -27186984.07846  20868610.1094                   20868607.5084
 -45333198.45347 -34857869.78545  20911276.1414                   20911273.4264
 -54008460.81648 -41420056.67646  20560214.6724                   20560209.8914
 -61294579.03147 -47718231.16444  22322757.6174                   22322756.5704
 -28481663.49247 -22145327.99245  21095009.1254                   21095007.0004
  -8218953.68746  -6148764.23044  22703981.6644                   22703980.3834
  -6451732.67247  -4980137.36744  23153419.7734                   23153420.7854
 11  8 19  0 49 30.0000000  0  9G17G09G12G10G02G04G05G30G25
 -77329740.34446 -60215317.64143  23569905.9304                   23569904.7664
 -32432047.70745 -24866767.93742  24278938.9384                   24278941.7704
 -35078444.21147 -27286942.11746  20844199.6414                   20844196.7704
 -45393671.77347 -34904991.86745  20899768.1804                   20899765.9844
 -54087049.06247 -41481294.26246  20545259.6094                   20545254.9694
 -61304670.73047 -47726094.86744  22320837.2424                   22320836.4844
 -28644485.91847 -22272202.56645  21064024.7194                   21064022.9454
  -8391682.24246  -6283357.83643  22671112.6414                   22671110.7734
  -6631266.60947  -5120033.89144  23119256.5944                   23119256.9804
 11  8 19  0 50  0.0000000  0  9G17G09G12G10G02G04G05G30G25
 -75784973.70746 -59011603.38343  23863864.7584                   23863864.1724
 -30865684.96145 -23646225.69142  24577008.4304                   24577011.6764
 -33630738.14847 -26158859.46946  21119688.9454                   21119685.9734
 -43878080.85247 -33724011.92245  21188175.3364                   21188173.1524
 -52589948.94548 -40314722.73446  20830148.8364                   20830144.0434
 -59739256.82046 -46506291.85244  22618725.7974                   22618724.7854
 -27231410.83647 -21171105.05945  21332924.0704                   21332922.3324
  -6988544.85246  -5190003.97344  22938119.9144                   22938119.0594
  -5235037.12547  -4032062.81244  23384949.3984                   23384950.1684
 11  8 19  0 50 30.0000000  0  9G17G09G12G10G02G04G05G30G25
 -75815412.09046 -59035321.63343  23858072.9924                   23858072.6914
 -30874704.06645 -23653253.78142  24575292.7734                   24575294.9574
 -33757892.43747 -26257940.71546  21095492.4614                   21095489.0234
 -43937270.37947 -33770133.62145  21176911.8204                   21176909.5904
 -52668006.35248 -40375546.68046  20815294.5164                   20815290.0634
 -59749179.27347 -46514023.65644  22616837.9774                   22616836.5744
 -27393286.27047 -21297241.70745  21302119.9694                   21302118.0664
  -7160389.90246  -5323909.14144  22905418.9454                   22905417.8094
  -5413893.05146  -4171431.01644  23350914.3914                   23350914.1604
 11  8 19  0 51  0.0000000  0  9G17G09G12G10G02G04G05G30G25
 -75845635.22746 -59058872.15243  23852322.0004                   23852321.5164
 -30883688.67245 -23660254.94942  24573583.6804                   24573585.5864
 -33884482.20747 -26356582.07846  21071402.9224                   21071399.6884
 -43995820.43747 -33815757.05145  21165770.2584                   21165767.8874
 -52745801.05148 -40436165.91446  20800490.6024                   20800486.0784
 -59759019.89146 -46521691.69944  22614964.9924                   22614963.8404
 -27554684.90647 -21423006.83246  21271407.0314                   21271404.9574
  -7331789.96946  -5457467.58644  22872802.4304                   22872801.4454
  -5592406.69547  -4310532.52044  23316944.7504                   23316944.6804
 11  8 19  0 51 30.0000000  0  9G17G09G12G10G02G04G05G30G25
 -75875641.30946 -59082253.57843  23846609.8444                   23846610.9614
 -30892640.51246 -23667230.62942  24571879.7664                   24571882.4924
 -34010504.42248 -26454781.18746  21047421.7194                   21047418.6804
 -44053730.87147 -33860882.06245  21154750.4774                   21154748.1174
 -52823332.60947 -40496580.12146  20785737.6094                   20785732.5354
 -59768779.02747 -46529296.26244  22613107.9144                   22613106.7734
 -27715603.65247 -21548398.02046  21240784.8054                   21240783.0314
  -7502741.17246  -5590676.24644  22840271.9304                   22840270.3444
  -5770574.09047  -4449364.19144  23283039.7974                   23283040.8404
 11  8 19  0 52  0.0000000  0  9G17G09G12G10G02G04G05G30G25
 -75905430.52046 -59105465.94943  23840941.0864                   23840941.9964
 -30901563.07845 -23674183.47342  24570182.3834                   24570184.8754
 -34135958.07447 -26552537.26646  21023548.7194                   21023545.8484
 -44111003.20347 -33905509.84845  21143851.9614                   21143849.3404
 -52900603.02348 -40556790.82846  20771032.8674                   20771028.5594
 -59778458.34447 -46536838.61744  22611266.0084                   22611264.5664
 -27876040.70747 -21673413.85246  21210254.5704                   21210252.3874
  -7673241.13347  -5723533.30144  22807827.3204                   22807825.5314
  -5948392.90646  -4587924.25844  23249201.7974                   23249202.5044
 11  8 19  0 52 30.0000000  0  9G17G09G12G10G02G04G05G30G25
 -75935004.24646 -59128510.47743  23835315.3914                   23835314.6994
 -30910460.98446 -23681117.12943  24568489.8364                   24568491.7504
 -34260843.13747 -26649850.28946  20999783.6094                   20999780.5434
 -44167640.50447 -33949642.80945  21133074.5004                   21133071.9844
 -52977614.94948 -40616800.12946  20756377.9924                   20756373.4224
 -59788060.94547 -46544321.17644  22609439.1884                   22609437.7074
 -28035994.95747 -21798053.48046  21179816.4614                   21179814.5744
  -7843288.80547  -5856037.93444  22775467.9384                   22775466.1604
  -6125862.05947  -4726211.85244  23215430.8444                   23215431.6024
 11  8 19  0 53  0.0000000  0  9G17G09G12G10G02G04G05G30G25
 -75964359.85546 -59151385.01643  23829728.9384                   23829728.7584
 -30919335.42246 -23688032.45742  24566800.9064                   24566802.9534
 -34385156.12547 -26746717.53946  20976127.3284                   20976124.6804
 -44223642.01247 -33993280.34045  21122417.2974                   21122414.9734
 -53054367.38348 -40676607.22346  20741772.5944                   20741768.4384
 -59797586.37547 -46551743.61344  22607626.9304                   22607625.1334
 -28195462.21147 -21922313.62946  21149470.7974                   21149469.0904
  -8012879.61747  -5988186.55544  22743195.0394                   22743194.3794
  -6302976.81647  -4864223.29744  23181727.0474                   23181727.3444
 11  8 19  0 53 30.0000000  0  9G17G09G12G10G02G04G05G30G25
 -75993499.72346 -59174091.46543  23824182.8834                   23824183.4064
 -30928192.05546 -23694933.95343  24565115.3284                   24565116.9694
 -34508897.95747 -26843139.73846  20952580.5084                   20952577.1174
 -44279011.49647 -34036425.39545  21111880.7274                   21111878.8594
 -53130863.99648 -40736214.97746  20727215.9774                   20727210.9024
 -59807038.35947 -46559108.80544  22605827.8204                   22605825.8284
 -28354442.62947 -22046194.43746  21119217.7664                   21119215.6414
  -8182013.30946  -6119978.98044  22711010.6024                   22711008.9264
  -6479737.10947  -5001958.51244  23148091.1484                   23148091.3794
 11  8 19  0 54  0.0000000  0  9G17G09G12G10G02G04G05G30G25
 -76022422.71146 -59196628.89843  23818679.4454                   23818679.9534
 -30937032.98446 -23701823.20343  24563433.2974                   24563435.1374
 -34632066.44147 -26939115.16846  20929142.4144                   20929139.6094
 -44333749.43047 -34079078.32045  21101464.6564                   21101462.2584
 -53207105.41048 -40795623.87146  20712707.6174                   20712702.7774
 -59816417.74647 -46566417.44144  22604042.8834                   22604041.8954
 -28512933.00847 -22169693.37946  21089058.2424                   21089055.7974
  -8350686.60946  -6251412.65643  22678913.0084                   22678911.7974
  -6656139.41047  -5139414.79344  23114522.1644                   23114522.7584
 11  8 19  0 54 30.0000000  0  9G17G09G12G10G02G04G05G30G25
 -76051127.81646 -59218996.53143  23813218.1564                   23813217.2704
 -30945860.53546 -23708702.03143  24561753.4224                   24561756.0084
 -34754659.23447 -27034642.01646  20905813.6024                   20905810.6914
 -44387856.59047 -34121239.74245  21091167.9844                   21091166.2584
 -53283091.62548 -40854833.92246  20698248.2114                   20698243.2274
 -59825725.03547 -46573669.91044  22602271.8834                   22602270.3794
 -28670930.36347 -22292808.16046  21058992.1024                   21058990.4964
  -8518896.21546  -6382485.01244  22646903.3204                   22646902.0434
  -6832180.38747  -5276589.51644  23081022.8674                   23081023.9454
 11  8 19  0 55  0.0000000  0  9G17G09G12G10G02G04G05G30G25
 -76079615.71546 -59241194.92243  23807796.8284                   23807796.3094
 -30954679.11346 -23715573.87543  24560074.9144                   24560078.4064
 -34876676.48447 -27129720.39146  20882594.5164                   20882591.3094
 -44441335.64147 -34162911.72345  21080992.0474                   21080989.3634
 -53358825.60948 -40913847.42246  20683836.1484                   20683831.5204
 -59834963.05546 -46580868.40244  22600514.1414                   22600512.7344
 -28828433.94947 -22415538.18446  21029020.3204                   21029017.9264
  -8686640.75847  -6513194.99644  22614982.7584                   22614981.3794
  -7007858.66847  -5413481.62144  23047592.2114                   23047592.9454
 11  8 19  0 55 30.0000000  0  9G17G09G12G10G02G04G05G30G25
 -76107888.48046 -59263225.65643  23802416.5004                   23802416.0634
 -30963493.98846 -23722442.82443  24558398.2034                   24558400.9344
 -34998118.63747 -27224350.62546  20859485.3364                   20859481.7344
 -44494189.94947 -34204096.88745  21070933.5784                   21070931.4574
 -53434310.46148 -40972666.78946  20669471.7504                   20669466.9654
 -59844135.47747 -46588015.76244  22598767.7734                   22598767.0514
 -28985443.46947 -22537883.22346  20999142.1254                   20999139.6844
  -8853919.93446  -6643542.32043  22583150.6484                   22583148.9414
  -7183173.82447  -5550090.76644  23014230.9304                   23014231.7194
 11  8 19  0 56  0.0000000  0  9G17G09G12G10G02G04G05G30G25
 -76135942.39846 -59285085.88743  23797078.0314                   23797077.5594
 -30972304.62546 -23729308.53943  24556722.0084                   24556725.1484
 -35118980.58248 -27318528.76646  20836485.4844                   20836482.1564
 -44546417.69547 -34244793.82445  21060995.1174                   21060992.9344
 -53509544.01647 -41031290.34846  20655155.5394                   20655150.7234
 -59853239.87147 -46595110.14544  22597036.5004                   22597034.7774
 -29141953.23447 -22659838.84846  20969359.6334                   20969357.4384
  -9020727.55146  -6773522.22744  22551408.2894                   22551406.7974
  -7358119.64547  -5686412.10944  22980939.6174                   22980940.3594
 11  8 19  0 56 30.0000000  0  9G17G09G12G10G02G04G05G30G25
 -76163778.00846 -59306776.00043  23791781.0314                   23791780.0864
 -30981114.65246 -23736173.73043  24555045.9384                   24555047.9734
 -35239262.29747 -27412254.78146  20813596.6414                   20813593.7424
 -44598021.12947 -34285004.27045  21051175.2584                   21051172.9924
 -53584528.19548 -41089719.57446  20640886.7664                   20640881.9924
 -59862278.41047 -46602153.18044  22595316.3754                   22595314.7344
 -29297961.67647 -22781403.82046  20939672.1884                   20939669.8794
  -9187061.78147  -6903133.23444  22519755.9454                   22519754.2114
  -7532694.10547  -5822444.09444  22947719.7034                   22947720.0204
 11  8 19  0 57  0.0000000  0  9G17G09G12G10G02G04G05G30G25
 -76191397.47346 -59328297.67643  23786524.7814                   23786524.8054
 -30989929.97746 -23743043.03543  24553369.1094                   24553371.2624
 -35358964.52347 -27505529.25446  20790818.4694                   20790814.5824
 -44649004.12547 -34324731.25845  21041473.6254                   21041471.3634
 -53659266.69947 -41147957.36346  20626664.7894                   20626659.4304
 -59871255.16047 -46609148.09044  22593607.7344                   22593606.6844
 -29453469.44147 -22902578.65646  20910079.9774                   20910077.5704
  -9352922.69947  -7032375.44544  22488193.8594                   22488191.6374
  -7706897.24647  -5958186.73044  22914570.0864                   22914570.3754
 11  8 19  0 57 30.0000000  0  9G17G09G12G10G02G04G05G30G25
 -76218799.02346 -59349649.56243  23781311.3594                   23781310.0944
 -30998751.97746 -23749917.55543  24551689.5394                   24551693.0084
 -35478084.60947 -27598350.10546  20768150.1334                   20768146.6644
 -44699366.77347 -34363974.86745  21031890.0634                   21031887.8594
 -53733759.15248 -41206003.43446  20612488.9534                   20612483.7734
 -59880169.89847 -46616094.67644  22591911.2344                   22591909.7624
 -29608473.06647 -23023360.65246  20880583.2114                   20880581.5274
  -9518306.35947  -7161245.76244  22456722.4774                   22456720.8594
  -7880725.07047  -6093636.92644  22881491.4454                   22881492.0514
 11  8 19  0 58  0.0000000  0  9G17G09G12G10G02G04G05G30G25
 -76245980.99246 -59370830.32843  23776138.9694                   23776138.1454
 -31007582.27746 -23756798.54343  24550010.1564                   24550012.7504
 -35596619.98447 -27690715.33646  20745593.7584                   20745591.1644
 -44749109.55947 -34402735.46145  21022424.1254                   21022422.0394
 -53808005.46148 -41263857.70746  20598360.4304                   20598355.7154
 -59889022.74247 -46622993.02744  22590226.7814                   22590225.4654
 -29762968.63347 -23143746.76246  20851184.0004                   20851181.8834
  -9683208.91447  -7289741.19544  22425341.9844                   22425340.9884
  -8054173.54347  -6228791.50444  22848485.1884                   22848485.5514
 11  8 19  0 58 30.0000000  0  9G17G09G12G10G02G04G05G30G25
 -74697523.74646 -58164240.27743  24070800.1724                   24070799.2854
 -29441004.92646 -22536089.13742  24848119.4924                   24848122.3054
 -34139146.45347 -26555021.67646  21022941.9844                   21022938.6484
 -43222813.59447 -33213413.91445  21312868.7034                   21312866.1684
 -52306585.58248 -40093920.14846  20884071.1564                   20884066.4614
 -58322395.77747 -45402244.77344  22888346.4534                   22888344.6644
 -28341530.14847 -22036132.32046  21121674.8674                   21121672.4574
  -8272203.68747  -6190256.52744  22693847.7584                   22693845.8874
  -6651815.66447  -5136045.04344  23115345.0314                   23115344.5944
 11  8 19  0 59  0.0000000  0  9G17G09G12G10G02G04G05G30G25
 -74724269.57846 -58185081.23443  24065710.6174                   24065710.4734
 -29449864.20345 -22542992.72342  24846433.7584                   24846437.5084
 -34256511.70347 -26646475.11746  21000607.8834                   21000605.1954
 -43271324.56247 -33251214.66045  21303637.2504                   21303635.0904
 -52380346.70348 -40151396.36346  20870034.2734                   20870029.8874
 -58331132.05547 -45409052.31644  22886683.3914                   22886682.6844
 -28495007.13747 -22155724.73846  21092468.5944                   21092466.6764
  -8436139.96547  -6317999.01644  22662651.1884                   22662649.6294
  -6824501.09047  -5270605.05944  23082483.7734                   23082484.0904
 11  8 19  0 59 30.0000000  0  9G17G09G12G10G02G04G05G30G25
 -74750797.55946 -58205752.38343  24060661.8594                   24060661.7974
 -29458743.09045 -22549911.53142  24844743.9454                   24844748.4104
 -34373290.82047 -26737471.83246  20978385.4774                   20978382.7034
 -43319222.77347 -33288537.93745  21294522.6254                   21294520.7704
 -52453867.72748 -40208685.48046  20856044.3754                   20856039.6094
 -58339812.71547 -45415816.50444  22885032.2894                   22885030.4774
 -28647972.32847 -22274918.34046  21063360.9694                   21063358.4774
  -8599590.09847  -6445362.68444  22631548.0474                   22631545.9734
  -6996801.78147  -5404865.27044  23049695.6484                   23049696.2934
 11  8 19  1  0  0.0000000  0  9G17G09G12G10G02G04G05G30G25
 -74777106.82046 -58226253.14143  24055655.5474                   24055655.4224
 -29467643.95345 -22556847.49642  24843049.9224                   24843055.2274
 -34489481.72347 -26828010.19946  20956275.3594                   20956272.3914
 -43366508.85547 -33325384.24245  21285524.6724                   21285521.9654
 -52527148.65648 -40265787.50846  20842099.1254                   20842094.5434
 -58348438.24647 -45422537.73444  22883390.2974                   22883389.5594
 -28800422.63347 -22393710.73846  21034350.0394                   21034347.6334
  -8762550.72747  -6572344.93444  22600537.6094                   22600536.0864
  -7168714.28547  -5538822.98444  23016981.9614                   23016981.9304
 11  8 19  1  0 30.0000000  0  9G17G09G12G10G02G04G05G30G25
 -74803198.26246 -58246584.12943  24050691.3054                   24050690.3094
 -29476570.86345 -22563803.84442  24841352.1484                   24841356.8554
 -34605084.36747 -26918090.18446  20934276.6254                   20934274.0274
 -43413185.77347 -33361755.86345  21276642.1254                   21276640.0824
 -52600192.21547 -40322704.57446  20828199.2584                   20828194.5204
 -58357011.10247 -45429217.89844  22881758.8674                   22881758.1524
 -28952357.58647 -22512101.57046  21005438.1804                   21005435.9964
  -8925020.74647  -6698944.89544  22569620.4614                   22569618.7894
  -7340237.27347  -5672477.20744  22984342.3134                   22984342.5944
 11  8 19  1  1  0.0000000  0  9G17G09G12G10G02G04G05G30G25
 -74829072.07846 -58266745.58243  24045767.0704                   24045767.1334
 -29485527.391 5                  24839647.344
 -34720098.14847 -27007711.30546  20912390.4614                   20912387.3714
 -43459255.82447 -33397654.60245  21267875.4844                   21267872.9804
 -52672999.96547 -40379437.89146  20814344.3524                   20814339.8554
 -58365533.08647 -45435858.43444  22880138.0164                   22880136.0044
 -29103775.63347 -22630089.60946  20976624.0084                   20976621.4844
  -9086998.23047  -6825161.05544  22538796.4694                   22538795.2734
  -7511368.74647  -5805826.32844  22951776.9304                   22951777.5274
 11  8 19  1  1 30.0000000  0  9G17G09G12G10G02G04G05G30G25
 -74854728.23846 -58286737.39143  24040885.3054                   24040884.6134
 -29494516.336 5                  24837937.039
 -34834521.91447 -27096872.66846  20890616.3984                   20890613.3714
 -43504720.80147 -33433081.85945  21259223.6564                   21259221.7704
 -52745573.14847 -40435988.43046  20800534.1484                   20800529.7734
 -58374005.66847 -45442460.47344  22878525.2974                   22878523.6294
 -29254674.39847 -22747673.02346  20947908.9224                   20947906.6024
  -9248480.78146  -6950991.56244  22508067.6174                   22508066.4344
  -7682106.06247  -5938868.32844  22919286.8834                   22919287.2814
 11  8 19  1  2  0.0000000  0  9G17G09G12G10G02G04G05G30G25
 -74880167.60546 -58306560.31643  24036043.4924                   24036043.6174
 -29503541.668 5                  24836220.805
 -34948355.60947 -27185574.23046  20868954.3054                   20868951.0824
 -43549583.41847 -33468039.73845  21250686.4614                   21250683.9884
 -52817914.02048 -40492357.94546  20786768.7664                   20786763.5204
 -58382431.32447 -45449025.96944  22876921.6884                   22876920.6094
 -29405053.24647 -22864851.30546  20919292.9304                   20919290.5354
  -9409466.85947  -7076435.20744  22477433.3834                   22477431.8284
  -7852447.68447  -6071602.00044  22886871.3524                   22886872.3834
 11  8 19  1  2 30.0000000  0  9G17G09G12G10G02G04G05G30G25
 -74905389.32446 -58326213.57043  24031244.5554                   24031243.8054
 -29512606.102 5                  24834494.938
 -35061597.65247 -27273814.77346  20847404.7424                   20847402.2464
 -43593844.83247 -33502529.13745  21242263.6094                   21242261.8284
 -52890023.31247 -40548547.00046  20773046.2584                   20773041.9414
 -58390810.54347 -45455555.25844  22875327.4064                   22875326.0594
 -29554909.62547 -22981622.46146  20890775.7734                   20890774.0204
  -9569953.81246  -7201489.93744  22446893.3674                   22446891.5704
  -8022390.65647  -6204025.03144  22854532.6174                   22854533.3324
 11  8 19  1  3  0.0000000  0  9G17G09G12G10G02G04G05G30G25
 -74930393.58646 -58345697.41043  24026486.9694                   24026485.8094
 -29521712.621 5                  24832762.375
 -35174246.97347 -27361593.44946  20825968.3984                   20825965.6684
 -43637506.93447 -33536551.55945  21233954.9694                   21233952.8444
 -52961902.39147 -40604556.66846  20759368.1724                   20759363.8754
 -58399144.77047 -45462049.47344  22873741.7664                   22873740.2854
 -29704241.69147 -23097985.07846  20862359.1024                   20862356.9454
  -9729939.30146  -7326153.90644  22416449.3364                   22416447.5004
  -8191932.55147  -6336135.54744  22822269.9774                   22822270.3674
 11  8 19  1  3 30.0000000  0  9G17G09G12G10G02G04G05G30G25
 -74955179.09046 -58365010.78543  24021770.2274                   24021769.2664
 -29530862.820 5                  24831022.023
 -35286301.55547 -27448908.68046  20804645.3284                   20804642.3324
 -43680570.90247 -33570107.87545  21225760.2344                   21225757.8284
 -53033551.06647 -40660386.79746  20745733.4384                   20745729.3754
 -58407434.23447 -45468508.82444  22872164.2584                   22872162.8634
 -29853046.86747 -23213937.11746  20834042.3594                   20834039.9924
  -9889419.93046  -7450424.48444  22386100.6414                   22386099.3794
  -8361069.69147  -6467930.67244  22790084.5704                   22790084.8984
 11  8 19  1  4  0.0000000  0  8G17G12G10G02G04G05G30G25
 -74979747.19545 -58384154.77043  24017095.0004                   24017094.7894
 -35397761.70347 -27535760.72746  20783435.4144                   20783432.1724
 -43723039.73447 -33603200.45345  21217678.6884                   21217676.7194
 -53104972.09047 -40716039.53546  20732142.9694                   20732138.0784
 -58415681.29746 -45474935.11344  22870594.6334                   22870593.5984
 -30001324.25447 -23329477.90246  20805825.8204                   20805823.6724
 -10048394.70746  -7574300.90244  22355848.7194                   22355847.2304
  -8529801.01247  -6599409.58244  22757975.7194                   22757976.3324
 11  8 19  1  4 30.0000000  0  8G17G12G10G02G04G05G30G25
 -75004096.55545 -58403128.27743  24012461.8134                   24012461.3364
 -35508625.73847 -27622148.27046  20762338.3834                   20762335.4734
 -43764914.32847 -33635830.00045  21209710.2034                   21209708.2704
 -53176165.69947 -40771515.07046  20718595.4614                   20718590.6484
 -58423886.53147 -45481328.83644  22869033.0864                   22869031.9964
 -30149071.14847 -23444605.30546  20777710.8054                   20777708.0434
 -10206860.48447  -7697780.69944  22325693.9694                   22325692.2774
  -8698123.02747  -6730569.55944  22725944.8984                   22725945.5164
 11  8 19  1  5  0.0000000  0  8G17G12G10G02G04G05G30G25
 -75028224.26645 -58421929.10242  24007869.4224                   24007870.4224
 -35618889.62947 -27708068.16846  20741355.8594                   20741353.1374
 -43806193.73047 -33667995.77045  21201854.8674                   21201852.6374
 -53247130.17247 -40826812.06646  20705091.2424                   20705086.7194
 -58432048.25846 -45487688.61744  22867480.0004                   22867479.1684
 -30296282.94147 -23559315.75446  20749697.2034                   20749694.6914
 -10364812.11747  -7820859.86744  22295636.6484                   22295635.4264
  -8866030.52047  -6861406.53544  22693993.0234                   22693993.6294
 11  8 19  1  5 30.0000000  0  8G17G12G10G02G04G05G30G25
 -75052126.90245 -58440554.53543  24003320.8914                   24003320.8594
 -35728548.68048 -27793516.75446  20720488.7974                   20720485.6254
 -43846876.09847 -33699696.32045  21194113.5784                   21194111.3094
 -53317862.89147 -40881928.47346  20691631.5084                   20691626.8954
 -58440164.33646 -45494012.84443  22865935.9454                   22865934.7114
 -30442953.68447 -23673604.59846  20721786.9064                   20721784.6054
 -10522243.55547  -7943533.69144  22265678.8054                   22265676.7074
  -9033517.21147  -6991915.61344  22662121.2584                   22662122.0594
 11  8 19  1  6  0.0000000  0  8G17G12G10G02G04G05G30G25
 -75075804.99245 -58459004.97343  23998815.9614                   23998815.4344
 -35837603.33247 -27878494.38346  20699736.4614                   20699733.1294
 -43886964.47347 -33730934.00845  21186484.2814                   21186482.2584
 -53388366.29347 -40936866.19546  20678215.0314                   20678210.8164
 -58448236.48046 -45500302.87143  22864399.6094                   22864398.2544
 -30589082.89847 -23787471.48046  20693979.0784                   20693976.9414
 -10679153.59847  -8065801.23444  22235819.9144                   22235817.6454
  -9200581.62947  -7122095.64544  22630330.1954                   22630330.5394
 11  8 19  1  6 30.0000000  0  8G17G12G10G02G04G05G30G25
 -75099259.13745 -58477280.90643  23994350.9924                   23994352.1134
 -35946052.71148 -27963000.38346  20679098.9304                   20679096.1054
 -43926461.42247 -33761710.85945  21178968.4774                   21178966.7234
 -53458642.36747 -40991626.77746  20664841.8834                   20664837.4494
 -58456266.75046 -45506560.25844  22862871.5864                   22862870.4534
 -30734669.24247 -23900915.34846  20666275.0164                   20666272.7424
 -10835540.50447  -8187661.14144  22206059.9384                   22206058.5904
  -9367221.82447  -7251945.11744  22598619.1254                   22598619.9964
 11  8 19  1  7  0.0000000  0  8G17G12G10G02G04G05G30G25
 -75122492.57446 -58495384.90243  23989931.1254                   23989930.9574
 -36053899.79747 -28047037.05946  20658576.1094                   20658573.1604
 -43965372.17647 -33792030.93445  21171564.4694                   21171562.1804
 -53528695.06647 -41046213.29746  20651511.3594                   20651506.7894
 -58464259.42246 -45512788.35243  22861350.5004                   22861349.6214
 -30879714.27047 -24013937.41046  20638674.1414                   20638671.7154
 -10991405.32847  -8309114.21944  22176400.2034                   22176398.1844
  -9533438.57847  -7381464.61344  22566989.7664                   22566989.8444
 11  8 19  1  7 30.0000000  0  8G17G12G10G02G04G05G30G25
 -73570086.34846 -57285717.68743  24285344.0164                   24285343.5864
 -34585721.95348 -26903002.36746  20937961.1804                   20937958.3094
 -42428279.45747 -32594296.33645  21464063.1414                   21464061.1024
 -52023105.04747 -39873026.26646  20938015.4534                   20938010.9924
 -56896797.34846 -44291389.36344  23159629.3674                   23159627.8524
 -29448793.35947 -22898934.06246  20910968.6644                   20910966.7194
  -9571322.64147  -7202556.25844  22446632.7114                   22446631.2464
  -8123805.95347  -6283049.56244  22835233.5784                   22835233.8284
 11  8 19  1  8  0.0000000  0  8G17G12G10G02G04G05G30G25
 -73592880.46546 -57303479.30943  24281006.1254                   24281006.0554
 -34692364.37147 -26986100.34446  20917667.6564                   20917664.6214
 -42466026.73447 -32623709.79345  21456880.0234                   21456878.2344
 -52092717.09447 -39927269.41846  20924768.7194                   20924764.2584
 -56904721.19146 -44297563.78543  23158121.1724                   23158120.3484
 -29592753.49247 -23011110.75446  20883574.0474                   20883572.0784
  -9726139.40247  -7323192.65244  22417172.1254                   22417170.5554
  -8289171.35947  -6411905.69544  22803765.2814                   22803765.7114
 11  8 19  1  8 30.0000000  0  8G17G12G10G02G04G05G30G25
 -73615457.21556 -57321071.56653  24276710.7584                   24276709.9884
 -34798405.22348 -27068729.57446  20897488.8524                   20897485.9774
 -42503197.69147 -32652674.18045  21449806.8054                   21449804.3674
 -52162113.33647 -39981344.41846  20911563.1024                   20911558.8444
 -56912614.60246 -44303714.54344  23156619.6414                   23156617.7304
 -29736170.74247 -23122864.41046  20856283.0084                   20856280.4654
  -9880431.14547  -7443419.97744  22387811.5474                   22387809.7154
  -8454109.62947  -6540428.99644  22772379.6094                   22772379.1954
 11  8 19  1  9  0.0000000  0  8G17G12G10G02G04G05G30G25
 -73637817.04746 -57338494.81243  24272455.3914                   24272455.2544
 -34903844.20748 -27150889.81246  20877424.5314                   20877421.5824
 -42539794.56247 -32681191.21945  21442842.7664                   21442840.6884
 -52231295.06247 -40035252.25446  20898398.1724                   20898393.6564
 -56920479.16446 -44309842.78143  23155122.5234                   23155120.7894
 -29879043.70747 -23234193.95346  20829095.1414                   20829092.6764
 -10034196.07047  -7563236.75844  22358550.8444                   22358548.9884
  -8618618.78147  -6668617.92244  22741073.8594                   22741074.1414
 11  8 19  1  9 30.0000000  0  8G17G12G10G02G04G05G30G25
 -73659958.81546 -57355748.14043  24268242.5164                   24268241.8714
 -35008680.05548 -27232580.07446  20857475.1024                   20857472.1254
 -42575818.61747 -32709261.92245  21435987.9144                   21435985.3484
 -52300262.46947 -40088993.09446  20885274.1884                   20885269.7304
 -56928315.35546 -44315948.91443  23153631.4694                   23153630.7114
 -30021369.99647 -23345097.51246  20802011.1644                   20802008.8484
 -10187431.15647  -7682640.68744  22329390.5554                   22329389.4384
  -8782695.54347  -6796469.92244  22709850.9454                   22709850.8984
 11  8 19  1 10  0.0000000  0  8G17G12G10G02G04G05G30G25
 -73681883.46546 -57372832.27343  24264069.6484                   24264070.0474
 -35112912.20747 -27313799.92646  20837639.7114                   20837637.0354
 -42611272.73047 -32736888.50445  21429241.2344                   21429238.8834
 -52369017.42647 -40142568.37546  20872190.6564                   20872186.3164
 -56936124.69546 -44322034.16043  23152145.0394                   23152143.9384
 -30163148.67247 -23455574.35546  20775031.4384                   20775028.9884
 -10340134.82847  -7801630.52744  22300332.5944                   22300331.1644
  -8946338.07047  -6923983.53944  22678710.2894                   22678711.2234
 11  8 19  1 10 30.0000000  0  8G17G12G10G02G04G05G30G25
 -73703591.77346 -57389747.84043  24259938.0784                   24259938.7934
 -35216541.57448 -27394550.07846  20817920.3984                   20817916.8754
 -42646160.04747 -32764073.41045  21422602.2584                   21422599.6374
 -52437562.09448 -40195979.80546  20859146.6024                   20859142.1804
 -56943909.42646 -44328100.20743  23150664.0784                   23150662.7734
 -30304379.07847 -23565623.97746  20748156.0474                   20748153.5394
 -10492306.24647  -7920205.62544  22271375.6804                   22271373.9494
  -9109545.10547  -7051157.82444  22647653.8914                   22647653.8094
 11  8 19  1 11  0.0000000  0  8G17G12G10G02G04G05G30G25
 -73725083.51646 -57406494.63743  24255849.8754                   24255848.7114
 -35319566.78947 -27474829.46546  20798314.9924                   20798311.6454
 -42680482.16447 -32790817.91845  21416070.9064                   21416068.6094
 -52505897.37147 -40249228.06246  20846142.9774                   20846138.1994
 -56951670.44146 -44334147.78143  23149187.1414                   23149185.6524
 -30445059.23047 -23675244.82846  20721385.0394                   20721382.8284
 -10643942.87546  -8038364.00444  22242519.5474                   22242517.8914
  -9272313.87547  -7177990.60244  22616679.5784                   22616679.4804
 11  8 19  1 11 30.0000000  0  8G17G12G10G02G04G05G30G25
 -73746359.66046 -57423073.43043  24251800.0474                   24251800.3484
 -35421988.57447 -27554638.63746  20778824.3984                   20778821.8054
 -42714242.34847 -32817124.54345  21409646.4694                   21409644.0234
 -52574025.44947 -40302314.86746  20833178.9694                   20833174.6294
 -56959409.90647 -44340178.57844  23147713.9224                   23147712.5744
 -30585188.61347 -23784436.51246  20694720.1564                   20694717.0864
 -10795043.65647  -8156104.83644  22213766.8914                   22213764.9264
  -9434643.12947  -7304480.89544  22585789.2664                   22585789.9654
 11  8 19  1 12  0.0000000  0  8G17G12G10G02G04G05G30G25
 -73767418.62546 -57439482.99243  24247792.4304                   24247793.1024
 -35523804.80947 -27633975.96546  20759449.8674                   20759446.9574
 -42747441.75847 -32842994.21945  21403328.8834                   21403326.5204
 -52641946.30947 -40355240.20346  20820254.1414                   20820249.6804
 -56967127.48846 -44346192.30144  23146246.1414                   23146244.9064
 -30724764.33648 -23893196.78146  20668159.2424                   20668157.0744
 -10945605.24647  -8273425.52744  22185114.5474                   22185113.6844
  -9596529.19147  -7430625.84444  22554983.5554                   22554983.7504
 11  8 19  1 12 30.0000000  0  8G17G12G10G02G04G05G30G25
 -73788262.02345 -57455724.60242  24243826.7894                   24243826.4344
 -35625016.08248 -27712841.88346  20740190.1094                   20740186.8754
 -42780083.78547 -32868429.55945  21397117.2664                   21397115.1844
 -52709662.07047 -40408005.71946  20807367.9614                   20807363.7384
 -56974825.38746 -44352190.70343  23144779.9614                   23144779.4344
 -30863786.42247 -24001525.63746  20641704.2194                   20641702.1414
 -11095626.79747  -8390325.39844  22156567.5234                   22156565.3164
  -9757970.76247  -7556424.42645  22524262.1724                   22524262.2114
 11  8 19  1 13  0.0000000  0  8G17G12G10G02G04G05G30G25
 -73808889.55145 -57471797.97342  24239901.3984                   24239900.9454
 -35725621.58247 -27791235.77746  20721045.5004                   20721042.5394
 -42812170.35247 -32893432.08645  21391011.6254                   21391009.2424
 -52777173.66447 -40460612.14546  20794520.8674                   20794516.2894
 -56982504.77346 -44358174.68443  23143319.9614                   23143318.3404
 -31002253.00447 -24109421.63346  20615355.2894                   20615352.8324
 -11245106.09047  -8506802.74644  22128122.5704                   22128120.5984
  -9918965.47747  -7681874.81245  22493626.4064                   22493626.4844
 11  8 19  1 13 30.0000000  0  8G17G12G10G02G04G05G30G25
 -73829302.77046 -57487704.24642  24236016.5314                   24236016.6954
 -35825622.40647 -27869158.50046  20702016.0004                   20702012.6844
 -42843705.06247 -32918004.59045  21385010.6254                   21385008.6644
 -52844483.68047 -40513061.50046  20781712.4064                   20781707.4884
 -56990168.12146 -44364146.15243  23141861.1724                   23141859.8834
 -31140163.93747 -24216884.66046  20589111.4304                   20589108.7704
 -11394042.62546  -8622857.14544  22099780.4924                   22099778.2154
 -10079512.42247  -7806976.28545  22463075.3134                   22463075.0554
 11  8 19  1 14  0.0000000  0  8G17G12G10G02G04G05G30G25
 -73849500.62146 -57503442.81642  24232173.4774                   24232173.4224
 -35925017.28147 -27946609.05546  20683101.6254                   20683098.6604
 -42874689.32047 -32942148.16445  21379114.6644                   21379112.5204
 -52911592.50847 -40565354.07846  20768941.2734                   20768937.2734
 -56997815.51646 -44370105.21543  23140406.1484                   23140405.0314
 -31277516.67647 -24323912.73046  20562974.1254                   20562971.4024
 -11542433.55947  -8738486.41444  22071542.7664                   22071540.6024
 -10239608.51247  -7931726.44544  22432609.3594                   22432609.5314
 11  8 19  1 14 30.0000000  0  9G17G29G12G10G02G04G05G30G25
 -73869484.71146 -57519014.77343  24228370.0784                   24228370.1724
  12355244.32456   9667874.06352  24540557.0944                   24540556.1174
 -36023806.43047 -28023587.61746  20664302.7344                   20664299.4654
 -42905126.58247 -32965865.51645  21373322.8054                   21373320.3094
 -52978502.23447 -40617491.52346  20756209.3524                   20756204.7464
 -57005449.10246 -44376053.51243  23138953.0554                   23138952.5394
 -31414311.09447 -24430505.74646  20536943.1804                   20536940.4104
 -11690278.00447  -8853689.85544  22043408.6804                   22043407.0704
 -10399252.30147  -8056124.14845  22402230.5314                   22402230.6564
 11  8 19  1 15  0.0000000  0  9G17G29G12G10G02G04G05G30G25
 -73889257.52346 -57534422.10243  24224607.5944                   24224606.9024
  12186053.83646   9536037.40242  24508360.7344                   24508360.7304
 -36121992.61347 -28100096.34046  20645618.6094                   20645615.3554
 -42935021.95347 -32989160.60945  21367633.4774                   21367631.1724
 -53045216.97747 -40669477.03546  20743513.7584                   20743509.3834
 -57013072.77746 -44381994.06643  23137503.0084                   23137502.4804
 -31550548.84047 -24536664.98446  20511017.5084                   20511014.9414
 -11837576.88347  -8968468.17244  22015378.9064                   22015376.4574
 -10558444.54747  -8180170.02345  22371936.8284                   22371937.3594
 11  8 19  1 15 30.0000000  0  9G17G29G12G10G02G04G05G30G25
 -73908821.42246 -57549666.60543  24220885.2664                   24220884.4614
  12016806.28545   9404156.25842  24476154.0784                   24476154.1334
 -36219577.50047 -28176136.51646  20627048.7894                   20627045.6454
 -42964380.19547 -33012037.17245  21362047.0944                   21362044.8244
 -53111740.34047 -40721313.40646  20730855.0164                   20730850.4964
 -57020689.94946 -44387929.56243  23136053.3204                   23136052.4384
 -31686230.80547 -24642391.15646  20485198.4614                   20485195.8244
 -11984330.53947  -9082821.66444  21987452.1174                   21987450.7424
 -10717185.20747  -8303864.00845  22341729.4454                   22341729.8954
 11  8 19  1 16  0.0000000  0  9G17G29G12G10G02G04G05G30G25
 -72352757.14846 -56337148.94143  24516994.3364                   24516993.5744
  13422926.20345  10499834.15642  24743729.7114                   24743729.5394
 -34741138.69147 -27024106.27346  20908386.5084                   20908383.1414
 -41417783.79747 -31806897.11345  21656354.2584                   21656351.9804
 -51602652.05947 -39545400.46146  21018025.1024                   21018020.3404
 -55452882.42246 -43166261.40243  23434396.6804                   23434396.4224
 -30245931.82847 -23520080.22746  20759278.5314                   20759275.8484
 -10555113.31647  -7969145.88744  22259423.1484                   22259421.6604
  -9300047.85247  -7199601.09845  22611401.6724                   22611402.3634
 11  8 19  1 16 30.0000000  0  9G17G29G12G10G02G04G05G30G25
 -72371904.69546 -56352069.05143  24513350.1884                   24513350.0474
  13253564.37945  10367864.02342  24711501.7814                   24711501.5554
 -34837520.96947 -27099209.34446  20890045.2504                   20890042.1564
 -41446075.59847 -31828942.67245  21650970.4844                   21650968.2034
 -51668796.52047 -39596941.59446  21005438.0784                   21005433.4614
 -55460490.53946 -43172189.88343  23432949.2894                   23432948.5904
 -30380498.63348 -23624937.44146  20733670.8834                   20733668.0704
 -10700771.80147  -8082645.99244  22231704.9614                   22231703.7114
  -9457879.54347  -7322586.80145  22581367.0634                   22581367.6954
 11  8 19  1 17  0.0000000  0  9G17G29G12G10G02G04G05G30G25
 -72390845.06646 -56366827.70742  24509746.2894                   24509745.7114
  13084145.79345  10235849.60943  24679262.2424                   24679262.2384
 -34933302.43048 -27173844.24246  20871818.6724                   20871815.9344
 -41473838.22747 -31850575.89145  21645687.2584                   21645685.5944
 -51734753.86347 -39648336.92646  20992886.5784                   20992882.2504
 -55468096.44146 -43178116.58643  23431502.0234                   23431501.0664
 -30514506.88347 -23729359.41846  20708169.8444                   20708167.3134
 -10845880.71547  -8195717.84844  22204091.6564                   22204090.2974
  -9615254.12947  -7445216.32845  22551420.4694                   22551420.0984
 11  8 19  1 17 30.0000000  0  9G17G29G12G10G02G04G05G30G25
 -72409575.40246 -56381422.71943  24506181.1954                   24506181.6884
  12914673.72345  10103793.56342  24647012.4064                   24647012.5164
 -35028479.42247 -27248008.12946  20853707.3754                   20853704.2734
 -41501071.30147 -31871796.47745  21640505.4614                   21640503.5704
 -51800522.40647 -39699585.14146  20980371.5164                   20980366.5864
 -55475697.85946 -43184039.80543  23430056.0234                   23430054.1294
 -30647951.81647 -23833342.44146  20682776.1884                   20682773.4184
 -10990435.05147  -8308357.58244  22176584.3364                   22176582.1414
  -9772166.22747  -7567485.46145  22521560.7344                   22521560.6994
 11  8 19  1 18  0.0000000  0  9G17G29G12G10G02G04G05G30G25
 -72428095.47745 -56395853.90243  24502658.3364                   24502657.2034
  12745148.74245   9971696.25442  24614753.2974                   24614752.9774
 -35123051.71947 -27321700.82446  20835710.8834                   20835707.8674
 -41527777.25847 -31892606.31645  21635423.5864                   21635421.2114
 -51866103.02747 -39750686.92646  20967892.1644                   20967887.1294
 -55483296.29346 -43189960.69943  23428609.6174                   23428608.4534
 -30780832.29747 -23936885.64146  20657489.6254                   20657487.3714
 -11134433.11747  -8420563.84844  22149182.5164                   22149180.3324
  -9928613.77747  -7689392.60944  22491789.3204                   22491789.7974
 11  8 19  1 18 30.0000000  0  9G17G29G12G10G02G04G05G30G25
 -72446406.03146 -56410121.82443  24499172.8364                   24499172.7504
  12575570.93045   9839557.75443  24582483.2734                   24582482.7934
 -35217019.18047 -27394922.21546  20817829.2344                   20817825.9924
 -41553958.91447 -31913007.61745  21630440.8054                   21630438.9064
 -51931497.34847 -39801643.54346  20955448.0784                   20955442.9574
 -55490892.59046 -43195879.93043  23427163.7344                   23427162.9734
 -30913147.59047 -24039988.42646  20632311.1094                   20632308.3134
 -11277873.40247  -8532335.49244  22121886.7814                   22121884.8204
 -10084594.95347  -7810936.36345  22462107.4304                   22462107.7274
 11  8 19  1 19  0.0000000  0  9G17G29G12G10G02G04G05G30G25
 -72464505.28145 -56424225.12543  24495728.8054                   24495728.6374
  12405942.59045   9707379.92243  24550203.5084                   24550203.5394
 -35310379.94147 -27467670.84846  20800062.7114                   20800060.1524
 -41579616.70747 -31933000.71145  21625558.5234                   21625556.0634
 -51996704.46947 -39852454.29746  20943039.1414                   20943034.2274
 -55498486.08646 -43201796.98443  23425718.7114                   23425718.4064
 -31044894.74248 -24142648.50446  20607240.4064                   20607238.0944
 -11420752.32047  -8643669.69145  22094697.6804                   22094695.5664
 -10240105.59447  -7932113.46945  22432514.6484                   22432514.8324
 11  8 19  1 19 30.0000000  0  9G17G29G12G10G02G04G05G30G25
 -72482392.08246 -56438162.84843  24492325.2034                   24492324.6724
  12236265.66845   9575164.22743  24517915.6024                   24517915.0044
 -35403132.48047 -27539945.53546  20782413.3674                   20782410.1134
 -41604751.96947 -31952586.62545  21620775.5784                   21620773.2704
 -52061724.41047 -39903119.18746  20930666.6414                   20930661.7894
 -55506076.41846 -43207711.58243  23424274.5554                   23424273.5314
 -31176071.04747 -24244863.76646  20582278.2734                   20582275.5434
 -11563066.81647  -8754564.09044  22067615.8204                   22067614.1174
 -10395142.36347  -8052921.30145  22403012.1024                   22403012.4454
 11  8 19  1 20  0.0000000  0  9G17G29G12G10G02G04G05G30G25
 -72500067.93746 -56451936.17243  24488961.2894                   24488960.7974
  12066539.48046   9442910.08643  24485618.0474                   24485617.2344
 -35495278.06647 -27611747.27046  20764878.6724                   20764875.5354
 -41629368.56247 -31971768.40245  21616091.0704                   21616088.6024
 -52126559.55147 -39953640.07046  20918328.4614                   20918324.1764
 -55513665.98846 -43213625.53143  23422830.7424                   23422829.5704
 -31306676.91847 -24346634.54346  20557424.6414                   20557422.1054
 -11704816.57447  -8865018.42644  22040641.5084                   22040639.9454
 -10549704.42647  -8173359.26245  22373600.2734                   22373600.0084
 11  8 19  1 20 30.0000000  0  9G17G29G12G10G02G04G05G30G25
 -72517533.94146 -56465545.98443  24485637.8364                   24485636.9614
  11896763.64846   9310617.31343  24453310.1644                   24453309.5704
 -35586817.46947 -27683076.66046  20747458.2114                   20747455.6254
 -41653469.75447 -31990548.53945  21611504.8594                   21611502.6334
 -52191211.76247 -40004018.41446  20906025.6334                   20906021.0004
 -55521256.56246 -43219540.29743  23421386.0634                   23421385.0474
 -31436711.78147 -24447960.36746  20532679.7814                   20532677.2774
 -11846000.57847  -8975031.91844  22013775.1094                   22013773.5164
 -10703790.45347  -8293426.27345  22344278.5234                   22344278.5394
 11  8 19  1 21  0.0000000  0  9G17G29G12G10G02G04G05G30G25
 -72534787.99246 -56478990.62943  24482354.5784                   24482353.7304
  11726940.79346   9178287.85543  24420994.1254                   24420993.5864
 -35677748.28147 -27753931.81646  20730155.1174                   20730152.2074
 -41677056.03947 -32008927.47344  21607016.6414                   21607014.1254
 -52255680.27047 -40054253.62146  20893757.6884                   20893752.9804
 -55528846.96546 -43225454.93443  23419941.9454                   23419940.9924
 -31566172.57047 -24548838.85946  20508044.2814                   20508042.0084
 -11986615.16447  -9084601.71144  21987016.9844                   21987015.9184
 -10857396.20747  -8413119.03945  22315048.3204                   22315048.2974
 11  8 19  1 21 30.0000000  0  8G29G12G10G02G04G05G30G25
  11557068.81346   9045920.11743  24388668.0004                   24388667.4024
 -35768072.88747 -27824314.60946  20712966.8834                   20712964.0704
 -41700132.23047 -32026908.92244  21602624.9454                   21602622.7234
 -52319968.35547 -40104348.23046  20881524.1804                   20881519.6524
 -55536440.89846 -43231372.32043  23418497.0864                   23418496.1054
 -31695060.67247 -24649271.11346  20483517.5784                   20483515.1524
 -12126661.21947  -9193728.46944  21960367.2584                   21960365.7424
 -11010522.18747  -8532437.95745  22285909.2034                   22285909.4454
 11  8 19  1 22  0.0000000  0  8G29G12G10G02G04G05G30G25
  11387149.34446   8913515.35243  24356333.4534                   24356333.3714
 -35857790.62147 -27894224.51246  20695894.1564                   20695890.9494
 -41722699.95747 -32044494.18045  21598330.9694                   21598328.8134
 -52384076.45347 -40154302.59445  20869325.0394                   20869320.2464
 -55544038.04346 -43237292.20743  23417051.0784                   23417049.8714
 -31823374.25447 -24749255.68046  20459100.6644                   20459097.9264
 -12266136.04347  -9302410.12145  21933825.8364                   21933824.7074
 -11163165.33647  -8651380.64845  22256862.3524                   22256862.1684
 11  8 19  1 22 30.0000000  0  8G29G12G10G02G04G05G30G25
  11217183.92646   8781074.78543  24323990.2734                   24323989.8484
 -35946900.08247 -27963660.44146  20678937.1174                   20678934.3834
 -41744760.90647 -32061684.52745  21594132.7034                   21594130.3204
 -52448004.45347 -40204116.62545  20857159.8134                   20857154.9924
 -55551638.50046 -43243214.66043  23415605.0704                   23415604.1454
 -31951111.01247 -24848790.77346  20434792.5004                   20434790.4964
 -12405037.13747  -9410644.71145  21907394.1884                   21907392.2974
 -11315322.59047  -8769944.71145  22227907.3834                   22227907.6334
 11  8 19  1 23  0.0000000  0  8G29G12G10G02G04G05G30G25
  11047178.61746   8648603.10543  24291639.6334                   24291638.8714
 -36035396.14147 -28032618.38746  20662097.1334                   20662093.9304
 -41766312.23847 -32078477.77345  21590031.4224                   21590029.3014
 -52511748.37147 -40253787.19946  20845029.8754                   20845025.1524
 -55559237.71946 -43249136.17643  23414158.3754                   23414158.0984
 -32078264.85547 -24947871.66046  20410596.3204                   20410593.9224
 -12543357.60247  -9518426.85944  21881072.4144                   21881070.8054
 -11466986.63347  -8888124.44945  22199046.7344                   22199046.7504
 11  8 19  1 23 30.0000000  0  8G29G12G10G02G04G05G30G25
  10877132.50446   8516099.66843  24259281.0004                   24259280.0864
 -36123280.27347 -28101099.52046  20645373.2274                   20645370.5554
 -41787358.16847 -32094877.20344  21586027.1564                   21586024.2384
 -52575310.56647 -40303316.18046  20832934.1884                   20832929.4964
 -55566838.11746 -43255058.57843  23412712.5784                   23412712.4804
 -32204836.26247 -25046498.69946  20386510.1644                   20386508.1844
 -12681097.34447  -9625756.49245  21854861.9144                   21854859.9264
 -11618156.78547  -9005919.34445  22170279.7274                   22170279.6334
 11  8 19  1 24  0.0000000  0  8G29G12G10G02G04G05G30G25
  10707045.37546   8383564.28143  24226913.9144                   24226913.6604
 -36210552.73047 -28169104.02046  20628765.6254                   20628762.4384
 -41807901.81647 -32110885.22345  21582117.5634                   21582114.9414
 -52638692.79347 -40352704.92645  20820872.7734                   20820868.3444
 -55574441.42246 -43260983.26643  23411265.4924                   23411264.9804
 -32330824.98847 -25144671.69946  20362535.7114                   20362533.2304
 -12818255.45347  -9732632.91044  21828761.3284                   21828759.4144
 -11768831.78547  -9123328.40645  22141606.9534                   22141607.5314
 11  8 19  1 24 30.0000000  0  8G29G12G10G02G04G05G30G25
  10536915.78946   8250995.77043  24194539.1954                   24194539.2544
 -36297216.58647 -28236634.28546  20612274.1724                   20612271.4104
 -41827947.84047 -32126505.50045  21578303.0944                   21578300.5634
 -52701898.07847 -40401955.78546  20808845.7034                   20808840.8714
 -55582050.36346 -43266912.35543  23409818.1334                   23409817.0784
 -32456231.49247 -25242391.02346  20338671.4304                   20338668.9844
 -12954832.39147  -9839056.45745  21802771.4384                   21802769.9654
 -11919011.55147  -9240351.55945  22113029.0634                   22113029.5434
 11  8 19  1 25  0.0000000  0  8G29G12G10G02G04G05G30G25
  11942170.50846   9345999.49243  24461951.0784                   24461949.8244
 -34807848.44148 -27076087.67246  20895691.5704                   20895688.5594
 -40272078.03947 -30914139.41445  21874375.0704                   21874372.8164
 -51189505.19947 -39223467.82045  21096644.3754                   21096639.5004
 -54014245.54346 -42045246.28543  23708161.2974                   23708160.2814
 -31005631.09847 -24112053.02046  20614711.8204                   20614709.3714
 -11515401.97347  -8717422.32845  22076685.9144                   22076684.1024
 -10493268.94547  -8129383.25845  22384339.5864                   22384339.4414
 11  8 19  1 25 30.0000000  0  8G29G12G10G02G04G05G30G25
  11771957.98446   9213366.36743  24429560.5084                   24429559.4064
 -34893294.87547 -27142669.30546  20879431.7194                   20879428.6414
 -40291137.52047 -30928990.94545  21870748.0864                   21870745.7664
 -51252360.38347 -39272445.88745  21084683.0704                   21084678.7624
 -54021868.96946 -42051186.67643  23706709.9614                   23706710.0274
 -31129871.90247 -24208864.00446  20591069.3594                   20591066.9884
 -11650812.52047  -8822936.99645  22050918.5704                   22050916.7974
 -10642452.70747  -8245630.30545  22355950.3754                   22355950.4694
 11  8 19  1 26  0.0000000  0  8G29G12G10G02G04G05G30G25
  11601702.60946   9080699.89543  24397161.7664                   24397160.9224
 -34978134.97747 -27208778.47346  20863287.3914                   20863284.2234
 -40309709.56647 -30943462.67645  21867213.7274                   21867211.5004
 -51315044.15247 -39321290.37146  21072755.2034                   21072750.3954
 -54029502.91846 -42057135.26243  23705257.2584                   23705257.2814
 -31253530.62947 -24305221.43046  20567538.0164                   20567535.4224
 -11785639.71147  -8927997.10545  22025261.7974                   22025259.7544
 -10791137.56647  -8361488.60245  22327656.2894                   22327656.7544
 11  8 19  1 26 30.0000000  0  8G29G12G10G02G04G05G30G25
  11431404.12146   8947999.84843  24364754.7194                   24364754.3404
 -35062369.60247 -27274415.84046  20847257.9774                   20847255.0274
 -40327797.74647 -30957557.36744  21863771.5864                   21863769.5274
 -51377558.60947 -39370002.92245  21060859.0944                   21060854.3954
 -54037149.41846 -42063093.62143  23703802.1884                   23703802.1054
 -31376607.42647 -24401125.39146  20544117.3054                   20544114.2894
 -11919883.14547  -9032602.34044  21999715.4064                   21999714.0314
 -10939322.57447  -8476957.40245  22299457.3754                   22299457.7194
 11  8 19  1 27  0.0000000  0  8G29G12G10G02G04G05G30G25
  11261065.01246   8815268.10543  24332340.1484                   24332339.6374
 -35145997.53147 -27339580.45746  20831343.7034                   20831340.8834
 -40345403.22347 -30971275.91844  21860421.6884                   21860419.5944
 -51439902.98447 -39418582.95346  21048994.9774                   21048990.3634
 -54044807.57446 -42069061.06243  23702345.5234                   23702345.3874
 -31499099.76247 -24496573.93746  20520806.8984                   20520805.0824
 -12053539.80147  -9136750.35245  21974281.9534                   21974280.4184
 -11087004.18447  -8592033.94945  22271355.0944                   22271354.8794
 11  8 19  1 27 30.0000000  0  8G29G12G10G02G04G05G30G25
  11090682.93446   8682502.89843  24299918.0234                   24299916.7704
 -35229021.89547 -27404274.77346  20815544.8134                   20815541.9264
 -40362531.73047 -30984622.79344  21857162.1174                   21857160.1414
 -51502081.32847 -39467033.60245  21037163.2114                   21037158.1174
 -54052481.03546 -42075040.45343  23700885.0474                   23700884.8874
 -31621009.56247 -24591568.55546  20497609.1414                   20497606.2544
 -12186611.24647  -9240442.35545  21948959.0944                   21948957.1804
 -11234183.34447  -8706718.97345  22243347.7974                   22243347.9964
 11  8 19  1 28  0.0000000  0  8G29G12G10G02G04G05G30G25
  10920260.12546   8549705.98843  24267487.9534                   24267487.0004
 -35311441.27747 -27468497.66846  20799861.3134                   20799858.1374
 -40379184.04347 -30997598.63745  21853993.7734                   21853991.3444
 -51564092.91047 -39515354.30945  21025362.4064                   21025357.9774
 -54060169.14546 -42081031.27043  23699421.9454                   23699422.2274
 -31742334.50047 -24686107.43446  20474521.2274                   20474518.8164
 -12319094.19547  -9343675.80545  21923748.5784                   21923746.4614
 -11380856.43747  -8821009.66045  22215436.8204                   22215436.8484
 11  8 19  1 28 30.0000000  0  8G29G12G10G02G04G05G30G25
  10749795.77346   8416876.68843  24235048.9454                   24235048.7034
 -35393257.66047 -27532250.70346  20784291.8594                   20784289.1214
 -40395364.79347 -31010207.01244  21850913.8834                   21850912.1764
 -51625940.51647 -39563547.23045  21013592.8984                   21013588.5554
 -54067874.02046 -42087035.05143  23697956.5474                   23697955.4024
 -31863075.66047 -24780191.42646  20451545.1414                   20451542.3634
 -12450989.17647  -9446451.07445  21898649.8984                   21898647.4654
 -11527023.21147  -8934905.81645  22187622.4304                   22187622.3324
 11  8 19  1 29  0.0000000  0  8G29G12G10G02G04G05G30G25
  10579291.82846   8284016.52043  24202602.8914                   24202602.5554
 -35474469.56247 -27595532.70746  20768838.0084                   20768834.6844
 -40411075.14147 -31022448.84845  21847924.6884                   21847922.8554
 -51687623.85247 -39611612.15245  21001855.3524                   21001850.4344
 -54075595.32846 -42093051.71543  23696487.0394                   23696486.5664
 -31983230.86747 -24873818.82846  20428680.2034                   20428677.7344
 -12582293.33647  -9548765.98845  21873663.3364                   21873661.1024
 -11672680.47747  -9048404.94145  22159904.2504                   22159904.6884
 11  8 19  1 29 30.0000000  0  8G29G12G10G02G04G05G30G25
  10408747.53146   8151124.93843  24170149.1254                   24170148.7584
 -35555079.29347 -27658345.49246  20753498.3364                   20753495.5084
 -40426319.36747 -31034327.49244  21845024.0004                   21845021.5554
 -51749145.32847 -39659550.96146  20990147.8984                   20990143.5354
 -54083335.25446 -42099082.90643  23695014.1254                   23695013.5234
 -32102800.87147 -24966990.22746  20405926.3834                   20405923.9534
 -12713006.97747  -9650620.75445  21848788.8364                   21848786.9064
 -11817827.82447  -9161506.73445  22132283.9924                   22132283.5474
 11  8 19  1 30  0.0000000  0  8G29G12G10G02G04G05G30G25
  10238167.32046   8018205.35243  24137689.1644                   24137688.6294
 -35635083.51647 -27720686.45746  20738274.1564                   20738271.3134
 -40441096.85547 -31045842.43744  21842211.3524                   21842209.4494
 -51810502.43047 -39707361.68446  20978472.1644                   20978467.7544
 -54091091.24646 -42105126.57443  23693538.4064                   23693537.4614
 -32221781.46147 -25059702.34446  20383285.8444                   20383282.8794
 -12843125.34847  -9752011.67245  21824028.2664                   21824026.1374
 -11962459.96547  -9274207.07445  22104760.8284                   22104760.9574
 11  8 19  1 30 30.0000000  0  8G29G12G10G02G04G05G30G25
  10067548.33646   7885255.53943  24105221.3524                   24105220.7344
 -35714486.39148 -27782558.83646  20723163.9534                   20723160.9774
 -40455413.48447 -31056998.26244  21839487.0474                   21839485.4844
 -51871699.37547 -39755047.60945  20966826.6954                   20966822.0164
 -54098867.24246 -42111185.82043  23692058.5634                   23692057.4304
 -32340175.66847 -25151957.54346  20360755.4774                   20360752.7194
 -12972650.58647  -9852940.41845  21799380.4844                   21799378.4224
 -12106578.45347  -9386507.17645  22077336.2114                   22077335.9884
 11  8 19  1 31  0.0000000  0  8G29G12G10G02G04G05G30G25
   9896891.74246   7752276.41443  24072746.0314                   24072745.5124
 -35793287.69947 -27843962.45346  20708168.6724                   20708166.0354
 -40469271.76647 -31067796.95344  21836850.3284                   21836848.0084
 -51932736.96947 -39802609.35946  20955211.1954                   20955207.1134
 -54106663.90646 -42117261.19143  23690574.8834                   23690573.7664
 -32457982.11347 -25243754.73446  20338337.9774                   20338335.5314
 -13101581.12547  -9953405.78144  21774846.1804                   21774843.7664
 -12250181.21147  -9498405.39845  22050008.9534                   22050009.2504
 11  8 19  1 31 30.0000000  0  8G29G12G10G02G04G05G30G25
   9726199.04746   7619269.19143  24040264.7814                   24040264.1954
 -35871487.10247 -27904897.06646  20693288.2734                   20693285.1214
 -40482673.75047 -31078240.07044  21834300.5704                   21834298.0234
 -51993615.57847 -39850047.22746  20943627.0474                   20943622.0984
 -54114481.09446 -42123352.53143  23689087.5864                   23689085.9964
 -32575199.81647 -25335093.17246  20316031.9304                   20316029.4924
 -13229915.04347 -10053406.23444  21750424.7814                   21750422.5904
 -12393265.66847  -9609899.75845  22022781.4694                   22022781.3054
 11  8 19  1 32  0.0000000  0  8G29G12G10G02G04G05G30G25
   9555471.35246   7486234.68843  24007776.1094                   24007775.7034
 -35949084.59447 -27965362.64846  20678521.8524                   20678518.8524
 -40495621.64847 -31088329.35244  21831836.1564                   21831833.7464
 -52054335.68047 -39897361.58246  20932072.6644                   20932067.7234
 -54122318.97346 -42129459.94943  23687595.7114                   23687595.0314
 -32691827.48847 -25425971.84046  20293838.8204                   20293836.1564
 -13357650.50447 -10152940.35945  21726117.3914                   21726115.3324
 -12535829.42247  -9720988.38345  21995652.3914                   21995652.2194
 11  8 19  1 32 30.0000000  0  8G29G12G10G02G04G05G30G25
   9384708.30946   7353172.62543  23975281.1884                   23975280.0704
 -36026081.80147 -28025360.48046  20663870.1024                   20663866.4924
 -40508119.59047 -31098068.03144  21829458.2344                   21829455.7584
 -52114899.33647 -39944554.03945  20920547.3524                   20920542.6604
 -54130179.80946 -42135585.33643  23686099.8204                   23686099.8484
 -32807865.94147 -25516391.37946  20271757.3524                   20271754.1564
 -13484787.72347 -10252008.31645  21701924.0314                   21701922.0744
 -12677872.07847  -9831670.95345  21968622.8134                   21968622.2154
 11  8 19  1 33  0.0000000  0  8G29G12G10G02G04G05G30G25
   9213912.74246   7220085.23043  23942779.7664                   23942778.8204
 -36102477.52047 -28084889.61346  20649331.8754                   20649329.2304
 -40520168.50447 -31107456.81244  21827164.8134                   21827162.9614
 -52175305.92247 -39991624.09445  20909053.2194                   20909047.7584
 -54138062.19546 -42141727.51243  23684600.6804                   23684599.7624
 -32923312.63348 -25606349.81646  20249788.4614                   20249785.9024
 -13611323.62947 -10350607.73445  21677845.0234                   21677843.1684
 -12819389.93747  -9941944.59045  21941692.7114                   21941692.7544
 11  8 19  1 33 30.0000000  0  8G29G12G10G02G04G05G30G25
   9043084.50446   7086972.39143  23910272.2974                   23910270.9804
 -36178272.89548 -28143950.95346  20634908.7194                   20634905.7664
 -40531771.77747 -31116498.33244  21824957.2344                   21824954.7664
 -52235556.85247 -40038572.85545  20897586.4694                   20897581.9384
 -54145967.54346 -42147887.58243  23683095.6334                   23683095.6994
 -33038167.71547 -25695847.25046  20227932.2194                   20227929.9064
 -13737257.76247 -10448738.23444  21653880.8674                   21653878.7234
 -12960381.93447 -10051808.48045  21914862.5864                   21914862.6254
 11  8 19  1 34  0.0000000  0  8G29G12G10G02G04G05G30G25
  10447649.89146   8181438.97743  24177552.4384                   24177551.5274
 -34678046.18447 -26974943.12546  20920392.5474                   20920389.2934
 -38967512.01247 -29897594.63744  22122625.7344                   22122623.7234
 -50720230.71947 -38857799.22745  21185944.3594                   21185939.4844
 -52578476.45346 -40926465.97743  23981379.5634                   23981378.9414
 -31577007.20348 -24557280.59446  20505982.1954                   20505979.1954
 -12287165.03947  -9318795.84045  21929823.7814                   21929822.1374
 -11525421.84447  -8933657.74645  22187926.8594                   22187926.2624
 11  8 19  1 34 30.0000000  0  8G29G12G10G02G04G05G30G25
  10276758.14546   8048276.64843  24145032.0944                   24145031.6764
 -34752643.48448 -27033070.89846  20906196.7424                   20906194.1094
 -38978233.21547 -29905948.83244  22120585.7664                   22120583.5904
 -50780173.59847 -38904507.96145  21174536.1484                   21174532.4024
 -52586430.38346 -40932663.85243  23979865.8134                   23979865.5984
 -31690678.47347 -24645855.58246  20484351.2894                   20484348.3404
 -12411893.16447  -9415986.59045  21906088.9614                   21906087.2704
 -11665357.76647  -9042698.71145  22161297.8914                   22161297.0984
 11  8 19  1 35  0.0000000  0  8G29G12G10G02G04G05G30G25
  10105833.59446   7915088.78543  24112506.6644                   24112505.5554
 -34826645.05947 -27090734.46146  20892114.7274                   20892111.8874
 -38988519.60547 -29913964.20744  22118628.0634                   22118625.9654
 -50839966.33647 -38951099.69545  21163159.0314                   21163154.6914
 -52594411.99246 -40938883.33643  23978346.8284                   23978347.0984
 -31803759.51647 -24733970.66046  20462832.3204                   20462829.4144
 -12536019.02347  -9512708.02745  21882468.2814                   21882466.8794
 -11804765.44547  -9151328.06245  22134768.8834                   22134769.0634
 11  8 19  1 35 30.0000000  0  8G29G12G10G02G04G05G30G25
   9934878.73846   7781877.28543  24079974.8674                   24079973.6644
 -34900049.62547 -27147932.82446  20878146.1254                   20878143.1374
 -38998373.03947 -29921642.21944  22116752.7034                   22116751.2664
 -50899608.37547 -38997574.00845  21151810.0704                   21151804.4184
 -52602420.60946 -40945123.84443  23976823.7814                   23976822.6564
 -31916248.67247 -24821624.52346  20441426.3594                   20441423.5234
 -12659540.07847  -9608958.17645  21858963.2974                   21858961.5124
 -11943641.75447  -9259543.35545  22108341.7974                   22108341.6054
 11  8 19  1 36  0.0000000  0  8G29G12G10G02G04G05G30G25
   9763893.73846   7648642.31643  24047437.3054                   24047436.5314
 -34972858.94147 -27204667.35946  20864291.3364                   20864288.0864
 -39007796.71947 -29928985.37944  22114960.3364                   22114957.6804
 -50959100.77347 -39043931.70745  21140488.9064                   21140484.1844
 -52610457.37146 -40951386.32043  23975293.0634                   23975293.0234
 -32028145.84047 -24908817.09846  20420132.6724                   20420130.5744
 -12782455.92247  -9704736.73845  21835573.5634                   21835571.5704
 -12081985.56647  -9367343.71545  22082015.6724                   22082015.5664
 11  8 19  1 36 30.0000000  0  8G29G12G10G02G04G05G30G25
   9592878.66046   7515383.88743  24014894.6644                   24014893.3164
 -35045074.14547 -27260938.94546  20850549.3204                   20850546.3484
 -39016794.33247 -29935996.51644  22113247.2114                   22113245.3364
 -51018445.70747 -39090174.50045  21129195.4534                   21129190.8834
 -52618523.78146 -40957671.89143  23973759.0314                   23973758.0634
 -32139451.48447 -24995548.75046  20398952.3204                   20398949.3634
 -12904766.43047  -9800043.60545  21812298.3444                   21812296.5824
 -12219796.14847  -9474728.57045  22055791.3444                   22055791.5474
 11  8 19  1 37  0.0000000  0  8G29G12G10G02G04G05G30G25
   9421834.63746   7382102.93043  23982346.1334                   23982344.8794
 -35116696.19947 -27316748.34846  20836920.0864                   20836917.0864
 -39025368.34447 -29942677.57844  22111616.4144                   22111614.2664
 -51077644.10947 -39136303.11345  21117930.5084                   21117925.9654
 -52626620.25846 -40963980.92643  23972218.8914                   23972218.0314
 -32250165.16047 -25081819.12146  20377884.1954                   20377881.3054
 -13026470.48847  -9894877.91845  21789139.0084                   21789137.2384
 -12357071.69947  -9581696.51645  22029668.9064                   22029669.3324
 11  8 19  1 37 30.0000000  0  8G29G12G10G02G04G05G30G25
   9250761.36746   7248799.16443  23949790.8054                   23949790.5784
 -35187726.09847 -27372096.31646  20823403.6884                   20823400.4574
 -39033522.72347 -29949031.64544  22110064.2114                   22110062.2034
 -51136697.25047 -39182318.54746  21106692.9454                   21106688.3754
 -52634748.13746 -40970314.30543  23970671.5864                   23970671.3164
 -32360287.47747 -25167628.69146  20356928.2894                   20356925.7234
 -13147567.93047  -9989239.53545  21766094.4924                   21766092.7034
 -12493811.37547  -9688246.89845  22003647.9384                   22003648.1954
 11  8 19  1 38  0.0000000  0  8G29G12G10G02G04G05G30G25
   9079662.57046   7115475.48443  23917232.8754                   23917231.3874
 -35258162.52047 -27426981.84446  20809999.7424                   20809996.6724
 -39041258.10547 -29955059.20744  22108592.2504                   22108590.4184
 -51195604.07847 -39228219.97745  21095483.1254                   21095478.2704
 -52642905.88746 -40976671.03943  23969119.6254                   23969118.8594
 -32469815.53548 -25252975.21546  20336086.1254                   20336083.1054
 -13268055.68047 -10083126.05945  21743166.8674                   21743164.9844
 -12630011.37947  -9794376.75045  21977729.9224                   21977730.1294
 11  8 19  1 38 30.0000000  0  8G29G12G10G02G04G05G30G25
   8908536.35946   6982130.42243  23884668.0554                   23884667.2154
 -35328008.89147 -27481407.58246  20796708.6484                   20796705.3404
 -39048579.62147 -29960764.30144  22107199.4774                   22107196.9494
 -51254367.54747 -39274009.69945  21084301.3054                   21084296.7274
 -52651096.40646 -40983053.23842  23967560.1804                   23967559.9024
 -32578751.75047 -25337860.54346  20315355.7894                   20315353.0784
 -13387935.19147 -10176538.62945  21720354.4534                   21720352.6414
 -12765672.55547  -9900086.73045  21951914.3524                   21951914.1604
 11  8 19  1 39  0.0000000  0  8G29G12G10G02G04G05G30G25
   8737383.36746   6848764.49643  23852098.4144                   23852097.9734
 -35397266.34447 -27535374.43046  20783529.3914                   20783526.1484
 -39055490.47347 -29966149.38744  22105884.5004                   22105881.9494
 -51312989.16847 -39319688.90645  21073145.8984                   21073141.1844
 -52659320.85746 -40989461.91743  23965994.9534                   23965995.2814
 -32687096.39147 -25422284.92246  20294738.7974                   20294736.1054
 -13507206.00047 -10269476.89145  21697657.6724                   21697656.1844
 -12900793.73047 -10005375.93445  21926201.6334                   21926202.0864
 11  8 19  1 39 30.0000000  0  8G29G12G10G02G04G05G30G25
   8566207.60546   6715380.81643  23819524.5704                   23819523.8484
 -35465932.69547 -27588880.67646  20770462.6484                   20770459.3244
 -39061990.37547 -29971214.25844  22104647.0234                   22104644.8954
 -51371466.46947 -39365255.64545  21062017.8054                   21062013.4534
 -52667576.51246 -40995894.91042  23964424.6254                   23964424.2234
 -32794846.14848 -25506245.73846  20274234.5394                   20274232.0354
 -13625864.25847 -10361937.82845  21675077.9694                   21675076.2734
 -13035370.29347 -10110240.75445  21900592.7664                   21900592.6914
 11  8 19  1 40  0.0000000  0  8G29G12G10G02G04G05G30G25
   8395007.77346   6581978.36343  23786946.4304                   23786945.4344
 -35534010.78947 -27641928.53946  20757507.5554                   20757504.6414
 -39068084.50047 -29975962.93444  22103487.3834                   22103485.5204
 -51429802.76247 -39410712.50445  21050916.8674                   21050912.4534
 -52675866.27746 -41002354.50043  23962848.1174                   23962846.2304
 -32902003.01247 -25589744.56246  20253843.2424                   20253840.7504
 -13743911.39547 -10453922.56645  21652614.5474                   21652612.3364
 -13169403.01247 -10214681.80545  21875086.9844                   21875087.1994
 11  8 19  1 40 30.0000000  0  8G29G12G10G02G04G05G30G25
   8223785.09846   6448558.09843  23754364.2814                   23754362.7584
 -35601501.03947 -27694518.34446  20744664.8134                   20744661.8554
 -39073775.06647 -29980397.14544  22102405.1884                   22102402.7274
 -51487998.34847 -39456059.72345  21039842.8054                   21039837.8874
 -52684190.10946 -41008840.61343  23961263.1254                   23961262.1954
 -33008566.03947 -25672780.65646  20233564.8054                   20233562.6644
 -13861346.02047 -10545430.03945  21630267.4774                   21630265.5204
 -13302889.83247 -10318697.48045  21849685.6484                   21849685.3714
 11  8 19  1 41  0.0000000  0  8G29G12G10G02G04G05G30G25
   8052540.91846   6315121.04343  23721777.5554                   23721776.1054
 -35668404.52347 -27746650.93446  20731933.5784                   20731930.5904
 -39079065.15647 -29984519.28144  22101398.1094                   22101395.9104
 -51546053.94947 -39501297.85545  21028795.1254                   21028790.1724
 -52692548.76646 -41015353.84443  23959672.8914                   23959671.8834
 -33114535.35548 -25755354.12946  20213399.6644                   20213396.9104
 -13978167.62947 -10636459.84045  21608037.0314                   21608035.1804
 -13435829.51247 -10422286.79745  21824387.6954                   21824388.2274
 11  8 19  1 41 30.0000000  0  8G29G12G10G02G04G05G30G25
   7881277.77746   6181669.23043  23689187.2504                   23689186.2114
 -35734720.70747 -27798325.88346  20719313.7734                   20719310.9184
 -39083956.26647 -29988330.52344  22100467.2814                   22100465.4804
 -51603968.96547 -39546426.45745  21017774.2194                   21017769.0784
 -52700941.35546 -41021893.46142  23958075.8674                   23958074.9804
 -33219909.16848 -25837463.56246  20193347.5314                   20193344.9494
 -14094373.96547 -10727010.20745  21585923.4304                   21585921.2814
 -13568219.00047 -10525447.40245  21799194.9844                   21799195.0204
 11  8 19  1 42  0.0000000  0  8G29G12G10G02G04G05G30G25
   7709993.19546   6048200.71943  23656593.5394                   23656591.8634
 -35800453.64847 -27849546.35246  20706805.3984                   20706802.1914
 -39088454.18447 -29991835.41044  22099610.9694                   22099609.3094
 -51661747.15647 -39591448.43045  21006779.1804                   21006774.7774
 -52709371.35946 -41028462.31242  23956471.6564                   23956471.0744
 -33324690.66047 -25919111.44546  20173408.6564                   20173405.8914
 -14209967.29747 -10817082.90245  21563926.4774                   21563924.7304
 -13700059.89147 -10628180.52745  21774106.2194                   21774106.1024
 11  8 19  1 42 30.0000000  0  8G29G12G10G02G04G05G30G25
   9114113.75846   7142320.62143  23923788.0084                   23923787.1684
 -34290182.62947 -26672711.78546  20994200.2584                   20994197.4454
 -37517142.29347 -28767436.52744  22398622.1024                   22398619.6214
 -50143968.31647 -38408763.62145  21295602.9304                   21295598.4224
 -51142419.37946 -39807460.76242  24254652.0314                   24254652.0704
 -31853456.75447 -24772695.38746  20453374.8834                   20453372.1954
 -12749523.67247  -9679074.87545  21841840.0864                   21841837.9924
 -12255927.01247  -9502882.14845  22048915.7194                   22048915.5204
 11  8 19  1 43  0.0000000  0  8G29G12G10G02G04G05G30G25
   8942789.89146   7008821.51243  23891186.0784                   23891185.2664
 -34354751.81247 -26723025.43046  20981913.5944                   20981910.4454
 -37520862.76247 -28770335.58244  22397913.9144                   22397911.9064
 -50201475.93747 -38453574.76245  21284659.5634                   21284654.6644
 -51150925.55946 -39814088.95343  24253034.0864                   24253033.2154
 -31957053.42247 -24853420.03946  20433661.1094                   20433658.4344
 -12863889.11347  -9768190.78545  21820077.1024                   21820075.1644
 -12386666.66047  -9604757.16045  22024036.8444                   22024036.5784
 11  8 19  1 43 30.0000000  0  8G29G12G10G02G04G05G30G25
   8771449.02346   6875309.15243  23858581.2424                   23858580.1254
 -34418739.53547 -26772885.98846  20969736.7114                   20969733.6844
 -37524197.66447 -28772934.19144  22397279.0784                   22397277.1914
 -50258847.73447 -38498280.05545  21273742.2344                   21273737.6644
 -51159469.46146 -39820746.55943  24251407.9224                   24251407.4574
 -32060056.47347 -24933682.13746  20414060.3134                   20414057.4454
 -12977638.43447  -9856826.60945  21798430.7504                   21798428.9304
 -12516852.41847  -9706200.58245  21999263.2344                   21999262.8594
 11  8 19  1 44  0.0000000  0  8G29G12G10G02G04G05G30G25
   8600090.74646   6741783.24644  23825973.2034                   23825971.7584
 -34482148.02747 -26822295.20746  20957670.5164                   20957667.2774
 -37527151.20347 -28775235.65644  22396717.8754                   22396715.4184
 -50316086.35547 -38542881.57845  21262850.1724                   21262845.3404
 -51168053.03946 -39827435.06643  24249774.6564                   24249774.3324
 -32162467.20748 -25013482.68046  20394572.2814                   20394569.3714
 -13090772.38347  -9944982.93745  21776902.0474                   21776900.3524
 -12646484.25847  -9807212.38345  21974595.0394                   21974594.8444
 11  8 19  1 44 30.0000000  0  8G29G12G10G02G04G05G30G25
   8428718.48046   6608246.42243  23793361.4774                   23793360.3014
 -34544976.43747 -26871252.39546  20945714.8594                   20945711.2624
 -37529724.13347 -28777240.53144  22396227.3834                   22396225.6054
 -50373190.22347 -38587378.09045  21251983.5944                   21251978.9614
 -51176674.31646 -39834152.99242  24248133.6644                   24248133.5864
 -32264283.55947 -25092820.07846  20375196.9534                   20375194.5824
 -13203288.15247 -10032657.57045  21755491.1644                   21755489.1174
 -12775558.66847  -9907789.82445  21950033.4694                   21950033.0824
 11  8 19  1 45  0.0000000  0  8G29G12G10G02G04G05G30G25
   8257332.46946   6474698.93443  23760747.7664                   23760746.4104
 -34607226.76247 -26919759.13746  20933868.6174                   20933865.7384
 -37531920.33647 -28778951.86744  22395810.1414                   22395807.3794
 -50430161.16447 -38631771.02745  21241142.0394                   21241137.5434
 -51185334.94546 -39840901.54343  24246485.3524                   24246486.3014
 -32365506.32048 -25171694.93746  20355935.3204                   20355932.4414
 -13315186.28547 -10119850.91445  21734197.8204                   21734195.9024
 -12904075.38747 -10007932.69945  21925577.0314                   21925576.9384
 11  8 19  1 45 30.0000000  0  8G29G12G10G02G04G05G30G25
   8085934.90246   6341142.43443  23728131.7194                   23728131.0204
 -34668898.54347 -26967815.06646  20922133.0394                   20922129.8404
 -37533741.21946 -28780370.74644  22395463.2734                   22395461.0234
 -50486998.36747 -38676059.74245  21230326.6484                   21230321.7934
 -51194034.20346 -39847680.18743  24244830.3284                   24244830.5124
 -32466134.23048 -25250106.27746  20336786.2274                   20336783.6134
 -13426464.88347 -10206561.51245  21713022.0004                   21713020.4184
 -13032031.72747 -10107638.93045  21901227.5084                   21901227.5274
 11  8 19  1 46  0.0000000  0  8G29G12G10G02G04G05G30G25
   7914525.47746   6207576.73443  23695513.6484                   23695512.8244
 -34729994.77347 -27015422.51646  20910507.3364                   20910503.6294
 -37535191.21546 -28781500.61744  22395187.4304                   22395185.1804
 -50543704.31247 -38720246.19145  21219535.5164                   21219531.5314
 -51202773.78546 -39854490.22342  24243166.6644                   24243167.2034
 -32566168.89148 -25328055.34446  20317750.4454                   20317747.5004
 -13537124.98847 -10292790.16845  21691964.4454                   21691962.8014
 -13159427.96547 -10206908.71545  21876984.7974                   21876985.1094
 11  8 19  1 46 30.0000000  0  8G29G12G10G02G04G05G30G25
   7743103.66846   6074001.37143  23662893.4224                   23662891.8094
 -34790517.88347 -27062583.37546  20898990.1484                   20898987.0204
 -37536274.84047 -28782345.01644  22394981.1884                   22394979.5314
 -50600281.37147 -38764332.19145  21208769.3754                   21208764.8594
 -51211555.56646 -39861333.21543  24241497.1254                   24241496.0434
 -32665611.93747 -25405543.41846  20298827.2734                   20298824.0314
 -13647167.52047 -10378537.59045  21671023.9534                   21671021.6054
 -13286264.23047 -10305742.16845  21852848.7894                   21852848.9264
 11  8 19  1 47  0.0000000  0  8G29G12G10G02G04G05G30G25
   7571670.83246   5940417.40643  23630270.1564                   23630269.4064
 -34850468.85247 -27109298.40646  20887580.9844                   20887578.6334
 -37536994.71146 -28782905.97344  22394844.3914                   22394842.2234
 -50656729.52047 -38808317.75045  21198027.9774                   21198023.3134
 -51220380.13746 -39868209.48443  24239816.9454                   24239816.8444
 -32764463.75047 -25482570.77746  20280015.9144                   20280013.3014
 -13756591.78147 -10463803.25045  21650200.8284                   21650199.3134
 -13412539.12947 -10404138.18445  21828819.4774                   21828819.4184
 11  8 19  1 47 30.0000000  0  8G29G12G10G02G04G05G30G25
   7400226.96946   5806824.86343  23597645.7194                   23597644.6174
 -34909850.19947 -27155569.58246  20876281.3834                   20876278.3954
 -37537354.95747 -28783186.70344  22394775.8594                   22394773.6054
 -50713051.00847 -38852204.61745  21187310.1414                   21187305.6134
 -51229248.48446 -39875119.96143  24238129.5474                   24238129.1604
 -32862725.26247 -25559138.16046  20261317.2504                   20261314.7934
 -13865398.65247 -10548587.81245  21629495.8834                   21629493.8094
 -13538252.69147 -10502096.79345  21804896.9224                   21804896.6414
 11  8 19  1 48  0.0000000  0  9G26G29G12G10G02G04G05G30G25
  18641853.85915                  24785871.805
   7228773.90246   5673225.15243  23565018.8914                   23565018.1914
 -34968662.23047 -27201397.12946  20865089.7114                   20865086.5234
 -37537358.02046 -28783189.12144  22394774.6954                   22394772.5594
 -50769245.86347 -38895992.80545  21176616.5634                   21176611.7894
 -51238161.05946 -39882064.82443  24236434.2664                   24236433.0634
 -32960395.96947 -25635245.18046  20242730.9774                   20242728.2734
 -13973587.02747 -10632890.42645  21608908.6094                   21608906.4534
 -13663403.12547 -10599616.59845  21781081.6094                   21781081.5824
 11  8 19  1 48 30.0000000  0  9G26G29G12G10G02G04G05G30G25
  18461514.078 5                  24751554.906
   7057311.59046   5539618.25443  23532391.1884                   23532389.8134
 -35026907.82047 -27246783.30546  20854006.6094                   20854003.1414
 -37537007.82847 -28782916.27344  22394841.8914                   22394839.5864
 -50825316.18447 -38939683.96145  21165946.5784                   21165942.3634
 -51247119.03546 -39889045.13743  24234728.3754                   24234728.2934
 -33057477.14847 -25710892.83246  20224256.9304                   20224254.3954
 -14081157.80147 -10716711.78545  21588438.3524                   21588435.8874
 -13787990.37147 -10696697.55945  21757373.7894                   21757373.4774
 11  8 19  1 49  0.0000000  0  9G26G29G12G10G02G04G05G30G25
  18281049.301 5                  24717213.023
   6885837.89846   5406002.46543  23499759.9924                   23499759.4774
 -35084590.95747 -27291731.20346  20843029.4064                   20843026.1644
 -37536310.37546 -28782372.82444  22394974.5784                   22394972.7034
 -50881265.38347 -38983280.71945  21155299.9304                   21155295.6484
 -51256125.82846 -39896063.41842  24233014.6334                   24233014.3954
 -33153972.50847 -25786084.00046  20205894.8754                   20205892.0004
 -14188113.61347 -10800053.96145  21568085.3914                   21568083.0124
 -13912016.33647 -10793341.14845  21733772.1254                   21733771.9884
 11  8 19  1 49 30.0000000  0  9G26G29G12G10G02G04G05G30G25
  18100462.82445  14681381.17652  24682848.3204                   24682846.8284
   6714355.13746   5272379.60243  23467129.2504                   23467126.7384
 -35141712.51247 -27336241.50846  20832159.5084                   20832156.5234
 -37535267.94146 -28781560.56644  22395172.3834                   22395170.9774
 -50937093.53547 -39026783.15645  21144676.2344                   21144671.4184
 -51265181.08646 -39903119.52342  24231291.8364                   24231290.8404
 -33249881.29748 -25860818.09446  20187643.6414                   20187640.7234
 -14294453.37547 -10882916.08645  21547849.7974                   21547847.5744
 -14035479.09447 -10889545.87945  21710277.7274                   21710277.4384
 11  8 19  1 50  0.0000000  0  9G26G29G12G10G02G04G05G30G25
  17919757.64845  14540572.08642  24648460.7424                   24648461.1174
   6542864.15646   5138750.33243  23434495.1254                   23434492.9924
 -35198273.79747 -27380315.23846  20821396.0784                   20821393.3914
 -37533883.55146 -28780481.85944  22395436.6334                   22395434.5004
 -50992801.26647 -39070191.76645  21134075.3204                   21134070.7624
 -51274285.16846 -39910213.65242  24229559.0394                   24229559.4614
 -33345204.04747 -25935095.53946  20169504.6334                   20169501.8204
 -14400176.88347 -10965298.00445  21527730.8914                   21527728.7154
 -14158377.64847 -10985310.96145  21686891.0634                   21686891.0664
 11  8 19  1 50 30.0000000  0  9G26G29G12G10G02G04G05G30G25
  17738935.71145  14399671.96142  24614052.2344                   24614052.6884
   6371365.13346   5005114.75443  23401859.6174                   23401858.2074
 -35254276.77347 -27423953.93046  20810739.0554                   20810736.0984
 -37532160.99246 -28779139.63344  22395764.3914                   22395762.1454
 -51048390.23447 -39113507.82845  21123497.4064                   21123492.9104
 -51283439.52046 -39917346.90242  24227817.4844                   24227817.3054
 -33439941.73847 -26008917.09446  20151476.5314                   20151473.2774
 -14505284.78147 -11047200.23445  21507729.5864                   21507727.6134
 -14280711.78947 -11080636.24245  21663612.1174                   21663611.3164
 11  8 19  1 51  0.0000000  0  9G26G29G12G10G02G04G05G30G25
  17558003.98045  14258686.35542  24579620.4694                   24579621.9804
   6199863.98446   4871477.54743  23369223.7814                   23369222.5864
 -35309718.78947 -27467155.50046  20800189.0784                   20800185.7814
 -37530098.86346 -28777532.79344  22396156.7114                   22396154.5704
 -51103857.00047 -39156728.67245  21112942.0084                   21112937.3794
 -51292640.16846 -39924516.18042  24226066.4384                   24226066.5784
 -33534090.62147 -26082279.84046  20133560.4614                   20133557.9454
 -14609772.57047 -11128619.26245  21487845.6954                   21487843.8244
 -14402476.25047 -11175517.60945  21640440.4454                   21640440.5554
 11  8 19  1 51 30.0000000  0  9G26G29G12G10G02G04G05G30G25
  18952389.84446  15345220.89842  24844964.1484                   24844964.8204
   7603785.89546   5965442.73844  23636381.5234                   23636379.9414
 -33789180.68047 -26282320.62146  21089537.9694                   21089535.0234
 -35952281.51246 -27548064.73844  22696405.5394                   22696403.1844
 -49583781.50447 -37972254.26645  21402202.7504                   21402198.1024
 -49726468.535 6                  24524099.063
 -32052229.36747 -24927582.74246  20415549.6024                   20415546.4494
 -13138218.19947  -9981953.48445  21767873.8594                   21767871.4734
 -12948247.48047 -10042352.29345  21917171.2814                   21917171.1414
 11  8 19  1 52  0.0000000  0  9G26G29G12G10G02G04G05G30G25
  18771246.22346  15204070.14842  24810492.7504                   24810493.7774
   7432282.71946   5831803.96543  23603745.5474                   23603744.2974
 -33843505.83247 -26324651.91846  21079200.2504                   21079197.0164
 -35949549.68446 -27545936.06644  22696925.0704                   22696922.9264
 -49639006.37147 -38015286.61345  21391693.9304                   21391689.4144
 -49735763.676 6                  24522330.344
 -32145202.57447 -25000029.38346  20397856.6564                   20397854.5004
 -13241466.26247 -10062406.48445  21748226.6024                   21748223.8554
 -13068870.51247 -10136344.21945  21894216.8134                   21894217.3754
 11  8 19  1 52 30.0000000  0  9G26G29G12G10G02G04G05G30G25
  18590000.66045  15062839.97342  24776003.5394                   24776003.6484
   7260780.30146   5698165.73844  23571109.8054                   23571108.4654
 -33897274.67247 -26366549.72746  21068968.3444                   21068965.3444
 -35946487.49246 -27543549.99244  22697507.5084                   22697505.5824
 -49694111.40647 -38058225.59045  21381207.9844                   21381203.1174
 -49745106.574 5                  24520552.469
 -32237588.66047 -25072018.53146  20380276.7584                   20380274.0124
 -13344094.31647 -10142376.36745  21728696.4924                   21728694.5394
 -13188921.37947 -10229890.30945  21871372.2584                   21871372.1724
 11  8 19  1 53  0.0000000  0  9G26G29G12G10G02G04G05G30G25
  18408657.01245  14921533.35942  24741494.5634                   24741494.8054
   7089280.76246   5564529.76243  23538474.0784                   23538472.8484
 -33950488.05547 -26408014.71546  21058842.0234                   21058839.0784
 -35943097.02746 -27540908.10544  22698153.5864                   22698151.3244
 -49749096.47747 -38101071.08245  21370744.6564                   21370740.3054
 -49754496.770 5                  24518765.617
 -32329387.26647 -25143549.89146  20362808.1024                   20362804.9104
 -13446101.29747 -10221862.30545  21709285.5164                   21709283.1764
 -13308398.30947 -10322989.17645  21848636.6094                   21848636.7504
 11  8 19  1 53 30.0000000  0  9G26G29G12G10G02G04G05G30G25
  18227217.67646  14780152.21942  24706968.9304                   24706967.4774
   6917784.50446   5430896.35544  23505838.8594                   23505837.9104
 -34003148.00847 -26449048.44546  21048821.2734                   21048817.9734
 -35939382.15646 -27538013.40644  22698860.1954                   22698858.1174
 -49803962.75047 -38143823.99645  21360303.4454                   21360299.2424
 -49763935.406 5                  24516969.141
 -32420599.64147 -25214624.45746  20345450.7274                   20345447.9454
 -13547487.91447 -10300864.83645  21689992.1414                   21689990.0514
 -13427301.06647 -10415640.63745  21826010.4384                   21826009.8984
 11  8 19  1 54  0.0000000  0  9G26G29G12G10G02G04G05G30G25
  18045686.05146  14638699.12542  24672423.5394                   24672422.5004
   6746293.55146   5297267.05544  23473205.4774                   23473204.8444
 -34055255.50847 -26489651.71546  21038905.6564                   21038902.2544
 -35935345.03146 -27534867.60543  22699628.1724                   22699625.8914
 -49858710.41447 -38186484.51645  21349885.7734                   21349880.8204
 -49773422.01246 -38709154.79752  24515163.3594                   24515164.4144
 -32511225.50047 -25285242.00446  20328204.6804                   20328202.1414
 -13648253.50847 -10379383.46145  21670817.0634                   21670815.2424
 -13545628.07847 -10507843.46545  21803493.5554                   21803492.9224
 11  8 19  1 54 30.0000000  0  9G26G29G12G10G02G04G05G30G25
  17864064.76646  14497176.16042  24637861.8444                   24637861.6254
   6574808.92246   5163642.71143  23440574.0704                   23440572.6484
 -34106811.92247 -26529825.55146  21029094.6484                   21029091.2034
 -35930988.94946 -27531473.27344  22700457.1024                   22700455.3674
 -49913339.92247 -38229052.94545  21339489.7664                   21339485.2464
 -49782957.10546 -38716584.73443  24513349.8204                   24513349.9494
 -32601265.47747 -25355403.00046  20311071.7504                   20311068.1414
 -13748398.05947 -10457418.14845  21651759.9454                   21651757.9454
 -13663378.66447 -10599597.14845  21781086.2194                   21781085.7894
 11  8 19  1 55  0.0000000  0  9G26G29G12G10G02G04G05G30G25
  17682359.01245  14355587.37542  24603284.7814                   24603283.8984
   6403334.20346   5030026.08644  23407943.3594                   23407941.7504
 -34157817.07847 -26569569.83246  21019388.4774                   21019385.3404
 -35926314.36346 -27527830.77044  22701346.3524                   22701344.5554
 -49967849.98447 -38271528.30945  21329117.1884                   21329112.0474
 -49792538.70746 -38724050.85542  24511525.4144                   24511526.1134
 -32690717.67647 -25425105.99246  20294048.7034                   20294045.8364
 -13847919.43447 -10534967.25045  21632821.9384                   21632819.1334
 -13780549.72747 -10690899.24245  21758789.1804                   21758788.9024
 11  8 19  1 55 30.0000000  0  9G26G29G12G10G02G04G05G30G25
  17500569.74245  14213933.50842  24568691.6334                   24568690.9144
   6231868.54346   4896416.51244  23375313.8364                   23375312.5084
 -34208274.68747 -26608887.46546  21009786.7584                   21009783.6564
 -35921326.39546 -27523944.06243  22702296.0314                   22702294.2034
 -50022243.26247 -38313912.67245  21318766.1804                   21318761.6524
 -49802169.15246 -38731555.11743  24509694.2894                   24509693.1524
 -32779584.99247 -25494353.24246  20277137.9694                   20277135.7274
 -13946819.59847 -10612032.31645  21614001.7194                   21613999.4064
 -13897142.42247 -10781750.67245  21736602.3674                   21736602.0594
 11  8 19  1 56  0.0000000  0  9G26G29G12G10G02G04G05G30G25
  17318698.52046  14072215.72742  24534081.9224                   24534082.1024
   6060412.27346   4762814.24244  23342687.4924                   23342685.9614
 -34258187.15647 -26647780.30945  21000288.6024                   21000286.1884
 -35916029.00046 -27519816.24243  22703303.4144                   22703302.0594
 -50076521.22347 -38356207.18445  21308438.0164                   21308432.6954
 -49811849.96546 -38739098.61743  24507851.5554                   24507851.1024
 -32867869.30548 -25563146.19146  20260338.4384                   20260335.2934
 -14045099.99247 -10688614.43045  21595299.4454                   21595297.3204
 -14013157.18447 -10872151.77345  21714525.7274                   21714525.0784
 11  8 19  1 56 30.0000000  0  9G26G29G12G10G02G04G05G30G25
  17136750.87546  13930438.45742  24499458.1414                   24499458.6764
   5888969.03946   4629222.11344  23310062.9534                   23310061.1644
 -34307553.78547 -26686247.82446  20990894.9224                   20990891.8634
 -35910422.82046 -27515447.80944  22704370.4064                   22704368.7274
 -50130682.35547 -38398410.66045  21298130.8524                   21298126.8754
 -49821579.00446 -38746679.67242  24505999.8834                   24505999.7384
 -32955568.54347 -25631483.24246  20243649.5864                   20243646.3714
 -14142758.16447 -10764711.69145  21576715.8364                   21576713.6254
 -14128590.84847 -10962100.07045  21692559.2194                   21692558.7774
 11  8 19  1 57  0.0000000  0  9G26G29G12G10G02G04G05G30G25
  16954727.82046  13788602.38742  24464821.1254                   24464819.9844
   5717538.30946   4495639.75444  23277440.4534                   23277438.8794
 -34356378.03147 -26724292.69546  20981603.8524                   20981600.6294
 -35904512.94946 -27510842.76644  22705495.8204                   22705493.6684
 -50184728.89147 -38440524.83245  21287846.8134                   21287841.9964
 -49831358.50846 -38754300.05142  24504139.7274                   24504138.8014
 -33042685.31247 -25699366.43046  20227071.7274                   20227069.0354
 -14239796.15247 -10840325.70345  21558250.0084                   21558247.8324
 -14243444.50047 -11051596.42245  21670703.0314                   21670703.2504
 11  8 19  1 57 30.0000000  0  9G26G29G12G10G02G04G05G30G25
  16772632.30946  13646709.80542  24430167.8594                   24430168.8634
   5546121.32846   4362068.10544  23244820.8524                   23244819.4104
 -34404661.47747 -26761916.16846  20972415.7344                   20972412.7034
 -35898301.71546 -27506002.82844  22706677.0944                   22706675.8834
 -50238661.46147 -38482550.19545  21277583.1094                   21277578.7774
 -49841188.45746 -38761959.77742  24502268.9534                   24502268.5004
 -33129220.30147 -25766796.27046  20210604.9224                   20210602.0084
 -14336213.91447 -10915456.43445  21539902.2584                   21539900.3244
 -14357717.22347 -11140640.10245  21648957.9694                   21648957.5044
 11  8 19  1 58  0.0000000  0  9G26G29G12G10G02G04G05G30G25
  16590468.28545  13504763.98042  24395504.0634                   24395504.2814
   5374720.29746   4228508.89544  23212203.9384                   23212202.6214
 -34452405.59847 -26799119.37945  20963330.2974                   20963327.3204
 -35891791.34846 -27500929.82843  22707916.6484                   22707914.7624
 -50292479.94947 -38524486.66845  21267342.2504                   21267337.4774
 -49851068.27746 -38769658.29342  24500387.6644                   24500388.4774
 -33215173.43747 -25833772.73046  20194248.0784                   20194245.5744
 -14432011.09847 -10990103.59445  21521672.9454                   21521670.7034
 -14471407.75047 -11229230.13345  21627323.6644                   21627323.1214
 11  8 19  1 58 30.0000000  0  9G26G29G12G10G02G04G05G30G25
  16408238.68445  13362766.91042  24360827.1724                   24360827.9884
   5203336.78546   4094963.30544  23179591.0634                   23179589.3364
 -34499611.72747 -26835903.38746  20954346.9224                   20954344.2664
 -35884984.92646 -27495626.17244  22709211.3204                   22709209.3444
 -50346184.53947 -38566334.38745  21257122.1954                   21257117.6484
 -49860998.34046 -38777396.06642  24498498.7424                   24498498.6724
 -33300545.37147 -25900296.30546  20178002.7114                   20177999.7774
 -14527187.63747 -11064267.13345  21503561.3754                   21503558.9614
 -14584515.23847 -11317365.84445  21605799.4064                   21605799.3874
 11  8 19  1 59  0.0000000  0  9G26G29G12G10G02G04G05G30G25
  16225945.93846  13220720.68042  24326137.9144                   24326137.7304
   5031971.62546   3961432.04744  23146981.3914                   23146979.5044
 -34546281.78947 -26872269.66846  20945466.3524                   20945463.2194
 -35877885.99646 -27490094.56643  22710562.1174                   22710560.6994
 -50399776.44147 -38608094.30945  21246924.5944                   21246919.4924
 -49870979.34846 -38785173.48043  24496599.8284                   24496599.2504
 -33385337.29747 -25966367.93046  20161867.1254                   20161863.8404
 -14621744.29347 -11137947.66045  21485568.0394                   21485565.7734
 -14697039.47747 -11405047.08645  21584386.6334                   21584386.5514
 11  8 19  1 59 30.0000000  0  9G26G29G12G10G02G04G05G30G25
  16043593.15646  13078627.74243  24291436.3754                   24291436.6254
   4860625.69946   3827915.76644  23114374.9454                   23114373.7384
 -34592417.93048 -26908219.91446  20936687.0784                   20936684.0314
 -35870497.26246 -27484337.11743  22711968.5474                   22711966.7074
 -50453256.46947 -38649767.05545  21236747.0474                   21236742.2234
 -49881011.65646 -38792990.83643  24494690.4534                   24494690.1374
 -33469550.12947 -26031988.30146  20145841.8914                   20145839.6844
 -14715681.38747 -11211145.40245  21467692.0394                   21467690.2274
 -14808979.92247 -11492273.41845  21563085.2274                   21563085.2704
 11  8 19  2  0  0.0000000  0  9G26G29G12G10G02G04G05G30G25
  15861182.94546  12936489.98043  24256725.5864                   24256724.9184
   4689300.62546   3694415.74244  23081772.5864                   23081771.7544
 -34638022.12947 -26943755.64845  20928008.8984                   20928005.8364
 -35862822.03546 -27478356.42243  22713428.7584                   22713427.2234
 -50506625.16047 -38691353.03545  21226591.3284                   21226586.2544
 -49891095.69945 -38800848.56642  24492770.9534                   24492771.7384
 -33553184.79747 -26097158.16846  20129926.6254                   20129924.5164
 -14808999.48047 -11283860.80945  21449933.9924                   21449932.1724
 -14920336.23847 -11579044.58645  21541894.9064                   21541894.8164
 11  8 19  2  0 30.0000000  0  9G26G29G12G10G02G04G05G30G25
  17254145.93446  14021915.78943  24521796.6804                   24521796.7894
   6093424.70846   4788538.45644  23348969.2504                   23348967.2584
 -33107673.41848 -25751276.13745  21219224.4614                   21219221.3014
 -34279442.53246 -26244554.22543  23014736.7114                   23014734.2894
 -48984459.97347 -37505250.28145  21516249.7894                   21516244.8134
 -48325810.05546 -37581145.50842  24790635.8364                   24790635.3444
 -32060817.91047 -24934274.86746  20413914.9924                   20413912.2274
 -13326274.55947 -10128490.75045  21732087.2114                   21732085.0204
 -13455682.83647 -10437756.23445  21820609.1644                   21820609.0944
 11  8 19  2  1  0.0000000  0  9G26G29G12G10G02G04G05G30G25
  17071631.00446  13879696.44142  24487066.0474                   24487065.4064
   5922146.03146   4655074.60944  23316375.6954                   23316373.6094
 -33152218.34847 -25785986.47346  21210747.6254                   21210744.5354
 -34271202.53946 -26238133.48843  23016304.8834                   23016302.3634
 -49037606.91447 -37546663.46545  21506136.0554                   21506131.6684
 -48335997.17646 -37589083.50042  24788696.7734                   24788696.8444
 -32143297.60247 -24998544.75046  20398219.4454                   20398216.8484
 -13418354.66447 -10200241.49645  21714565.2114                   21714563.2074
 -13565868.23447 -10523614.99645  21799641.4694                   21799641.4694
 11  8 19  2  1 30.0000000  0  8G26G29G12G10G02G05G30G25
  16889068.69546  13737440.16042  24452325.2504                   24452325.3554
   5750893.09846   4521630.81344  23283787.1954                   23283785.2424
 -33196236.18447 -25820286.08646  21202371.6724                   21202368.2584
 -34262684.39146 -26231496.00843  23017925.5634                   23017923.1724
 -49090643.52047 -37587990.68745  21496043.5944                   21496038.9884
 -32225201.14847 -25062365.69146  20382633.9774                   20382631.0904
 -13509816.18747 -10271510.22345  21697160.5394                   21697158.7194
 -13675467.14847 -10609016.74245  21778785.5234                   21778785.6134
 11  8 19  2  2  0.0000000  0  8G26G29G12G10G02G05G30G25
  16706460.95345  13595148.56642  24417576.6024                   24417576.5594
   5579666.05946   4388207.21944  23251203.6024                   23251202.4344
 -33239729.68747 -25854177.12546  21194095.0234                   21194092.0434
 -34253891.84046 -26224644.68743  23019598.6414                   23019596.5864
 -49143571.32847 -37629233.12945  21485972.0554                   21485967.2274
 -32306530.28947 -25125739.03546  20367157.3204                   20367154.5084
 -13600660.40647 -10342297.93045  21679873.8364                   21679871.9064
 -13784480.03147 -10693961.84445  21758041.3284                   21758041.3054
 11  8 19  2  2 30.0000000  0  8G26G29G12G10G02G05G30G25
  16523812.21146  13452824.93042  24382819.1644                   24382819.4344
   5408467.72346   4254805.97744  23218625.5234                   23218623.8484
 -33282699.54347 -25887660.12545  21185918.2664                   21185915.1454
 -34244826.54746 -26217580.84043  23021323.9694                   23021321.8954
 -49196389.22347 -37670389.93045  21475920.7194                   21475916.4264
 -32387284.59447 -25188664.45346  20351790.4224                   20351787.3014
 -13690886.25447 -10412603.78545  21662705.0314                   21662702.1214
 -13892904.92247 -10778448.77045  21737408.5634                   21737408.6134
 11  8 19  2  3  0.0000000  0  8G26G29G12G10G02G05G30G25
  16341127.29346  13310473.15242  24348056.0164                   24348055.4414
   5237301.49246   4121429.75044  23186053.1334                   23186052.4734
 -33325145.57447 -25920734.95745  21177840.6094                   21177838.1454
 -34235489.53146 -26210305.28143  23023100.6564                   23023098.2384
 -49249096.20347 -37711460.29345  21465891.0704                   21465886.5084
 -32467463.16047 -25251141.24246  20336532.6334                   20336530.0744
 -13780492.68747 -10482426.98845  21645652.9384                   21645650.9494
 -14000739.77747 -10862475.91845  21716888.1254                   21716888.1604
 11  8 19  2  3 30.0000000  0  8G26G29G12G10G02G05G30G25
  16158411.30546  13168097.17642  24313285.7584                   24313285.4414
   5066170.85246   3988081.25044  23153488.6954                   23153487.1294
 -33367068.34047 -25953402.03545  21169863.5944                   21169860.2544
 -34225881.42246 -26202818.42644  23024928.3524                   23024926.8634
 -49301690.56247 -37752442.89845  21455882.6024                   21455877.9344
 -32547064.89847 -25313168.55946  20321385.2974                   20321382.2974
 -13869477.90647 -10551766.12945  21628719.1724                   21628717.2814
 -14107981.93447 -10946041.22345  21696480.6254                   21696481.1254
 11  8 19  2  4  0.0000000  0  8G26G29G12G10G02G05G30G25
  15975666.69146  13025698.83242  24278510.9144                   24278510.3364
   4895076.61346   3854761.12144  23120930.4844                   23120929.0554
 -33408470.04347 -25985663.10545  21161984.5784                   21161982.0004
 -34216006.05546 -26195123.36343  23026807.6804                   23026805.7624
 -49354173.59847 -37793338.77045  21445895.6804                   21445890.6564
 -32626091.17247 -25374747.45346  20306346.9534                   20306344.2464
 -13957843.24647 -10620622.23045  21611903.9924                   21611901.7624
 -14214631.80947 -11029145.00445  21676185.9534                   21676185.4804
 11  8 19  2  4 30.0000000  0  8G26G29G12G10G02G05G30G25
  15792896.87946  12883280.91842  24243730.9144                   24243729.3284
   4724020.30546   3721470.54344  23088379.8134                   23088377.9734
 -33449351.96947 -26017519.16045  21154205.1254                   21154201.8874
 -34205865.94146 -26187221.98843  23028737.7504                   23028735.5594
 -49406545.47747 -37834148.03145  21435929.5864                   21435924.7934
 -32704542.99247 -25435878.72746  20291418.3674                   20291414.9494
 -14045588.91047 -10688995.46945  21595206.5004                   21595204.5084
 -14320688.70747 -11111786.72345  21656004.4304                   21656004.1724
 11  8 19  2  5  0.0000000  0  8G26G29G12G10G02G05G30G25
  15610104.25046  12740845.16843  24208946.0704                   24208944.7734
   4553002.48446   3588209.93844  23055835.8364                   23055834.1884
 -33489717.72348 -26048972.98845  21146523.8054                   21146520.3364
 -34195465.05146 -26179117.42243  23030716.6024                   23030714.4774
 -49458807.33647 -37874871.55545  21425984.5084                   21425979.8984
 -32782422.43448 -25496564.00046  20276597.9224                   20276595.3484
 -14132716.39847 -10756887.01245  21578626.7424                   21578624.3984
 -14426153.16847 -11193966.80545  21635934.8364                   21635934.9384
 11  8 19  2  5 30.0000000  0  8G26G29G12G10G02G05G30G25
  15427289.61346  12598392.30143  24174157.4454                   24174156.8404
   4382022.82047   3454979.08244  23023299.1724                   23023297.8554
 -33529570.89847 -26080027.41845  21138940.1024                   21138936.8874
 -34184808.58246 -26170813.69943  23032744.3594                   23032742.5204
 -49510961.84447 -37915511.41445  21416060.0944                   21416055.2504
 -32859732.29347 -25556805.42246  20261886.6024                   20261883.8404
 -14219228.41447 -10824298.97345  21562164.2814                   21562161.5824
 -14531027.00447 -11275686.65245  21615978.2504                   21615978.0314
 11  8 19  2  6  0.0000000  0  8G26G29G12G10G02G05G30G25
  15244453.76646  12455922.87543  24139365.9454                   24139364.3244
   4211080.48047   3321777.30144  22990770.2344                   22990768.4844
 -33568916.39847 -26110686.25845  21131452.8284                   21131449.6374
 -34173901.71546 -26162314.85543  23034820.3754                   23034818.7034
 -49563011.98847 -37956069.96145  21406154.9304                   21406150.1454
 -32936476.05548 -25616605.73846  20247282.5394                   20247279.7734
 -14305127.83647 -10891233.58245  21545818.0634                   21545816.0434
 -14635312.15247 -11356947.78545  21596133.2344                   21596133.0634
 11  8 19  2  6 30.0000000  0  8G26G29G12G10G02G05G30G25
  15061602.69546  12313441.62543  24104569.7274                   24104568.6844
   4040179.27047   3188607.55144  22958249.4224                   22958247.2584
 -33607753.34847 -26140948.82045  21124062.2114                   21124059.5314
 -34162744.83646 -26153621.19543  23036943.6564                   23036941.6684
 -49614955.43047 -37996545.35945  21396270.6254                   21396265.4844
 -33012652.44947 -25675963.94146  20232787.1174                   20232783.8094
 -14390412.85247 -10957689.42245  21529588.9384                   21529586.7584
 -14739005.84047 -11437748.04345  21576401.0164                   21576400.5314
 11  8 19  2  7  0.0000000  0  8G26G29G12G10G02G05G30G25
  14878738.31646  12170949.95343  24069771.9844                   24069770.5554
   3869320.01646   3055470.50044  22925735.1094                   22925733.7584
 -33646085.02747 -26170817.66445  21116768.1954                   21116764.9964
 -34151341.61346 -26144735.61743  23039113.4774                   23039111.2584
 -49666793.66447 -38036938.77745  21386405.9614                   21386401.1214
 -33088263.44547 -25734881.57446  20218398.4534                   20218395.4734
 -14475085.10547 -11023667.79345  21513476.1954                   21513474.0784
 -14842108.86747 -11518088.03545  21556780.9844                   21556780.7624
 11  8 19  2  7 30.0000000  0  8G26G29G12G10G02G05G30G25
  14695862.82446  12028449.64843  24034971.9144                   24034970.4614
   3698502.85946   2922366.22344  22893230.1334                   22893227.7734
 -33683914.34047 -26200295.05945  21109569.6334                   21109566.6484
 -34139696.18746 -26135661.27343  23041329.7194                   23041327.4574
 -49718528.25047 -38077251.43045  21376561.1954                   21376556.4224
 -33163311.18747 -25793360.30946  20204117.2344                   20204114.3054
 -14559146.39847 -11089170.10245  21497479.4304                   21497477.3794
 -14944621.99247 -11597968.35945  21537273.4844                   21537273.2894
 11  8 19  2  8  0.0000000  0  8G26G29G12G10G02G05G30G25
  14512979.96546  11885943.59043  24000169.4844                   24000168.7424
   3527730.17246   2789296.61344  22860732.7504                   22860731.1524
 -33721242.81647 -26229382.18745  21102466.2894                   21102463.2114
 -34127810.67646 -26126399.84843  23043591.3284                   23043589.4534
 -49770158.93447 -38117483.12145  21366736.4614                   21366731.4064
 -33237796.31648 -25851400.65246  20189943.1484                   20189940.2274
 -14642596.75047 -11154196.34045  21481599.5554                   21481598.0124
 -15046544.41447 -11677388.41045  21517878.3594                   21517877.7154
 11  8 19  2  8 30.0000000  0  8G26G29G12G10G02G05G30G25
  14330090.59046  11743432.48043  23965367.1414                   23965366.2704
   3357001.17246   2656261.04744  22828244.2034                   22828242.5944
 -33758075.05547 -26258082.64545  21095457.3444                   21095454.2344
 -34115690.23446 -26116955.36343  23045897.2814                   23045895.6134
 -49821688.24647 -38157635.83245  21356930.6094                   21356925.4224
 -33311722.05947 -25909005.10246  20175875.7114                   20175872.9964
 -14725439.31247 -11218748.98445  21465835.3914                   21465833.0004
 -15147878.28147 -11756349.84845  21498594.9224                   21498594.6454
 11  8 19  2  9  0.0000000  0  8G26G29G12G10G02G05G30G25
  14147200.34446  11600920.66443  23930565.0784                   23930563.1604
   3186319.55546   2523262.40244  22795764.4384                   22795762.9804
 -33794410.66447 -26286396.11345  21088542.0944                   21088540.0784
 -34103335.50846 -26107328.32843  23048249.0314                   23048246.9774
 -49873114.55947 -38197708.26245  21347144.4144                   21347139.7894
 -33385087.61347 -25966173.04746  20161914.5004                   20161911.5514
 -14807672.62547 -11282826.86345  21450187.2344                   21450184.8914
 -15248621.24247 -11834850.84445  21479424.4694                   21479424.1094
 11  8 19  2  9 30.0000000  0  8G26G29G12G10G02G05G30G25
  15539737.99646  12686015.00042  24195554.6884                   24195554.5984
   4591112.55946   3617906.32044  23063088.2504                   23063086.3164
 -32254831.20347 -25086723.81245  21381514.9774                   21381512.0554
 -32515330.20746 -24869921.61343  23350435.8524                   23350434.1764
 -48349016.69147 -37010099.51645  21637170.8364                   21637165.9964
 -31882472.27347 -24795303.94146  20447852.9774                   20447849.6954
 -13313875.03147 -10118828.73045  21734446.8054                   21734445.0204
 -13773350.03547 -10685288.84845  21760158.8914                   21760158.7274
 11  8 19  2 10  0.0000000  0  8G26G29G12G10G02G05G30G25
  15356855.23046  12543508.98042  24160754.3674                   24160753.3324
   4420530.41046   3484985.16844  23030627.2734                   23030625.3094
 -32290181.20347 -25114269.27745  21374788.2664                   21374785.2464
 -32502516.19546 -24859936.66443  23352874.4144                   23352872.3754
 -48400238.38747 -37050012.51645  21627423.2114                   21627418.8364
 -31954721.71947 -24851602.19146  20434104.3364                   20434101.2814
 -13394892.59047 -10181959.28945  21719029.9614                   21719027.7114
 -13872911.03547 -10762868.83245  21741213.6414                   21741213.0084
 11  8 19  2 10 30.0000000  0  8G26G29G12G10G02G05G30G25
  15173981.84046  12401010.30143  24125954.3444                   24125953.5274
   4250001.31647   3352105.35944  22998176.7344                   22998174.9574
 -32325040.17647 -25141432.12145  21368154.5864                   21368151.8714
 -32489475.66846 -24849775.24243  23355355.9304                   23355353.8754
 -48451357.31647 -37089845.46545  21617696.1564                   21617690.6094
 -32026413.55147 -24907465.94946  20420462.1024                   20420458.7544
 -13475302.59847 -10244616.41845  21703728.3674                   21703726.2034
 -13971879.87547 -10839987.38745  21722380.3444                   21722380.1764
 11  8 19  2 11  0.0000000  0  8G26G29G12G10G02G05G30G25
  14991121.67246  12258521.95343  24091157.3204                   24091156.3054
   4079527.26247   3219268.44544  22965736.8754                   22965734.6524
 -32359410.49647 -25168214.20745  21361614.5704                   21361611.2384
 -32476211.47346 -24839439.55143  23357879.6954                   23357878.2664
 -48502373.69147 -37129598.48845  21607987.5634                   21607983.4614
 -32097548.98847 -24962896.14846  20406924.8524                   20406922.0664
 -13555105.67247 -10306800.62545  21688542.6024                   21688540.1884
 -14070256.46147 -10916644.44945  21703659.6724                   21703659.2424
 11  8 19  2 11 30.0000000  0  8G26G29G12G10G02G05G30G25
  14808274.89546  12116043.98843  24056362.6804                   24056361.0044
   3909107.15647   3086473.57044  22933306.6254                   22933304.9734
 -32393296.89147 -25194619.19145  21355165.8914                   21355163.1524
 -32462729.27746 -24828933.98843  23360445.7034                   23360444.2814
 -48553290.95747 -37169274.28145  21598298.5004                   21598293.6994
 -32168132.23447 -25017896.07446  20393493.2894                   20393490.3364
 -13634305.59847 -10368514.83245  21673470.8364                   21673468.9454
 -14168043.43447 -10992842.07445  21685051.1174                   21685050.9734
 11  8 19  2 12  0.0000000  0  8G26G29G12G10G02G05G30G25
  14625444.91446  11973579.15243  24021571.2664                   24021569.8794
   3738742.52747   2953721.93444  22900886.9534                   22900885.6484
 -32426701.86747 -25220649.05145  21348809.4304                   21348806.0314
 -32449031.80946 -24818260.64143  23363052.1024                   23363050.3754
 -48604108.74647 -37208872.56245  21588628.2034                   21588623.7854
 -32238164.53147 -25072466.68746  20380166.7194                   20380163.9344
 -13712903.05547 -10429759.58245  21658514.6174                   21658512.4884
 -14265240.68447 -11068580.16845  21666555.6094                   21666555.1764
 11  8 19  2 12 30.0000000  0  8G26G29G12G10G02G05G30G25
  14442637.05546  11831131.52743  23986783.3754                   23986782.1884
   3568436.68047   2821016.11744  22868478.6564                   22868477.2774
 -32459625.72747 -25246304.02045  21342544.0944                   21342540.9104
 -32435119.93446 -24807420.21543  23365699.5474                   23365698.0084
 -48654825.64847 -37248392.23445  21578977.2034                   21578972.3054
 -32307645.21147 -25126607.45746  20366945.0784                   20366941.9924
 -13790897.34047 -10490534.34045  21643672.3834                   21643670.5744
 -14361846.43047 -11143857.36745  21648171.8524                   21648171.5164
 11  8 19  2 13  0.0000000  0  8G26G29G12G10G02G05G30G25
  14259853.36346  11688702.73043  23952001.0314                   23951999.5704
   3398190.54747   2688356.83244  22836082.2814                   22836080.7384
 -32492071.77747 -25271586.66045  21336369.3594                   21336366.4384
 -32420997.38346 -24796415.64143  23368386.8054                   23368384.9804
 -48705443.19947 -37287834.47345  21569344.9304                   21569340.1844
 -32376576.66047 -25180320.27346  20353827.4774                   20353824.7774
 -13868290.48047 -10550840.66845  21628945.1174                   21628943.3444
 -14457861.71547 -11218674.45745  21629900.4064                   21629900.3324
 11  8 19  2 13 30.0000000  0  8G26G29G12G10G02G05G30G25
  14077098.13346  11546296.12143  23917223.6174                   23917222.8984
   3228006.48047   2555745.93844  22803697.2034                   22803695.9104
 -32524041.28547 -25296497.98045  21330286.3674                   21330282.9454
 -32406666.37946 -24785248.64543  23371113.9384                   23371112.0704
 -48755960.79347 -37327198.82445  21559731.2344                   21559726.9734
 -32444959.37947 -25233605.50446  20340815.1174                   20340812.2114
 -13945082.53947 -10610678.62545  21614332.1094                   21614329.8954
 -14553285.84047 -11293030.88745  21611742.0084                   21611742.2544
 11  8 19  2 14  0.0000000  0  8G26G29G12G10G02G05G30G25
  13894372.84446  11403912.89543  23882452.5554                   23882451.4264
   3057884.88747   2423183.71144  22771324.1094                   22771323.1764
 -32555538.71547 -25321041.43745  21324292.4534                   21324289.1604
 -32392131.55946 -24773922.82443  23373880.4774                   23373877.8404
 -48806380.79747 -37366487.12945  21550137.0084                   21550132.2974
 -32512796.53147 -25286465.60546  20327906.1804                   20327903.1174
 -14021276.34447 -10670050.40245  21599832.8204                   21599830.9344
 -14648120.52347 -11366928.02345  21593695.7894                   21593695.2274
 11  8 19  2 14 30.0000000  0  8G26G29G12G10G02G05G30G25
  13711680.93446  11261555.64143  23847687.2194                   23847686.0044
   2887827.18447   2290671.30144  22738962.7274                   22738961.5314
 -32586566.11347 -25345218.64545  21318388.1644                   21318385.1174
 -32377395.74646 -24762440.35943  23376684.6644                   23376682.3754
 -48856703.34847 -37405699.49645  21540561.1414                   21540556.3284
 -32580089.56647 -25338901.73046  20315100.6174                   20315097.5354
 -14096873.00847 -10728956.88745  21585446.9844                   21585445.1644
 -14742366.01647 -11440366.03945  21575761.1484                   21575760.7974
 11  8 19  2 15  0.0000000  0  8G26G29G12G10G02G05G30G25
  13529026.62546  11119227.66443  23812928.3444                   23812927.4344
   2717835.77347   2158210.53944  22706614.6724                   22706613.1604
 -32617124.71147 -25369030.54745  21312572.6564                   21312569.5704
 -32362460.50846 -24750802.49643  23379526.6484                   23379524.2894
 -48906927.39547 -37444835.10245  21531004.1884                   21530998.8094
 -32646838.93047 -25390914.21946  20302398.3754                   20302395.5204
 -14171872.42247 -10787397.97745  21571175.3444                   21571173.2504
 -14836021.33247 -11513344.18745  21557939.1884                   21557938.9964
 11  8 19  2 15 30.0000000  0  8G26G29G12G10G02G05G30G25
  13346414.11346  10976932.22343  23778179.5634                   23778177.8634
   2547913.28947   2025803.51244  22674279.3054                   22674278.0204
 -32647216.35247 -25392478.59045  21306846.3834                   21306843.6334
 -32347328.00446 -24739010.94943  23382405.6484                   23382404.1644
 -48957052.80947 -37483893.85245  21521465.0634                   21521460.5594
 -32713045.27347 -25442503.57046  20289799.7584                   20289796.9924
 -14246275.23847 -10845374.18045  21557017.1174                   21557014.8634
 -14929086.04347 -11585862.12545  21540229.2114                   21540229.0274
 11  8 19  2 16  0.0000000  0  8G26G29G12G10G02G05G30G25
  13163847.96946  10834672.97743  23743437.4844                   23743436.5234
   2378062.52047   1893452.37144  22641957.7894                   22641956.1914
 -32676842.12947 -25415563.62945  21301208.9774                   21301206.1374
 -32331999.80546 -24727066.89543  23385322.1484                   23385320.7774
 -49007078.35947 -37522874.78545  21511945.5474                   21511940.9264
 -32778708.87947 -25493670.01246  20277304.5704                   20277301.4734
 -14320081.34847 -10902885.42645  21542972.2894                   21542970.3874
 -15021559.10247 -11657919.03545  21522632.5944                   21522632.2934
 11  8 19  2 16 30.0000000  0  8G26G29G12G10G02G05G30G25
  12981327.91446  10692449.62543  23708705.0784                   23708704.0824
   2208281.75047   1761155.76244  22609649.3204                   22609648.1844
 -32706007.75047 -25438290.09445  21295659.0004                   21295655.8524
 -32316482.01246 -24714975.09443  23388275.5394                   23388273.6054
 -49057008.08647 -37561781.03145  21502443.9924                   21502439.6134
 -32843834.85247 -25544417.51246  20264911.5554                   20264908.3204
 -14393295.38347 -10959935.31645  21529040.1334                   21529038.1374
 -15113444.23847 -11729517.82845  21505147.2424                   21505146.9774
 11  8 19  2 17  0.0000000  0  8G26G29G12G10G02G05G30G25
  12798858.95746  10550266.00043  23673981.9534                   23673981.0594
   2038574.38747   1628916.37144  22577355.6254                   22577353.3984
 -32734714.43047 -25460658.94945  21290196.3984                   21290193.2774
 -32300776.20746 -24702736.82443  23391264.4774                   23391262.8364
 -49106840.63347 -37600611.56245  21492961.2274                   21492956.6884
 -32908423.04747 -25594745.96546  20252620.4614                   20252617.9414
 -14465917.07847 -11016523.65245  21515220.9844                   21515218.5984
 -15204740.19147 -11800657.52345  21487774.5634                   21487774.4774
 11  8 19  2 17 30.0000000  0  8G26G29G12G10G02G05G30G25
  12616443.27046  10408124.00043  23639270.0944                   23639268.4104
   1868940.92647   1496734.55144  22545075.2734                   22545073.6524
 -32762965.48847 -25482672.78145  21284820.2814                   21284817.4184
 -32284886.12946 -24690354.95343  23394287.9454                   23394286.3134
 -49156577.93447 -37639367.86745  21483496.3674                   21483492.1564
 -32972476.04347 -25644657.36746  20240431.9614                   20240428.8014
 -14537948.79347 -11072652.26245  21501513.3204                   21501511.3164
 -15295448.43447 -11871339.25445  21470512.8914                   21470513.0904
 11  8 19  2 18  0.0000000  0  8G26G29G12G10G02G05G30G25
  12434085.24246  10266026.91043  23604569.3674                   23604566.8404
   1699384.48847   1364612.73844  22512809.5634                   22512807.9414
 -32790762.37147 -25504332.68445  21279530.4144                   21279527.9494
 -32268813.44546 -24677830.82443  23397346.4454                   23397344.7304
 -49206218.37547 -37678048.70345  21474050.5554                   21474046.1644
 -33035994.34047 -25694152.12946  20228344.9924                   20228341.7384
 -14609390.57047 -11128321.18045  21487918.5164                   21487916.3954
 -15385568.03547 -11941562.30945  21453364.6174                   21453363.5394
 11  8 19  2 18 30.0000000  0  8G26G29G12G10G02G05G30G25
  13827213.32446  11351581.31343  23869671.7664                   23869670.5824
   3105331.06647   2460155.62944  22780352.2894                   22780350.6094
 -31242687.78147 -24298040.79745  21574119.5554                   21574116.7544
 -30677142.97746 -23437568.15643  23700231.3134                   23700229.5904
 -47680341.99247 -36489054.09445  21764415.1254                   21764410.4614
 -31523558.42647 -24515630.62546  20516151.6334                   20516148.7384
 -13104822.69947  -9955930.63345  21774228.3054                   21774226.1764
 -13899677.65647 -10783725.65245  21736119.0554                   21736118.8204
 11  8 19  2 19  0.0000000  0  9G26G29G12G10G02G15G05G30G25
  13644978.81646  11209580.45743  23834993.9614                   23834991.8444
   2935931.31347   2328155.93044  22748116.6884                   22748114.4264
 -31269585.35247 -24318999.94945  21569000.8204                   21568998.2304
 -30660715.84846 -23424767.78943  23703356.8054                   23703355.5904
 -47729792.09847 -36527586.64545  21755005.0164                   21755000.4844
  24990116.22355  19511193.83653  24741402.1644                   24741401.5234
 -31586014.07447 -24564297.34846  20504266.7504                   20504263.7304
 -13175090.91447 -10010685.09845  21760857.0784                   21760854.6174
 -13988623.46547 -10853034.07445  21719193.4924                   21719193.2464
 11  8 19  2 19 30.0000000  0  9G26G29G12G10G02G15G05G30G25
  13462807.09846  11067628.51243  23800328.0084                   23800326.1484
   2766608.57847   2196216.23044  22715895.3284                   22715893.7274
 -31296041.62147 -24339615.22345  21563966.2664                   21563963.8164
 -30644119.93046 -23411835.91443  23706515.3834                   23706513.3874
 -47779151.64547 -36566048.62145  21745612.4454                   21745607.6454
  24809474.30545  19370434.07443  24707026.9224                   24707026.7154
 -31647945.22747 -24612555.36746  20492481.4064                   20492478.6764
 -13244778.53547 -10064987.14145  21747595.4844                   21747593.3674
 -14076987.09847 -10921888.85245  21702378.5554                   21702378.3364
 11  8 19  2 20  0.0000000  0  9G26G29G12G10G02G15G05G30G25
  13280702.28946  10925728.71543  23765674.5474                   23765673.0784
   2597365.18847   2064338.35944  22683689.3134                   22683687.2194
 -31322058.35547 -24359887.99645  21559015.7114                   21559012.8594
 -30627356.92646 -23398773.82842  23709705.4454                   23709703.5274
 -47828420.30147 -36604439.76645  21736236.4304                   21736231.9574
  24628708.22345  19229577.62943  24672627.2114                   24672628.5354
 -31709352.51647 -24660405.19146  20480796.3134                   20480792.8834
 -13313886.10547 -10118837.21945  21734445.3594                   21734442.9304
 -14164768.20747 -10990289.72745  21685674.3594                   21685674.1254
 11  8 19  2 20 30.0000000  0  9G26G29G12G10G02G15G05G30G25
  13098665.58646  10783881.97743  23731033.8364                   23731032.4534
   2428200.46147   1932521.77344  22651498.5704                   22651496.0204
 -31347640.17647 -24379821.87945  21554147.5864                   21554144.9454
 -30610432.14846 -23385585.71143  23712926.6644                   23712924.5744
 -47877600.17247 -36642761.73845  21726877.8524                   21726873.1844
  24447818.18445  19088624.49643  24638206.3284                   24638205.8364
 -31770239.84047 -24707849.84846  20469209.5314                   20469206.6724
 -13382417.35947 -10172238.20345  21721403.9924                   21721401.5984
 -14251969.58248 -11058238.86345  21669080.7584                   21669080.1454
 11  8 19  2 21  0.0000000  0  9G26G29G12G10G02G15G05G30G25
  12916702.68046  10642092.77043  23696406.9064                   23696405.7234
   2259119.03547   1800770.06344  22619323.2424                   22619320.9774
 -31372786.81247 -24399416.65645  21549362.1954                   21549359.5594
 -30593345.48446 -23372271.41843  23716178.2664                   23716176.1454
 -47926689.07047 -36681012.81645  21717536.6024                   21717532.2114
  24266809.15645  18947578.64543  24603759.6024                   24603760.7154
 -31830606.48847 -24754888.77346  20457722.3284                   20457719.3754
 -13450371.07447 -10225189.16045  21708472.4614                   21708470.1914
 -14338589.02747 -11125734.54345  21652597.8524                   21652596.9494
 11  8 19  2 21 30.0000000  0  9G26G29G12G10G02G15G05G30G25
  12734817.14546  10500363.83243  23661795.6564                   23661793.8364
   2090122.47747   1669084.50844  22587163.7894                   22587161.9064
 -31397501.27747 -24418674.68045  21544658.8834                   21544656.6414
 -30576099.83246 -23358833.25443  23719459.5394                   23719457.4614
 -47975687.24647 -36719193.22345  21708212.4534                   21708207.9304
  24085683.33645  18806441.80142  24569292.8284                   24569293.3634
 -31890454.16847 -24801523.30946  20446333.7114                   20446330.7304
 -13517748.97747 -10277691.44145  21695650.5864                   21695649.0594
 -14424627.32847 -11192777.39545  21636225.1724                   21636224.3364
 11  8 19  2 22  0.0000000  0  9G26G29G12G10G02G15G05G30G25
  12553013.22746  10358698.46143  23627199.2734                   23627197.8484
   1921213.65247   1537467.30144  22555022.0084                   22555020.0434
 -31421784.90647 -24437596.97745  21540038.3054                   21540035.4144
 -30558697.21946 -23345272.78143  23722770.8834                   23722769.5634
 -48024594.13347 -36757302.48845  21698906.0314                   21698901.4144
  23904444.12945  18665216.53142  24534804.6254                   24534804.8554
 -31949783.71947 -24847754.12146  20435043.5164                   20435040.6214
 -13584551.57447 -10329745.41845  21682939.0314                   21682936.6884
 -14510084.04347 -11259367.05145  21619962.8984                   21619962.5554
 11  8 19  2 22 30.0000000  0  9G26G29G12G10G02G15G05G30G25
  12371295.16446  10217100.03943  23592619.4224                   23592618.1844
   1752395.34447   1405920.62144  22522896.6484                   22522894.5904
 -31445639.51647 -24456184.98045  21535499.1804                   21535496.0164
 -30541139.63746 -23331591.55143  23726111.9534                   23726110.4414
 -48073409.07447 -36795340.10945  21689617.2664                   21689612.2974
  23723094.87946  18523905.55542  24500294.9774                   24500294.6684
 -32008595.77047 -24893581.68446  20423852.5634                   20423848.7774
 -13650779.37147 -10381351.51245  21670336.2734                   21670334.2154
 -14594958.80547 -11325503.24245  21603811.9844                   21603811.7304
 11  8 19  2 23  0.0000000  0  9G26G29G12G10G02G15G05G30G25
  12189665.58646  10075570.53943  23558056.3364                   23558054.9884
   1583668.18447   1274444.97344  22490788.9454                   22490786.7664
 -31469068.70347 -24474441.50045  21531040.7814                   21531037.8014
 -30523430.50446 -23317792.21943  23729482.0234                   23729480.6214
 -48122133.27747 -36833307.01645  21680344.6564                   21680340.2344
  23541637.07846  18382509.97343  24465765.3754                   24465763.8284
 -32066893.07847 -24939008.14546  20412758.3284                   20412755.1604
 -13716434.98847 -10432511.74645  21657842.5474                   21657840.3524
 -14679253.19947 -11391187.19545  21587771.4144                   21587770.8594
 11  8 19  2 23 30.0000000  0  9G26G29G12G10G02G15G05G30G25
  12008130.51646   9934114.66443  23523511.6334                   23523509.8594
   1415036.55947   1143043.73844  22458699.7114                   22458697.2274
 -31492072.78547 -24492366.76245  21526663.4224                   21526660.2154
 -30505570.12746 -23303875.05643  23732880.8914                   23732878.8204
 -48170764.14147 -36871201.19945  21671090.8594                   21671085.8594
  23360075.89546  18241033.84442  24431215.0004                   24431213.5124
 -32124675.21547 -24984033.17646  20401763.0554                   20401759.8594
 -13781517.46547 -10483225.38745  21645457.7664                   21645455.3484
 -14762965.42647 -11456417.51245  21571841.5784                   21571840.9884
 11  8 19  2 24  0.0000000  0  9G26G29G12G10G02G15G05G30G25
  11826692.18446   9792734.18043  23488984.7344                   23488983.6054
   1246501.20747   1011717.52744  22426627.7894                   22426626.3874
 -31514655.14847 -24509963.40245  21522365.7194                   21522362.8634
 -30487562.43446 -23289843.09443  23736306.7894                   23736306.2384
 -48219303.07047 -36909023.70745  21661854.1414                   21661849.4384
  23178412.80146  18099478.28943  24396645.3134                   24396644.6174
 -32181944.96547 -25028658.95346  20390864.8524                   20390861.8634
 -13846029.39547 -10533494.41845  21633181.5944                   21633179.0514
 -14846097.07448 -11521195.43045  21556021.8524                   21556021.3554
 11  8 19  2 24 30.0000000  0  9G26G29G12G10G02G15G05G30G25
  11645354.00446   9651431.76643  23454477.0554                   23454476.3054
   1078064.04347    880467.80944  22394575.3204                   22394573.4384
 -31536818.51647 -24527233.55945  21518148.4064                   21518145.2734
 -30469410.27746 -23275698.56643  23739761.5704                   23739760.6374
 -48267750.37947 -36946774.84445  21652634.7894                   21652629.9924
  22996649.95046  17957845.02643  24362056.3284                   24362055.7584
 -32238703.91447 -25072886.68746  20380063.3444                   20380060.9884
 -13909972.58647 -10583320.29745  21621012.8594                   21621011.3444
 -14928649.04748 -11585521.64845  21540312.2734                   21540312.6294
 11  8 19  2 25  0.0000000  0  9G26G29G12G10G02G15G05G30G25
  11464119.77046   9510210.32443  23419989.4844                   23419988.7034
    909727.31347    749296.36745  22362541.6174                   22362540.2584
 -31558565.14547 -24544178.98845  21514009.6484                   21514007.1254
 -30451115.38746 -23261442.79342  23743243.4614                   23743241.6684
 -48316105.62547 -36984454.23445  21643433.4144                   21643428.3524
  22814790.36346  17816136.39143  24327450.3524                   24327449.2234
 -32294953.25447 -25116717.34046  20369359.8444                   20369356.8674
 -13973348.02347 -10632703.76645  21608953.4614                   21608951.4694
 -15010621.37547 -11649396.19545  21524713.5944                   21524713.2734
 11  8 19  2 25 30.0000000  0  9G26G29G12G10G02G15G05G30G25
  11282993.34446   9369072.89143  23385521.6414                   23385520.8094
    741493.16447    618204.85244  22330528.3054                   22330526.1214
 -31579897.79747 -24560801.83645  21509950.4844                   21509947.9494
 -30432680.69146 -23247078.10943  23746751.7504                   23746749.1994
 -48364368.95747 -37022062.00845  21634249.1254                   21634243.4694
  22632836.79746  17674354.52743  24292825.9694                   24292824.4964
 -32350695.15247 -25160152.57046  20358752.6024                   20358749.7854
 -14036157.35547 -10681646.10245  21597001.4454                   21596999.1604
 -15092014.81247 -11712819.64145  21509225.1564                   21509225.2114
 11  8 19  2 26  0.0000000  0  9G26G29G12G10G02G15G05G30G25
  11101977.80946   9228021.89543  23351076.3834                   23351074.5044
    573363.35247    487194.63745  22298533.7734                   22298531.9734
 -31600819.35947 -24577104.35545  21505969.3444                   21505966.5664
 -30414109.00846 -23232606.69143  23750285.4224                   23750283.8524
 -48412540.74247 -37059598.44545  21625082.0474                   21625077.7114
  22450791.69545  17532501.35243  24258183.1954                   24258182.5514
 -32405931.49647 -25203193.86746  20348241.5314                   20348238.4344
 -14098402.51647 -10730148.82845  21585156.7344                   21585154.6604
 -15172830.26647 -11775792.72745  21493846.7344                   21493846.3284
 11  8 19  2 26 30.0000000  0  9G26G29G12G10G02G15G05G30G25
  10921074.59046   9087058.38343  23316651.5784                   23316650.2344
    405337.19947    356265.19945  22266559.3524                   22266557.6174
 -31621334.52747 -24593090.20745  21502065.4064                   21502062.5354
 -30395405.27746 -23218032.32043  23753844.7894                   23753842.5474
 -48460623.41047 -37097065.43745  21615932.6644                   21615928.0664
  22268655.28945  17390577.02043  24223523.0004                   24223522.7274
 -32460666.20747 -25245844.28146  20337825.9924                   20337822.7234
 -14160087.32047 -10778214.91045  21573417.8204                   21573416.2544
 -15253070.75447 -11838317.77345  21478577.5004                   21478577.1214
 11  8 19  2 27  0.0000000  0  9G26G29G12G10G02G15G05G30G25
  10740289.43446   8946186.88343  23282249.6644                   23282247.8284
    237419.02047    225419.90645  22234606.0004                   22234603.6844
 -31641443.80947 -24608759.78545  21498239.0394                   21498235.9304
 -30376569.97746 -23203355.45743  23757429.1334                   23757426.8634
 -48508614.60547 -37134461.15245  21606800.0704                   21606795.3674
  22086432.24645  17248585.20742  24188846.4144                   24188846.8404
 -32514898.90647 -25288103.52046  20327505.4304                   20327502.5124
 -14221211.27047 -10825843.95745  21561786.6254                   21561784.3014
 -15332734.77347 -11900393.61745  21463417.8594                   21463417.4774
 11  8 19  2 27 30.0000000  0  9G26G29G12G10G02G15G05G30G25
  12135051.14546  10033014.24243  23547663.3134                   23547661.8914
   1645035.77347   1322264.18844  22502466.4064                   22502464.4264
 -30085729.89847 -23396515.18745  21794281.2114                   21794278.1684
 -28782187.32846 -21960979.36742  24060830.4064                   24060828.5044
 -46981094.06247 -35944185.37945  21897477.3914
  21897472.8054   23479550.46945  18334132.05943  24453948.0084   24453949.1134
 -30993210.83647 -24102372.54746  20617072.6644                   20617070.5234
 -12706354.89547  -9645436.38745  21850053.9534                   21850051.9614
 -13836401.34847 -10734419.50445  21748160.3204                   21748160.4844
 11  8 19  2 28  0.0000000  0  9G26G29G12G10G02G15G05G30G25
  11954511.53946   9892334.04343  23513308.0234                   23513306.4574
   1477338.64547   1191591.15644  22470554.6094                   22470552.6844
 -30105035.93747 -23411558.86745  21790607.6804                   21790604.3404
 -28763097.57846 -21946104.19942  24064462.8594                   24064460.3674
 -47028903.99247 -35981439.85245  21888379.0474
  21888374.7074   23297161.15246  18192010.68443  24419241.7734   24419241.1604
 -31046446.33247 -24143854.73046  20606942.6334                   20606939.6454
 -12766363.34847  -9692196.21945  21838634.2894                   21838633.2814
 -13914915.90248 -10795599.66445  21733220.0634                   21733219.3674
 11  8 19  2 28 30.0000000  0  9G26G29G12G10G02G15G05G30G25
  11774100.57446   9751754.14143  23478976.8594                   23478974.8834
   1309755.26647   1061006.78145  22438664.5004                   22438662.5704
 -30123944.35947 -23426292.71145  21787009.3914                   21787006.3204
 -28743884.20746 -21931132.72743  24068117.2814                   24068116.4184
 -47076622.87547 -36018623.37145  21879298.7344
  21879293.8554   23114692.93446  18049827.81643  24384518.2894   24384518.0084
 -31099185.65247 -24184950.28946  20596906.9614                   20596903.9614
 -12825816.29347  -9738523.18045  21827321.5704                   21827319.6254
 -13992856.57047 -10856332.63345  21718388.0394                   21718388.0234
 11  8 19  2 29  0.0000000  0  9G26G29G12G10G02G15G05G30G25
  11593821.71146   9611277.13743  23444670.8284                   23444669.1994
   1142287.50847    930512.49244  22406796.4844                   22406793.9774
 -30142458.02347 -23440718.94945  21783486.1254                   21783483.5234
 -28724549.85946 -21916067.00843  24071797.8284                   24071795.7774
 -47124250.76247 -36055735.98845  21870235.5164
  21870230.6134   22932148.58246  17907585.56643  24349781.1724   24349780.6844
 -31151430.78147 -24225660.76646  20586964.9534                   20586961.9494
 -12884715.54347  -9784418.69145  21816113.1334                   21816111.2894
 -14070224.25447 -10916619.12146  21703665.6094                   21703664.9924
 11  8 19  2 29 30.0000000  0  9G26G29G12G10G02G15G05G30G25
  11413679.45346   9470906.58243  23410390.4694                   23410388.8914
    974938.50047    800110.75845  22374951.0314                   22374949.0084
 -30160578.10947 -23454838.50845  21780038.3674                   21780035.3364
 -28705095.93746 -21900908.07042  24075499.8834                   24075497.9024
 -47171786.47747 -36092776.78945  21861190.2504
  21861184.6214   22749531.91046  17765287.03143  24315030.2194   24315030.1174
 -31203182.41847 -24265986.69946  20577116.8204                   20577113.7384
 -12943061.75847  -9829883.26645  21805010.2114                   21805008.2424
 -14147018.75447 -10976458.97345  21689052.3364                   21689052.0744
 11  8 19  2 30  0.0000000  0  9G26G29G12G10G02G15G05G30G25
  11233677.11746   9330645.06643  23376137.5164                   23376136.2074
    807709.75047    669802.73045  22343128.5944                   22343126.2304
 -30178308.38747 -23468654.32845  21776664.1884                   21776661.1914
 -28685525.73846 -21885658.53942  24079223.3594                   24079222.0824
 -47219231.16047 -36129746.66045  21852161.3364
  21852156.5944   22566844.88346  17622933.60243  24280266.5784   24280265.6804
 -31254443.20747 -24305930.15246  20567362.3134                   20567358.9304
 -13000857.41047  -9874918.82445  21794012.4144                   21794010.3754
 -14223241.62547 -11035853.40645  21674547.5084                   21674547.0904
 11  8 19  2 30 30.0000000  0  9G26G29G12G10G02G15G05G30G25
  11053815.69546   9190493.37143  23341910.6884                   23341908.6564
    640600.91447    539588.14845  22311328.3674                   22311326.4614
 -30195653.58647 -23482170.08245  21773363.8134                   21773361.2504
 -28665843.90246 -21870322.04342  24082968.9924                   24082967.2934
 -47266587.02047 -36166647.32445  21843149.6334
  21843144.6054   22384087.72746  17480525.52343  24245488.4614   24245487.3954
 -31305217.06647 -24345494.18446  20557699.9534                   20557697.0664
 -13058106.59447  -9919528.57045  21783118.1484                   21783116.3794
 -14298896.00847 -11094804.85545  21660150.7424                   21660150.4144
 11  8 19  2 31  0.0000000  0  9G26G29G12G10G02G15G05G30G25
  10874101.25846   9050456.18843  23307712.0004                   23307710.5554
    473616.20747    409470.30145  22279551.9224                   22279550.1804
 -30212614.06247 -23495386.05545  21770135.9694                   21770132.8914
 -28646050.91046 -21854898.89542  24086735.9534                   24086733.9104
 -47313851.76647 -36203476.99245  21834155.6094
  21834150.7234   22201265.46946  17338066.70743  24210698.1174   24210697.4384
 -31355503.78947 -24384678.61346  20548130.8444                   20548127.9574
 -13114808.85947  -9963712.13345  21772327.9614                   21772325.9804
 -14373980.60247 -11153312.31245  21645862.3364                   21645862.1134
 11  8 19  2 31 30.0000000  0  9G26G29G12G10G02G15G05G30G25
  10694535.46946   8910534.82043  23273542.1254                   23273540.8634
    306755.89847    279449.38745  22247799.8284                   22247797.5354
 -30229194.46947 -23508305.85945  21766980.6254                   21766977.9534
 -28626151.28146 -21839392.68743  24090522.0864                   24090520.8364
 -47361026.97347 -36240236.89545  21825178.6174
  21825173.6374   22018379.01646  17195557.91442  24175896.8444   24175895.3554
 -31405307.04747 -24423486.32846  20538653.9144                   20538650.5594
 -13170968.02047 -10007472.51245  21761641.1644                   21761639.0944
 -14448498.26247 -11211378.01245  21631682.3834                   21631681.7934
 11  8 19  2 32  0.0000000  0  9G26G29G12G10G02G15G05G30G25
  10515125.24646   8770734.67243  23239402.8754                   23239399.6254
    140025.12547    149529.40245  22216072.1024                   22216069.5864
 -30245394.43047 -23520929.21945  21763898.2974                   21763895.5394
 -28606144.00846 -21823802.60943  24094329.3674                   24094328.5314
 -47408109.57847 -36276924.63345  21816219.2034
  21816213.9924   21835434.02046  17053003.45343  24141082.4384   24141081.9494
 -31454625.91047 -24461916.59446  20529268.4694                   20529265.6024
 -13226582.78147 -10050808.69145  21751058.2344                   21751056.3054
 -14522446.75047 -11269000.19545  21617610.4844                   21617609.8984
 11  8 19  2 32 30.0000000  0  9G26G29G12G10G02G15G05G30G25
  10335872.10246   8631056.94143  23205291.3754                   23205288.5594
    -26575.57047     19710.77345  22184368.7194                   22184366.6054
 -30261218.79347 -23533259.89845  21760886.9924                   21760884.1414
 -28586033.24246 -21808131.84842  24098156.0634                   24098155.1134
 -47455101.70747 -36313541.85245  21807276.5554
  21807271.4414   21652431.62546  16910404.26642  24106258.8524   24106257.6214
 -31503464.15647 -24499972.35246  20519975.0554                   20519972.0904
 -13281656.93447 -10093723.60245  21740578.0084                   21740575.7304
 -14595829.00047 -11326181.15645  21603646.2344                   21603645.4414
 11  8 19  2 33  0.0000000  0  9G26G29G12G10G02G15G05G30G25
  10156780.32446   8491504.94543  23171210.8674                   23171208.6524
   -193044.03547   -110004.83245  22152690.4924                   22152688.5124
 -30276669.61747 -23545299.51245  21757946.5394                   21757943.8054
 -28565821.39546 -21792382.38742  24102002.8364                   24102002.0084
 -47502002.89547 -36350088.21945  21798351.4844
  21798346.5394   21469374.67646  16767762.56343  24071425.0474   24071423.4064
 -31551823.07047 -24537654.60946  20510772.5704                   20510769.4264
 -13336191.96147 -10136218.42645  21730200.5004                   21730198.0514
 -14668645.63347 -11382921.37545  21589789.8524                   21589789.1054
 11  8 19  2 33 30.0000000  0  9G26G29G12G10G02G15G05G30G25
   9977853.88346   8352081.77043  23137162.1094                   23137160.3054
   -359377.80147   -239615.48845  22121039.1094                   22121035.8444
 -30291749.66047 -23557050.20745  21755077.6094                   21755074.4654
 -28545510.95346 -21776556.10243  24105868.0084                   24105866.1914
 -47548812.69147 -36386563.39545  21789444.0394
  21789439.0594   21286266.37546  16625080.88743  24036580.2194   24036578.6094
 -31599704.38347 -24574964.70346  20501661.2274                   20501657.9024
 -13390189.52347 -10178294.45745  21719924.5474                   21719922.6724
 -14740897.39847 -11439221.44145  21576041.2194                   21576040.4734
 11  8 19  2 34  0.0000000  0  9G26G29G12G10G02G15G05G30G25
   9799095.12146   8212789.28143  23103145.0864                   23103143.0084
   -525575.98847   -369120.50045  22089412.0164                   22089409.8834
 -30306462.32847 -23568514.62945  21752277.6484                   21752274.4884
 -28525105.19946 -21760655.53943  24109750.7814                   24109749.3324
 -47595532.03147 -36422968.07845  21780553.6414
  21780548.5274   21103108.44546  16482360.48843  24001725.8914   24001724.9534
 -31647111.41447 -24611905.23046  20492639.6484                   20492636.5474
 -13443652.67647 -10219954.06245  21709751.2974                   21709748.9184
 -14812586.44948 -11495083.03145  21562398.5944                   21562398.2854
 11  8 19  2 34 30.0000000  0  9G26G29G12G10G02G15G05G30G25
   9620507.75446   8073630.33243  23069160.9694                   23069160.1294
   -691636.29747   -498518.07845  22057811.6954                   22057808.7584
 -30320810.66447 -23579695.15245  21749546.9384                   21749544.1054
 -28504606.65646 -21744682.62943  24113651.8834                   24113650.3284
 -47642160.81647 -36459302.19145  21771680.6484
  21771675.6844   20919903.54346  16339603.52043  23966862.9774   23966861.7194
 -31694045.91447 -24648477.55546  20483708.6804                   20483705.4804
 -13496583.39147 -10261198.77045  21699678.7114                   21699676.6684
 -14883713.91447 -11550507.01245  21548863.3834                   21548863.2384
 11  8 19  2 35  0.0000000  0  9G26G29G12G10G02G15G05G30G25
   9442096.71146   7934608.80144  23035210.1334                   23035209.5274
   -857555.63747   -627805.82045  22026238.2974                   22026236.0274
 -30334796.30547 -23590593.06645  21746885.5634                   21746882.3754
 -28484016.27046 -21728638.19142  24117569.9304                   24117568.3834
 -47688697.93047 -36495564.87145  21762824.1954
  21762820.0084   20736655.96846  16196813.28643  23931991.7664   23931990.8554
 -31740508.92647 -24684682.48046  20474867.0164                   20474863.6334
 -13548982.38747 -10302029.16045  21689707.5704                   21689705.2464
 -14954279.59447 -11605493.24645  21535435.0314                   21535435.1054
 11  8 19  2 35 30.0000000  0  9G26G29G12G10G02G15G05G30G25
   9263864.07846   7795726.26243  23001294.0234                   23001292.7234
  -1023333.17247   -756983.08245  21994691.3134                   21994689.2854
 -30348423.67247 -23601211.80145  21744292.4454                   21744289.8284
 -28463338.25046 -21712525.44142  24121505.1334                   24121503.5594
 -47735144.74247 -36531757.16845  21753985.9844
  21753980.9654   20553366.52346  16053990.45743  23897113.5474   23897111.9694
 -31786504.04747 -24720522.81646  20466114.7814                   20466111.2774
 -13600853.44147 -10342448.16045  21679836.4694                   21679834.8404
 -15024286.42248 -11660044.02745  21522113.6724                   21522113.2464
 11  8 19  2 36  0.0000000  0  9G26G29G12G10G02G15G05G30G25
   9085814.44146   7656986.34043  22967412.1564                   22967410.8014
  -1188966.05147   -886047.61745  21963172.7114                   21963170.5514
 -30361694.27747 -23611552.53545  21741767.2194                   21741764.2424
 -28442574.25446 -21696345.68442  24125456.1644                   24125454.7584
 -47781500.39147 -36567878.45745  21745165.0084
  21745160.1134   20370039.19946  15911138.09843  23862227.0004   23862225.9184
 -31832032.32847 -24755999.39546  20457450.8674                   20457447.3244
 -13652197.47747 -10382456.51245  21670066.1564                   21670064.4184
 -15093734.47747 -11714159.38346  21508898.2344                   21508897.7424
 11  8 19  2 36 30.0000000  0  9G26G29G12G10G02G15G05G30G25
  10483377.16046   8745996.30943  23233359.9774                   23233358.3874
    220973.05947    212606.26645  22231475.1094                   22231472.7934
 -28799190.89847 -22394017.43745  22039101.7034                   22039098.9534
 -26846307.54745 -20452501.52042  24429214.8984                   24429214.5274
 -46252343.65247 -35376327.75045  22036153.4924                   22036148.7814
  21762102.52046  16995862.85543  24127128.1094                   24127126.8874
 -30301674.34047 -23563512.63746  20748668.0784                   20748664.9614
 -12127595.28147  -9194454.81645  21960188.6484                   21960186.5904
 -13587202.98448 -10540238.73445  21795581.1254                   21795581.1334
 11  8 19  2 37  0.0000000  0  9G26G29G12G10G02G15G05G30G25
  10305701.68446   8607547.90643  23199548.2584                   23199547.2774
     55633.46547     83770.27045  22200012.4064                   22200009.8914
 -28811759.85247 -22403811.43445  22036710.1954                   22036707.0474
 -26825381.28145 -20436195.35542  24433196.8674                   24433197.0434
 -46298519.65247 -35412309.03945  22027366.9224                   22027361.7274
  21578704.94146  16852955.75842  24092228.7504                   24092226.5864
 -30346277.21147 -23598268.11746  20740180.2424                   20740177.0554
 -12177894.56647  -9233649.06645  21950616.5394                   21950614.5594
 -13655540.00048 -10593488.35945  21782577.1954                   21782576.7384
 11  8 19  2 37 30.0000000  0  9G26G29G12G10G02G15G05G30G25
  10128219.42246   8469250.09043  23165775.1024                   23165773.1884
   -109556.16447    -44948.91045  22168577.6094                   22168575.5664
 -28823981.79347 -22413335.02745  22034384.2814                   22034381.1094
 -26804377.30145 -20419828.62542  24437194.4304                   24437194.0314
 -46344605.10947 -35448219.78545  22018596.6174                   22018592.3674
  21395276.85546  16710024.82843  24057323.5004                   24057321.1604
 -30390420.70347 -23632665.62946  20731780.3674                   20731777.2894
 -12227674.15647  -9272438.36344  21941143.9924                   21941141.6564
 -13723322.95748 -10646306.24645  21769678.7504                   21769678.2074
 11  8 19  2 38  0.0000000  0  9G26G29G12G10G02G15G05G30G25
   9950933.04346   8331104.91043  23132040.0554                   23132036.7624
   -274594.25847   -173549.98045  22137171.5474                   22137169.5744
 -28835860.23047 -22422590.96145  22032123.8054                   22032120.5824
 -26783298.76245 -20403403.77342  24441205.1484                   24441205.0314
 -46390601.05947 -35484060.77345  22009844.1724                   22009839.6454
  21211820.45346  16567071.87943  24022412.6094                   24022410.6214
 -30434107.42647 -23666707.21546  20723466.6254                   20723463.6644
 -12276937.03947  -9310825.03145  21931769.6174                   21931767.8284
 -13790553.90248 -10698693.98845  21756885.0554                   21756884.5124
 11  8 19  2 38 30.0000000  0  9G26G29G12G10G02G15G05G30G25
   9773847.42246   8193116.16044  23098340.5004                   23098338.3164
   -439477.60947   -302030.48045  22105796.2664                   22105793.1454
 -28847397.18747 -22431580.80545  22029927.8834                   22029925.6524
 -26762146.91846 -20386921.82442  24445230.1804                   24445230.1174
 -46436505.92647 -35519830.79345  22001108.5554                   22001103.7704
  21028339.37946  16424099.73843  23987497.0234                   23987495.7544
 -30477338.30547 -23700393.60946  20715240.5554                   20715237.0904
 -12325684.29747  -9348809.91445  21922493.7344                   21922491.0864
 -13857233.10548 -10750651.80545  21744196.3284                   21744195.8794
 11  8 19  2 39  0.0000000  0  9G26G29G12G10G02G15G05G30G25
   9596963.38346   8055284.47344  23064680.9924                   23064678.5904
   -604206.77047   -430390.82845  22074448.3674                   22074446.5084
 -28858597.85947 -22440308.60945  22027797.1884                   22027793.9924
 -26740926.71146 -20370386.67642  24449269.2034                   24449267.7424
 -46482322.40247 -35555531.93045  21992390.0084                   21992385.1484
  20844833.69146  16281108.39544  23952577.2584                   23952576.1724
 -30520118.10947 -23733728.50446  20707099.3674                   20707096.1454
 -12373920.76647  -9386396.77045  21913314.3594                   21913311.8834
 -13923364.57447 -10802182.81245  21731611.7894                   21731611.4104
 11  8 19  2 39 30.0000000  0  9G26G29G12G10G02G15G05G30G25
   9420287.35546   7917614.87143  23031060.2114                   23031058.1564
   -768776.70747   -558627.10945  22043132.0864                   22043129.5164
 -28869462.82047 -22448774.81245  22025729.4454                   22025726.1954
 -26719638.28146 -20353798.30942  24453319.6334                   24453318.8094
 -46528047.88747 -35591162.18045  21983689.3054                   21983684.1094
  20661308.91046  16138102.19143  23917653.4224                   23917652.1334
 -30562446.51647 -23766711.66846  20699044.6414                   20699041.7034
 -12421646.05947  -9423585.31245  21904232.3914                   21904230.2234
 -13988947.00847 -10853286.00045  21719131.9774                   21719131.5634
 11  8 19  2 40  0.0000000  0  9G26G29G12G10G02G15G05G30G25
   9243824.84046   7780111.64143  22997480.4844                   22997478.5274
   -933183.65247   -686736.37945  22011846.7584                   22011844.0824
 -28879993.07847 -22456980.21145  22023725.3134                   22023722.3134
 -26698281.68446 -20337156.81242  24457383.9064                   24457382.2814
 -46573680.37547 -35626719.96945  21975005.5554                   21975000.7154
  20477769.72346  15995084.77044  23882727.5864                   23882726.1454
 -30604323.57047 -23799343.12546  20691075.9454                   20691072.6954
 -12468860.51647  -9460375.80545  21895248.0394                   21895245.7384
 -14053979.98447 -10903961.04345  21706756.2734                   21706756.1954
 11  8 19  2 40 30.0000000  0  9G26G29G12G10G02G15G05G30G25
   9067578.67246   7642777.01243  22963942.0314                   22963940.1454
  -1097426.42247   -814717.70745  21980591.7734                   21980589.7114
 -28890192.00847 -22464927.44145  22021785.2274                   22021782.0434
 -26676860.28545 -20320464.79743  24461460.5234                   24461459.2304
 -46619220.87947 -35662206.09445  21966339.3364                   21966334.6564
  20294217.90246  15852057.48843  23847798.0394                   23847796.8674
 -30645752.76647 -23831625.60546  20683192.2274                   20683188.9494
 -12515567.46547  -9496770.82044  21886360.0704                   21886357.9264
 -14118465.94147 -10954209.83645  21694485.0234                   21694484.6684
 11  8 19  2 41  0.0000000  0  9G26G29G12G10G02G15G05G30G25
   8891550.46946   7505612.22343  22930444.7734                   22930442.8714
  -1261504.54347   -942570.73045  21949369.3444                   21949366.7544
 -28900065.07447 -22472620.74645  22019906.1724                   22019903.0004
 -26655378.78546 -20303725.98042  24465547.6564                   24465546.9144
 -46664671.10547 -35697621.84445  21957689.9534                   21957685.8674
  20110654.66446  15709021.34843  23812866.7584                   23812865.7234
 -30686737.94147 -23863562.08646  20675392.8134                   20675389.6564
 -12561770.89147  -9532773.48444  21877567.5164                   21877565.6844
 -14182408.12947 -11004034.90245  21682317.1954                   21682316.6024
 11  8 19  2 41 30.0000000  0  9G26G29G12G10G02G15G05G30G25
   8715746.03946   7368621.80543  22896990.2974                   22896988.1214
  -1425413.99647  -1070292.32845  21918178.1884                   21918175.4964
 -28909613.29747 -22480060.92645  22018088.8444                   22018086.1094
 -26633837.41846 -20286940.49243  24469646.9534                   24469645.8874
 -46710028.85247 -35732965.53945  21949059.3524                   21949054.2544
  19927084.70346  15565979.92243  23777934.5944                   23777933.0664
 -30727279.41847 -23895152.83646  20667677.7894                   20667674.8674
 -12607471.31647  -9568384.19944  21868870.9774                   21868868.9304
 -14245806.11347 -11053435.92645  21670253.3054                   21670252.6994
 11  8 19  2 42  0.0000000  0  9G26G29G12G10G02G15G05G30G25
   8540167.01646   7231807.02043  22863578.3284                   22863576.8134
  -1589154.59447  -1197882.34045  21887019.0864                   21887016.6524
 -28918841.05947 -22487251.41445  22016333.0234                   22016329.8634
 -26612240.34046 -20270111.66043  24473757.9064                   24473755.7974
 -46755296.00047 -35768238.63745  21940445.3444                   21940440.2304
  19743509.00146  15422934.01443  23743001.0084                   23742999.2074
 -30767381.33647 -23926401.07846  20660046.7664                   20660043.5234
 -12652672.82847  -9603606.15645  21860269.6174                   21860267.1954
 -14308663.19547 -11102415.46945  21658292.0234                   21658291.6914
 11  8 19  2 42 30.0000000  0 10G26G29G12G10G02G15G05G30G25G21
   8364817.38746   7095170.97744  22830210.7114                   22830208.7704
  -1752723.56247  -1325338.62945  21855892.7814                   21855890.5084
 -28927750.68447 -22494193.99245  22014637.6174                   22014634.7974
 -26590589.67645 -20253241.08243  24477876.2584                   24477875.7734
 -46800472.02747 -35803440.73845  21931848.1174                   21931843.4534
  19559930.72746  15279886.03542  23708067.6414                   23708065.5274
 -30807045.16447 -23957307.94946  20652498.9384                   20652496.0704
 -12697377.45347  -9638440.91845  21851762.3674                   21851760.2114
 -14370980.60547 -11150974.48045  21646433.5474                   21646433.1724
  28147243.76616                  25110712.813
 11  8 19  2 43  0.0000000  0 10G26G29G12G10G02G15G05G30G25G21
   8189697.85246   6958714.20744  22796886.8364                   22796884.2894
  -1916122.09847  -1452662.10945  21824799.3914                   21824797.0004
 -28936349.00047 -22500893.98445  22013001.5704                   22012998.5164
 -26568890.52046 -20236332.74642  24482006.3594                   24482005.5984
 -46845559.87947 -35838574.14145  21923267.9844                   21923263.5704
  19376349.75046  15136835.98843  23673133.2894                   23673131.0594
 -30846276.47347 -23987877.78946  20645033.4924                   20645030.6684
 -12741590.67247  -9672892.76245  21843349.1094                   21843346.5664
 -14432762.98847 -11199116.57845  21634676.3914                   21634675.8634
  28003856.730 6                  25083427.320
 11  8 19  2 43 30.0000000  0 10G26G29G12G10G02G15G05G30G25G21
   8014810.27746   6822438.20744  22763606.8834                   22763604.5354
  -2079349.71147  -1579852.40645  21793737.6724                   21793735.6214
 -28944640.28547 -22507354.75045  22011423.8984                   22011420.9774
 -26547147.18746 -20219389.83642  24486143.7424                   24486144.2274
 -46890561.25847 -35873640.13745  21914705.1644                   21914699.8634
  19192767.05546  14993784.62943  23638198.7734                   23638196.9224
 -30885079.28147 -24018113.75046  20637649.6884                   20637646.3674
 -12785316.48847  -9706964.81644  21835028.4924                   21835026.3284
 -14494013.56647 -11246844.29745  21623020.6484                   21623020.0434
  27860481.066 5                  25056143.656
 11  8 19  2 44  0.0000000  0  9G26G29G12G02G15G05G30G25G21
   7840159.07046   6686346.38744  22730371.7504                   22730369.6994
  -2242403.28547  -1706907.09445  21762710.2974                   21762707.7194
 -28952626.85247 -22513578.06645  22009904.2974                   22009901.2424
 -46935475.17247 -35908637.98445  21906158.3674                   21906152.8404
  19009186.09846  14850734.60243  23603264.0944                   23603262.5004
 -30923455.06647 -24048016.95346  20630346.7424                   20630343.5274
 -12828556.80147  -9740658.55944  21826799.7664                   21826797.8554
 -14554733.39147 -11294158.44545  21611465.9224                   21611465.6454
  27717116.680 5                  25028862.367
 11  8 19  2 44 30.0000000  0  9G26G29G12G02G15G05G30G25G21
   7665749.46146   6550442.82044  22697182.6564                   22697180.8134
  -2405278.85247  -1833823.06645  21731716.2584                   21731712.9264
 -28960310.05547 -22519564.98845  22008442.0474                   22008438.6764
 -46980300.26647 -35943566.62544  21897628.5004                   21897623.4534
  18825611.70046  14707689.70644  23568331.3284                   23568330.2304
 -30961404.41047 -24077587.86346  20623125.4614                   20623122.1054
 -12871312.25847  -9773974.49644  21818663.3204                   21818661.6884
 -14614922.32047 -11341058.90645  21600012.8284                   21600012.6684
  27573764.809 5                  25001583.625
 11  8 19  2 45  0.0000000  0  9G26G29G12G02G15G05G30G25G21
   7491586.25846   6414731.27744  22664040.1254                   22664038.8714
  -2567973.60547  -1960598.14845  21700755.6804                   21700753.5204
 -28967691.64547 -22525316.89545  22007037.4774                   22007034.1954
 -47025035.03147 -35978424.87545  21889115.6724                   21889110.5044
  18642047.39146  14564652.71943  23533399.4614                   23533398.7894
 -30998928.68047 -24106827.54746  20615984.8284                   20615981.8444
 -12913584.40647  -9806913.82444  21810619.7584                   21810617.5394
 -14674581.08247 -11387546.25045  21588659.9304                   21588659.5744
  27430425.355 5                  24974306.953
 11  8 19  2 45 30.0000000  0  9G26G29G12G02G15G05G30G25G21
   8893102.22746   7506821.68844  22930740.2274                   22930738.0434
  -1155056.10247   -859623.43045  21969625.3674                   21969622.4534
 -27399351.33647 -21303233.55545  22305482.5864                   22305479.2704
 -45494254.30147 -34785608.71545  22180413.6414                   22180408.4694
  20033926.07046  15649233.61743  23798266.1644                   23798264.0354
 -29460605.57047 -22908134.21146  20908718.1804                   20908714.8634
 -11379950.67647  -8611874.54745  22102460.6484                   22102458.3324
 -13158285.80547 -10206017.46945  21877201.7034                   21877201.3794
  28862526.492 5                  25246826.906
 11  8 19  2 46  0.0000000  0  9G26G29G12G02G15G05G30G25G21
   8719448.78546   7371507.35244  22897694.6094                   22897692.6054
  -1317375.82447   -986106.27345  21938736.7584                   21938734.2114
 -27406133.10547 -21308518.06245  22304191.6174                   22304188.9384
 -45538801.59847 -34820320.87145  22171936.1484                   22171931.4964
  19850397.51646  15506224.42243  23763341.2734                   23763339.2154
 -29497280.46947 -22936712.04746  20901739.2734                   20901736.1174
 -11421257.16847  -8644061.42245  22094600.1884                   22094597.9064
 -13216882.83647 -10251677.48845  21866051.0704                   21866050.5204
  28719217.336 5                  25219554.797
 11  8 19  2 46 30.0000000  0  9G26G29G12G02G15G05G30G25G21
   8546055.25846   7236395.55144  22864699.1484                   22864696.7854
  -1479505.39547  -1112440.96145  21907884.2034                   21907881.5824
 -27412619.94547 -21313572.76245  22302957.7274                   22302954.7114
 -45583255.80147 -34854960.49645  22163476.9694                   22163472.5124
  19666890.30146  15363231.84043  23728421.6414                   23728419.1174
 -29533534.49247 -22964961.93046  20894840.2194                   20894837.0394
 -11462085.30947  -8675875.56245  22086831.0314                   22086828.8094
 -13274952.29747 -10296926.42245  21855000.8524                   21854999.9024
  28575921.586 5                  25192286.000
 11  8 19  2 47  0.0000000  0  9G26G29G12G02G15G05G30G25G21
   8372925.98046   7101489.66044  22831753.5164                   22831751.6804
  -1641441.85947  -1238625.17645  21877068.7114                   21877066.0474
 -27418813.99247 -21318399.29745  22301778.7274                   22301775.7974
 -45627615.87947 -34889526.78545  22155035.5084                   22155030.6994
  19483408.05546  15220258.69143  23693505.7344                   23693502.7854
 -29569369.53947 -22992885.32846  20888020.7584                   20888017.7894
 -11502436.56647  -8707318.09445  22079152.0314                   22079150.2504
 -13332495.02047 -10341764.91045  21844050.6174                   21844050.2034
  28432639.750 5                  25165020.273
 11  8 19  2 47 30.0000000  0  9G26G29G12G02G15G05G30G25G21
   8200063.69946   6966791.80944  22798858.8134                   22798856.6564
  -1803183.89847  -1364657.87545  21846290.2344                   21846288.0864
 -27424719.28947 -21323000.84845  22300655.0164                   22300652.6174
 -45671882.42647 -34924020.20345  22146611.9844                   22146607.1644
  19299953.05546  15077306.78143  23658595.5704                   23658592.9384
 -29604788.60947 -23020484.59446  20881280.4534                   20881277.4654
 -11542314.80547  -8738392.04345  22071563.9924                   22071561.6884
 -13389513.89147 -10386195.20345  21833200.0864                   21833199.6564
  28289369.867 5                  25137756.891
 11  8 19  2 48  0.0000000  0  9G26G29G12G02G15G05G30G25G21
   8027470.22746   6832303.42644  22766015.9844                   22766013.5904
  -1964730.89147  -1490538.60945  21815549.0944                   21815546.6414
 -27430340.78147 -21327381.24645  22299585.8674                   22299582.7624
 -45716057.60947 -34958442.41045  22138205.5394                   22138200.8714
  19116526.57846  14934377.12143  23623689.8134                   23623688.3204
 -29639795.74647 -23047762.86746  20874618.8834                   20874615.7584
 -11581724.07047  -8769100.55144  22064064.1024                   22064062.0864
 -13446012.29747 -10430219.93745  21822448.6254                   21822448.3054
  28146109.758 5                  25110496.688
 11  8 19  2 48 30.0000000  0  9G26G29G12G02G15G05G30G25G21
   7855151.06647   6698028.79744  22733224.1954                   22733222.0984
  -2126079.16447  -1616264.49245  21784845.0944                   21784843.0124
 -27435679.81647 -21331541.54745  22298569.4534                   22298566.5904
 -45760139.32447 -34992791.80545  22129816.9774                   22129812.0084
  18933132.80146  14791472.95343  23588791.6724                   23588789.7854
 -29674391.70347 -23074720.74646  20868035.7664                   20868032.6214
 -11620665.18747  -8799444.27745  22056653.5944                   22056651.6414
 -13501990.30547 -10473839.16845  21811797.1804                   21811796.0864
  28002860.555 5                  25083237.047
 11  8 19  2 49  0.0000000  0  9G26G29G12G02G15G05G30G25G21
   7683109.27046   6563970.27344  22700485.5394                   22700483.6024
  -2287227.21147  -1741834.34845  21754179.6024                   21754177.2664
 -27440739.83247 -21335484.43445  22297606.2114                   22297603.6214
 -45804127.77047 -35027068.50445  22121446.1644                   22121441.5904
  18749774.16046  14648596.21543  23553899.0704                   23553897.6374
 -29708579.66047 -23101360.69546  20861529.9454                   20861527.2154
 -11659141.62147  -8829425.92245  22049331.9694                   22049330.3164
 -13557450.59047 -10517054.96945  21801243.0704                   21801242.9454
  27859620.832 5                  25055978.391
 11  8 19  2 49 30.0000000  0  9G26G29G12G02G15G05G30G25G21
   7511347.93446   6430130.29744  22667800.1254                   22667798.6094
  -2448172.66047  -1867246.34045  21723552.8284                   21723550.5784
 -27445523.80547 -21339212.20745  22296696.1174                   22296693.1994
 -45848023.12947 -35061272.67245  22113093.2114                   22113088.5824
  18566453.14846  14505748.78543  23519014.0634                   23519012.9654
 -29742362.15247 -23127684.70746  20855101.4454                   20855098.0164
 -11697156.13747  -8859047.62144  22042098.3134                   22042096.0044
 -13612395.14547 -10559868.91045  21790787.3524                   21790787.0514
  27716389.816 5                  25028723.352
 11  8 19  2 50  0.0000000  0  9G26G29G12G02G15G05G30G25G21
   7339871.42646   6296512.25044  22635169.9534                   22635167.3674
  -2608913.09447  -1992498.57845  21692964.6954                   21692962.3914
 -27450034.98047 -21342727.42245  22295837.6414                   22295834.8324
 -45891824.89847 -35095403.91045  22104758.0864                   22104753.1174
  18383173.25046  14362933.35944  23484137.1644                   23484135.2274
 -29775740.90647 -23153694.10946  20848749.8594                   20848746.8594
 -11734710.85947  -8888311.03545  22034952.0394                   22034949.6024
 -13666825.37547 -10602282.07045  21780429.6564                   21780429.1644
  27573167.621 5                  25001469.203
 11  8 19  2 50 30.0000000  0  9G26G29G12G02G15G05G30G25G21
   7168683.02746   6163118.71944  22602593.6024                   22602591.6644
  -2769446.17647  -2117589.24245  21662416.3054                   21662413.7584
 -27454276.45347 -21346032.47745  22295030.4144                   22295028.0354
 -45935533.05147 -35129462.21545  22096440.8834                   22096435.9104
  18199937.42246  14220152.25843  23449269.4304                   23449266.3834
 -29808718.50847 -23179390.94146  20842474.2664                   20842471.1094
 -11771808.67247  -8917218.41845  22027892.8134                   22027890.2424
 -13720743.45747 -10644296.15245  21770169.2344                   21770168.8134
  27429953.40646  23317713.89853  24974216.2974                   24974213.3714
 11  8 19  2 51  0.0000000  0  9G26G29G12G02G15G05G30G25G21
   6997785.00046   6029951.44544  22570072.7584                   22570070.5044
  -2929771.66847  -2242518.14545  21631907.5164                   21631904.8134
 -27458252.80947 -21349130.94145  22294274.1954                   22294271.0234
 -45979148.80547 -35163448.50845  22088141.0554                   22088136.1604
  18016746.90646  14077406.45743  23414408.5704                   23414406.6884
 -29841298.90247 -23204778.25046  20836274.6564                   20836271.4384
 -11808453.81247  -8945773.07445  22020919.0474                   22020916.9734
 -13774152.88747 -10685913.88345  21760005.8204                   21760005.5204
  27286744.51246  23206122.65242  24946963.2664                   24946962.8164
 11  8 19  2 51 30.0000000  0  9G26G29G12G02G15G05G30G25G21
   6827182.50046   5897014.46944  22537608.2194                   22537606.0554
  -3089885.35547  -2367282.01645  21601438.7424                   21601436.2344
 -27461965.55547 -21352024.01644  22293567.3984                   22293564.6294
 -46022670.77747 -35197361.73844  22079858.8754                   22079854.3014
  17833606.16046  13934699.43843  23379558.4844                   23379555.7624
 -29873483.05547 -23229856.80546  20830149.6414                   20830146.9924
 -11844647.34847  -8973975.82445  22014031.8054                   22014029.9494
 -13827053.93447 -10727135.46945  21749939.4694                   21749939.1094
  27143542.07046  23094536.43042  24919714.2034                   24919712.8244
 11  8 19  2 52  0.0000000  0  9G26G29G12G02G15G05G30G25G21
   6656879.39146   5764310.78144  22505201.0474                   22505198.6954
  -3249784.87147  -2491879.00845  21571010.7114                   21571008.0744
 -27465417.43447 -21354713.80145  22292910.5164                   22292907.7734
 -46066097.95747 -35231201.08644  22071595.3284                   22071589.4064
  17650518.49246  13792033.80143  23344717.4534                   23344715.2344
 -29905272.82047 -23254628.03946  20824100.4774                   20824096.9534
 -11880391.56647  -9001828.45345  22007229.6174                   22007227.7384
 -13879448.24247 -10767962.19545  21739968.5164                   21739968.4614
  27000346.17646  22982955.32442  24892464.3444                   24892463.7504
 11  8 19  2 52 30.0000000  0  9G26G29G12G02G15G05G30G25G21
   6486877.80546   5631842.04344  22472850.5314                   22472848.3874
  -3409469.32047  -2616308.40645  21540624.0234                   21540621.5514
 -27468612.69947 -21357203.62545  22292302.3134                   22292300.0784
 -46109431.89847 -35264967.78545  22063348.8204                   22063344.0394
  17467485.22346  13649410.54743  23309887.7344                   23309885.2814
 -29936672.39147 -23279095.22746  20818125.2194                   20818122.2504
 -11915690.79747  -9029334.34445  22000512.7274                   22000510.4184
 -13931339.35547 -10808396.81645  21730094.2894                   21730094.0554
  26857154.52346  22871377.51642  24865215.3444                   24865215.5984
 11  8 19  2 53  0.0000000  0  9G26G29G12G02G15G05G30G25G21
   6317182.04747   5499611.61344  22440558.5704                   22440556.5594
  -3568936.16047  -2740568.23445  21510278.2114                   21510275.6994
 -27471554.28147 -21359495.78145  22291742.8524                   22291740.1174
 -46152671.85547 -35298661.24244  22055120.7424                   22055115.7814
  17284510.12546  13506832.60943  23275068.3674                   23275066.2424
 -29967683.69547 -23303259.88746  20812224.5634                   20812220.6214
 -11950547.24247  -9056495.20344  21993880.1954                   21993877.4144
 -13982728.87547 -10848440.59045  21720315.0314                   21720314.5164
  26713967.19546  22759803.04742  24837968.3444                   24837967.6254
 11  8 19  2 53 30.0000000  0  9G26G29G12G02G15G05G30G25G21
   6147796.09846   5367622.59444  22408325.4304                   22408323.0594
  -3728182.21947  -2864656.04745  21479974.9304                   21479971.8794
 -27474244.70747 -21361592.23444  22291230.8134                   22291228.2854
 -46195817.16047 -35332280.94144  22046909.9844                   22046905.1914
  17101596.25446  13364302.37544  23240261.2504                   23240259.1214
 -29998308.27047 -23327123.17646  20806396.4614                   20806393.6334
 -11984963.11747  -9083312.78144  21987331.0164                   21987328.6884
 -14033618.16047 -10888094.56645  21710631.0474                   21710630.8914
  26570783.77746  22648231.64842  24810721.5004                   24810720.4454
 11  8 19  2 54  0.0000000  0  9G26G29G12G02G15G05G30G25G21
   5978722.59047   5235877.03544  22376151.5474                   22376149.1094
  -3887206.56647  -2988571.10245  21449713.5234                   21449710.7734
 -27476688.03147 -21363496.13345  22290766.3284                   22290763.1024
 -46238868.69947 -35365827.59445  22038717.8134                   22038712.6524
  16918745.72346  13221821.50843  23205465.6484                   23205463.9694
 -30028549.84047 -23350688.02746  20800641.5394                   20800638.3204
 -12018942.21147  -9109789.98044  21980864.5474                   21980862.0784
 -14084010.41447 -10927361.26245  21701041.6564                   21701041.5784
  26427602.81646  22536662.19142  24783474.4144                   24783473.8794
 11  8 19  2 54 30.0000000  0  9G26G29G12G02G15G05G30G25G21
   7385391.52746   6331982.73044  22643831.4614                   22643828.9064
  -2470580.93747  -1884706.94545  21719288.8134                   21719285.6884
 -25903466.73047 -20137609.42644  22590140.2194                   22590137.0784
 -44706404.03147 -34171699.27344  22330336.3284                   22330331.0634
  18311388.37546  14306997.66844  23470476.1334                   23470474.3364
 -28482989.26647 -22146355.10246  21094751.7584                   21094748.7544
 -10477065.47747  -7908327.59844  22274273.8284                   22274272.0044
 -12558485.39147  -9738640.44545  21991339.4304                   21991339.2034
  27859848.75446  23652698.09442  25056021.8674                   25056021.1524
 11  8 19  2 55  0.0000000  0  9G26G29G12G02G15G05G30G25G21
   7216953.69546   6200732.50044  22611779.2814                   22611776.8954
  -2629154.84047  -2008270.99245  21689112.6484                   21689110.0124
 -25905425.34447 -20139135.62944  22589767.4454                   22589764.4734
 -44749267.47347 -34205099.34844  22322179.0554                   22322174.5204
  18128673.64846  14164622.60943  23435706.9064                   23435705.2274
 -28512472.23847 -22169328.84046  21089142.1334                   21089138.0784
 -10510179.42247  -7934130.66844  22267972.5314                   22267970.2274
 -12607889.86347  -9777137.43745  21981938.1644   21981937.6844   27716670.39146
  23541130.55542  25028775.6024   25028775.3484
 11  8 19  2 55 30.0000000  0  9G26G29G12G02G15G05G30G25G21
   7048839.90247   6069734.77344  22579788.4774                   22579785.7734
  -2787499.46147  -2131656.38745  21658980.6174                   21658978.0274
 -25907145.41447 -20140475.96145  22589440.4384                   22589437.0434
 -44792035.62147 -34238425.17244  22314040.7194                   22314036.4884
  17946031.86346  14022304.39843  23400951.2814                   23400948.9574
 -28541578.55947 -22192009.09046  21083603.3674                   21083599.9304
 -10542864.16847  -7959599.30944  22261752.6884                   22261750.8284
 -12656802.77347  -9815251.39145  21972630.2344   21972630.0664
  27573493.18846  23429564.04342  25001529.7974                   25001529.2464
 11  8 19  2 56  0.0000000  0  9G26G29G12G02G15G05G30G25G21
   6881055.71947   5938993.88344  22547859.6484                   22547857.8324
  -2945610.37547  -2254859.67245  21628893.3364                   21628890.5204
 -25908627.88347 -20141631.16044  22589157.9224                   22589154.9924
 -44834706.28947 -34271675.05145  22305921.2274                   22305916.2074
  17763468.15646  13880047.02043  23366210.9454                   23366208.5594
 -28570309.00847 -22214396.44146  21078135.7114                   21078132.3984
 -10575120.51647  -7984734.12944  22255614.6414                   22255612.7114
 -12705224.22347  -9852982.38745  21963416.1024   21963415.3874
  27430318.87546  23317999.73042  24974285.0394                   24974284.0474
 11  8 19  2 56 30.0000000  0  9G26G29G12G02G15G05G30G25G21
   6713603.39847   5808511.58644  22515994.7194                   22515992.7304
  -3103486.81647  -2377880.25045  21598850.0704                   21598847.6914
 -25909877.55547 -20142604.94544  22588920.1954                   22588917.4804
 -44877280.57047 -34304849.80544  22297819.7424                   22297814.4454
  17580983.72346  13737851.41043  23331485.4064                   23331482.8204
 -28598667.35547 -22236493.85546  21072739.2974                   21072736.0044
 -10606952.76247  -8009538.49245  22249556.7274                   22249555.1334
 -12753157.90247  -9890333.30945  21954294.8914   21954294.4924
  27287145.18046  23206435.85942  24947040.0944                   24947038.7114
 11  8 19  2 57  0.0000000  0  9G26G29G12G02G15G05G30G25G21
   6546485.66447   5678290.01644  22484193.2734                   22484191.3714
  -3261127.14847  -2500716.83245  21568852.3914                   21568849.1804
 -25910898.18447 -20143400.25044  22588726.1174                   22588723.0664
 -44919759.03947 -34337949.90244  22289736.1484                   22289731.2304
  17398581.09446  13595719.53944  23296774.2734                   23296772.4064
 -28626656.71147 -22258303.73846  21067412.9144                   21067409.7544
 -10638364.58647  -8034015.23844  22243579.3984                   22243577.8914
 -12800606.75047  -9927306.43045  21945265.3594   21945265.3204
  27143970.76646  23094871.44542  24919794.2344                   24919793.4654
 11  8 19  2 57 30.0000000  0  9G26G29G12G02G15G05G30G25G21
   6379705.07746   5548331.14944  22452455.5864                   22452453.8324
  -3418530.44947  -2623368.71945  21538899.7344                   21538896.4574
 -25911694.12147 -20144020.48844  22588574.3054                   22588571.3634
 -44962142.96147 -34370976.33244  22281670.5784                   22281665.4064
  17216262.10246  13453652.83644  23262081.1484                   23262078.5274
 -28654280.68047 -22279828.90246  21062156.4534                   21062153.1954
 -10669359.89547  -8058167.44144  22237680.8054                   22237679.3834
 -12847574.09447  -9963904.36745  21936327.7584   21936327.5084
  27000793.85546  22983305.09842  24892548.9304                   24892548.2154
 11  8 19  2 58  0.0000000  0  9G26G29G12G02G15G05G30G25G21
   6213267.87146   5418639.85544  22420783.3674                   22420781.9184
  -3575691.35247  -2745831.71945  21508992.7034                   21508989.9884
 -25912265.73047 -20144465.91444  22588465.4694                   22588463.0904
 -45004429.12947 -34403926.59044  22273623.6884                   22273618.7304
  17034032.67646  13311655.91844  23227403.4454                   23227401.5314
 -28681539.05547 -22301069.19146  21056969.6334                   21056965.4494
 -10699938.79347  -8081995.16844  22231862.5864                   22231860.2544
 -12894059.38347 -10000126.67645  21927482.0084   21927481.4654
  26857616.89846  22871738.68042  24865303.5394                   24865302.7854
 11  8 19  2 58 30.0000000  0  9G26G29G12G02G15G05G30G25G21
   6047177.57846   5289218.89144  22389177.8364                   22389175.7424
  -3732608.16447  -2868104.51645  21479132.3834                   21479129.3094
 -25912615.95347 -20144738.84444  22588399.2734                   22588396.2734
 -45046617.43447 -34436800.60544  22265595.7194                   22265591.0474
  16851895.02046  13169730.53944  23192743.6884                   23192741.7274
 -28708434.43047 -22322026.62946  21051851.4534                   21051847.7814
 -10730104.41047  -8105500.85244  22226121.9534                   22226120.1564
 -12940065.03547 -10035975.23845  21918727.3444   21918726.7624
  26714438.85245  22760171.45742  24838057.1174                   24838056.6174
 11  8 19  2 59  0.0000000  0  9G26G29G12G02G15G05G30G25G21
   5881438.24647   5160071.37944  22357638.5164                   22357636.2114
  -3889277.71547  -2990184.64545  21449318.9304                   21449316.4344
 -25912747.73847 -20144841.54344  22588373.7504                   22588371.1214
 -45088707.02747 -34469597.69544  22257586.5704                   22257581.5704
  16669853.34846  13027879.95344  23158102.1724                   23158100.5594
 -28734968.83247 -22342702.79746  21046802.3444                   21046798.7504
 -10759858.96147  -8128686.22744  22220459.8524                   22220457.7734
 -12985592.62947 -10071451.29745  21910063.7504   21910063.2344
  26571259.81346  22648603.40642  24810811.2194                   24810810.7544
 11  8 19  2 59 30.0000000  0  9G26G29G12G02G15G05G30G25G21
   5716051.39847   5031198.53144  22326167.2344                   22326164.1334
  -4045699.64847  -3112071.81645  21419552.7034                   21419550.2154
 -25912666.17647 -20144778.02044  22588389.4614                   22588386.8364
 -45130699.70347 -34502319.27344  22249594.8364                   22249590.1804
  16487908.30146  12886104.64544  23123480.0944                   23123477.1094
 -28761146.78947 -22363101.21146  21041820.5234                   21041817.1524
 -10789207.40247  -8151555.15244  22214875.3444                   22214872.9574
 -13030646.54347 -10106558.24645  21901490.2274   21901489.9654
  26428077.13745  22537032.61342  24783564.2424                   24783564.4264
 11  8 19  3  0  0.0000000  0  9G26G29G12G02G15G05G30G25G21
   5551021.00447   4902603.43444  22294762.1644                   22294760.2424
  -4201871.71147  -3233764.28545  21389834.3594                   21389831.7624
 -25912373.74247 -20144550.17645  22588445.0314                   22588442.5314
 -45172594.86347 -34534964.86344  22241622.3364                   22241617.9224
  16306063.15646  12744407.19544  23088875.4144                   23088872.9804
 -28786970.42247 -22383223.51246  21036906.3834                   21036902.8984
 -10818152.38747  -8174109.70744  22209367.7974                   22209364.8914
 -13075228.79347 -10141297.66845  21893006.3594   21893006.4734
  26284890.285 5                  24756315.539
 11  8 19  3  0 30.0000000  0  9G26G29G12G02G15G05G30G25G21
   5386351.30947   4774289.40644  22263427.3594                   22263425.0514
  -4357790.51247  -3355259.40245  21360163.6414                   21360161.3244
 -25911873.30547 -20144160.25044  22588540.6174                   22588537.9064
 -45214391.62147 -34567533.76644  22233669.3054                   22233664.6254
  16124321.91846  12602790.69144  23054290.7734                   23054289.0704
 -28812441.63347 -22403071.21146  21032059.2814                   21032055.6914
 -10846696.16847  -8196351.62544  22203935.6024                   22203933.6134
 -13119340.99247 -10175670.80945  21884612.2504   21884612.0434
  26141699.574 5                  24729067.664
 11  8 19  3  1  0.0000000  0  9G26G29G12G02G15G05G30G25G21
   5222045.08647   4646258.64544  22232159.8204                   22232158.1724
  -4513454.19947  -3476555.73845  21330542.0554                   21330539.5274
 -25911168.52747 -20143611.09844  22588675.1884                   22588671.1884
 -45256090.22747 -34600026.21144  22225734.0234                   22225729.7774
  15942686.99646  12461257.03143  23019727.9614                   23019724.7384
 -28837563.33647 -22422646.56646  21027278.4924                   21027275.5394
 -10874842.38747  -8218283.75444  22198579.5314                   22198577.4064
 -13162986.03947 -10209679.94945  21876306.7194   21876306.3164
  25998504.066 5                  24701819.047
 11  8 19  3  1 30.0000000  0  9G26G29G12G02G15G05G30G25G21
   5058105.85246   4518513.81644  22200963.2114                   22200961.9024
  -4668861.33647  -3597652.16445  21300969.2274                   21300966.3554
 -25910262.51647 -20142905.12944  22588846.9064                   22588844.1024
 -45297690.82847 -34632442.28144  22217818.4144                   22217813.3204
  15761160.96946  12319808.21544  22985183.6884                   22985181.4534
 -28862338.33247 -22441951.76246  21022564.6644                   21022561.1334
 -10902594.00847  -8239908.40244  22193298.6024                   22193296.0124
 -13206166.50847 -10243327.07045  21868089.8204   21868089.5664
  25855302.684 5                  24674569.133
 11  8 19  3  2  0.0000000  0  9G26G29G12G02G15G05G30G25G21
   4894536.03547   4391056.84444  22169837.7424                   22169835.1454
  -4824010.14847  -3718547.28545  21271445.3674                   21271442.5634
 -25909159.49247 -20142045.65644  22589057.0394                   22589054.1564
 -45339193.96147 -34664782.40644  22209920.4774                   22209915.2504
  15579746.14546  12178446.04344  22950661.9064                   22950659.7704
 -28886769.88347 -22460989.32845  21017915.4144                   21017912.0984
 -10929954.87947  -8261228.57844  22188092.0554                   22188089.7544
 -13248885.62947 -10276614.70345  21859961.3054   21859960.4734
  25712093.824 5                  24647316.633
 11  8 19  3  2 30.0000000  0  9G26G29G12G02G15G05G30G25G21
   4731341.54347   4263892.33244  22138782.4384                   22138779.8204
  -4978896.02747  -3839237.53545  21241971.2034                   21241968.6724
 -25907860.28147 -20141033.30544  22589304.1024                   22589301.5634
 -45380597.24647 -34697044.71944  22202041.5864                   22202037.0434
  15398447.33646  12037174.29744  22916161.1724                   22916160.0864
 -28910858.35947 -22479759.57045  21013331.3984                   21013328.0204
 -10956926.00047  -8282245.03544  22182959.5394                   22182957.5004
 -13291143.66047 -10309543.04745  21851919.2344   21851918.6954
  25568879.293 5                  24620063.977
 11  8 19  3  3  0.0000000  0  9G26G29G12G02G15G05G30G25G21
   4568523.74647   4137021.33644  22107799.1954                   22107796.2114
  -5133519.22747  -3959723.09845  21212547.2114                   21212544.5434
 -25906370.38347 -20139872.37144  22589588.0554                   22589585.1884
 -45421902.23047 -34729230.42244  22194181.6024                   22194176.4344
  15217265.55946  11895993.75844  22881683.7734                   22881681.6254
 -28934608.54347 -22498266.19945  21008811.8914                   21008808.4774
 -10983512.50447  -8302961.80944  22177900.0554                   22177898.1214
 -13332945.19947 -10342115.67245  21843965.0084   21843964.6564
  25425656.324 5                  24592809.438
 11  8 19  3  3 30.0000000  0  9G26G29G12G02G15G05G30G25G21
   5981512.91047   5238051.87944  22376682.4454                   22376679.5004
  -3712450.55147  -2852396.82045  21482968.0634                   21482965.2274
 -24329270.86747 -18910963.68444  22889699.6174                   22889697.2704
 -43887686.19147 -33533737.39844  22486133.0394                   22486128.5984
  16611631.66446  12982512.84444  23147023.0234                   23147020.7464
 -27382600.74247 -21288909.45346  21304149.0784                   21304145.8594
  -9434294.88747  -7095779.25844  22472706.7114                   22472704.1684
 -11798869.66847  -9146732.14845  22135890.0164   22135889.1334
                                  26857850.414 6                  24865345.953
 11  8 19  3  4  0.0000000  0  9G26G29G12G02G15G05G30G25G21
   5819462.94547   5111779.19944  22345844.2734                   22345842.7344
  -3866536.77747  -2972463.96545  21453646.8524                   21453643.6524
 -24327404.25847 -18909509.21144  22890055.2894                   22890052.5274
 -43928790.04347 -33565766.39544  22478311.1414                   22478306.0554
  16430697.49246  12841525.20744  23112592.2114                   23112589.6414
 -27405677.89547 -21306891.64146  21299757.7974                   21299754.0004
  -9460116.69147  -7115900.15244  22467793.0864                   22467790.6724
 -11839761.13747  -9178595.63745  22128108.1804   22128107.9184   26714612.89146
                                  23738601.02753  24838089.7424   24838087.7464
 11  8 19  3  4 30.0000000  0  9G26G29G12G02G15G05G30G25G21
   5657801.80147   4985809.52344  22315081.7504                   22315079.9774
  -4020351.28147  -3092319.38745  21424376.1804                   21424373.6414
 -24325354.49647 -18907912.00444  22890444.9064                   22890442.7504
 -43969793.39547 -33597717.07844  22470508.9844                   22470503.7464
  16249891.42646  12700637.37144  23078186.5164                   23078183.0784
 -27428422.43447 -21324614.64546  21295428.9924                   21295425.8094
  -9485561.18747  -7135727.04344  22462951.0944                   22462948.7664
 -11880201.59047  -9210107.69545  22120412.8444   22120412.2074   26571367.16446
                                  23626981.08643  24810830.7424   24810828.7774
 11  8 19  3  5  0.0000000  0 10G26G29G12G18G02G15G05G30G25G21
   5496532.51647   4860145.18844  22284393.2274                   22284391.2504
  -4173892.58247  -3211961.93045  21395158.3984                   21395155.3554
 -24323125.37547 -18906175.04744  22890869.3984                   22890866.8524
  32824903.97715                  24763514.570
 -44010696.32447 -33629589.51244  22462725.0084                   22462719.9494
  16069215.66446  12559851.09844  23043804.7894                   23043802.0004
 -27450837.61747 -21342081.01245  21291163.7344                   21291160.7464
  -9510631.89147  -7155262.64844  22458180.8054                   22458177.8634
 -11920194.07847  -9241270.66045  22112802.3594   22112802.0474   26428111.78546
                                  23515353.66842  24783569.8754   24783568.3794
 11  8 19  3  5 30.0000000  0 10G26G29G12G18G02G15G05G30G25G21
   5335657.32047   4734787.92244  22253779.9614                   22253777.5004
  -4327159.25047  -3331390.47345  21365992.2504                   21365989.7194
 -24320720.82047 -18904301.38344  22891326.9694                   22891324.2074
  32648474.855 5                  24729941.617
 -44051499.63347 -33661384.29344  22454960.5004                   22454955.1884
  15888672.41046  12419168.10244  23009448.7194                   23009445.9774
 -27472926.93747 -21359293.45745  21286960.3444                   21286957.1054
  -9535332.85247  -7174510.16044  22453479.8914                   22453477.7424
 -11959742.17647  -9272087.35945  22105276.3284   22105276.3524   26284845.03946
                                  23403717.34043  24756307.1954   24756305.5084
 11  8 19  3  6  0.0000000  0 10G26G29G12G18G02G15G05G30G25G21
   5175176.53147   4609738.00044  22223241.6564                   22223239.0314
  -4480152.29347  -3450605.80545  21336878.8984                   21336875.7154
 -24318147.56247 -18902296.27044  22891816.7974                   22891814.2504
  32472212.059 5                  24696399.141
 -44092206.31247 -33693103.77744  22447214.3204                   22447209.1024
  15708261.17246  12278587.98844  22975117.0944                   22975114.9144
 -27494696.38747 -21376256.66845  21282818.2814                   21282814.7274
  -9559670.55946  -7193474.60544  22448848.3914                   22448846.6764
 -11998851.73447  -9302562.34845  22097834.2664   22097833.6564   26141563.17646
                                  23292069.28543  24729042.0084   24729040.3014
 11  8 19  3  6 30.0000000  0 10G26G29G12G18G02G15G05G30G25G21
   5015093.27047   4484997.82844  22192778.4304                   22192775.8364
  -4632869.86747  -3569606.48445  21307817.6644                   21307814.7854
 -24315408.93446 -18900162.27044  22892336.8524                   22892335.0744
  32296116.410 5                  24662888.711
 -44132816.65247 -33724748.19544  22439486.4844                   22439481.7504
  15527984.50846  12138112.71144  22940811.9224                   22940809.6094
 -27516148.74647 -21392972.78145  21278735.7584                   21278732.2274
  -9583648.37147  -7212158.62144  22444285.7034                   22444283.9104
 -12037525.60947  -9332697.83645  22090475.0004   22090474.3674   25998265.47346
                                  23180408.83243  24701773.1644   24701771.2504
 11  8 19  3  7  0.0000000  0 10G26G29G12G18G02G15G05G30G25G21
   4855412.02347   4360570.91844  22162392.1094                   22162389.4064
  -4785308.23047  -3688389.60945  21278809.8754                   21278806.9654
 -24312506.94947 -18897901.02044  22892890.0704                   22892887.2344
  32120190.461 5                  24629411.648
 -44173329.00047 -33756316.26644  22431776.9304                   22431772.2344
  15347847.23047  11997746.04344  22906532.9224                   22906530.6414
 -27537285.28547 -21409442.79345  21274713.5474                   21274710.4964
  -9607268.18747  -7230563.67244  22439791.2424                   22439788.9694
 -12075765.05947  -9362494.81645  22083198.2114   22083197.5434   25854952.44146
                                  23068736.46543  24674500.9774   24674499.2704
 11  8 19  3  7 30.0000000  0 10G26G29G12G18G02G15G05G30G25G21
   4696136.97347   4236460.51244  22132082.9614                   22132080.6454
  -4937464.55147  -3806952.95345  21249855.0234                   21249852.5044
 -24309443.82047 -18895514.17644  22893472.9694                   22893469.9224
  31944436.480 5                  24595966.781
 -44213742.23446 -33787807.10944  22424086.8054                   22424082.0474
  15167852.63346  11857490.55144  22872280.4924                   22872278.0274
 -27558108.14547 -21425668.39145  21270751.3754                   21270747.5164
  -9630532.35947  -7248691.60244  22435363.8054                   22435361.6684
 -12113572.02347  -9391954.78945  22076003.6804   22076003.4844   25711624.03946
                                  22957052.12543  24647226.7734   24647224.5434
 11  8 19  3  8  0.0000000  0 10G26G29G12G18G02G15G05G30G25G21
   4537273.35546   4112670.69544  22101852.0234                   22101849.6414
  -5089334.82847  -3925293.41445  21220954.9774                   21220952.8954
 -24306221.39147 -18893003.22344  22894086.3204                   22894083.6334
  31768856.789 5                  24562553.906
 -44254054.73847 -33819219.45744  22416414.9064                   22416410.4734
  14988005.30146  11717349.80144  22838056.8674                   22838054.3134
 -27578617.71547 -21441649.87545  21266848.2584                   21266844.8834
  -9653442.29347  -7266543.50444  22431004.1884                   22431002.3324
 -12150947.34447  -9421078.41845  22068891.8444   22068890.8594   25568281.28546
                                  22845356.59043  24619948.9694   24619947.3554
 11  8 19  3  8 30.0000000  0 10G26G29G12G18G02G15G05G30G25G21
   4378826.43447   3989205.60544  22071700.7114                   22071698.5354
  -5240914.60247  -4043407.50445  21192110.4924                   21192107.6804
 -24302840.63347 -18890368.87144  22894729.5944                   22894726.6954
  31593454.789 5                  24529176.453
 -44294263.79347 -33850551.20744  22408763.9534                   22408759.0474
  14808310.51646  11577327.93444  22803861.9454                   22803859.8284
 -27598814.84447 -21457387.89145  21263004.9144                   21263001.4454
  -9675999.14547  -7284120.28144  22426711.7344                   22426709.8204
 -12187891.62947  -9449866.17645  22061861.4694   22061861.0234   25424926.00846
                                  22733651.31643  24592669.7584   24592667.5744
 11  8 19  3  9  0.0000000  0 10G26G29G12G18G02G15G05G30G25G21
   4220799.35947   3866067.65644  22041629.3054                   22041626.9304
  -5392202.22747  -4161293.94945  21163321.6804                   21163318.5744
 -24299304.91447 -18887613.78544  22895402.2974                   22895399.5824
  31418231.28146  25692341.23852  24495832.7424                   24495831.1174
 -44334369.63747 -33881802.51644  22401131.9534                   22401127.1644
  14628770.98446  11437427.01644  22769696.8674                   22769695.2974
 -27618702.17647 -21472884.50445  21259220.2584                   21259216.7274
  -9698206.32447  -7301424.58644  22422485.7274                   22422484.1604
 -12224407.84047  -9478320.37545  22054912.7504   22054912.4104   25281557.09446
                                  22621935.36743  24565386.4224   24565385.4804
 11  8 19  3  9 30.0000000  0 10G26G29G12G18G02G15G05G30G25G21
   4063193.66047   3743258.04744  22011637.8674                   22011635.9614
  -5543197.07047  -4278952.25045  21134588.4454                   21134585.5164
 -24295619.14847 -18884741.77344  22896103.8674                   22896101.0004
  31243185.60546  25555942.15642  24462522.3754                   24462521.9344
 -44374373.60947 -33912974.45344  22393519.4454                   22393514.6914
  14449388.00046  11297648.11344  22735560.9304                   22735559.5084
 -27638284.30947 -21488143.30945  21255493.8524                   21255490.6684
  -9720068.78547  -7318460.27744  22418325.4924                   22418323.4104
 -12260500.36747  -9506444.43045  22048044.0394   22048044.1374   25138172.18446
                                  22510207.02043  24538102.0864   24538099.4924
 11  8 19  3 10  0.0000000  0 10G26G29G12G18G02G15G05G30G25G21
   3906015.62947   3620781.68444  21981728.3204                   21981725.6024
  -5693893.82047  -4396378.26246  21105911.3284                   21105909.1024
 -24291783.81646 -18881753.21144  22896833.6024                   22896830.9614
  31068321.91846  25419684.91042  24429246.6884                   24429246.5164
 -44414272.80947 -33944064.72744  22385927.0554                   22385922.2544
  14270167.35546  11157995.71544  22701456.4534                   22701454.6294
 -27657560.87147 -21503164.00845  21251825.7664                   21251822.1914
  -9741586.89547  -7335227.65244  22414230.6884                   22414228.8984
 -12296169.06647  -9534238.22745  22041256.8984   22041256.4144   24994773.59446
                                  22398468.00043  24510813.6174   24510811.5744
 11  8 19  3 10 30.0000000  0 10G26G29G12G18G02G15G05G30G25G21
   3749268.90247   3498641.41444  21951900.1954                   21951897.4534
  -5844289.70347  -4513569.83245  21077292.0474                   21077289.2034
 -24287801.54747 -18878650.15644  22897591.2424                   22897588.8874
  30893641.93846  25283570.80142  24396006.2814                   24396005.5044
 -44454066.00047 -33975072.41844  22378354.3674                   22378350.0204
  14091112.60946  11018472.59444  22667383.6954                   22667381.4694
 -27676534.22747 -21517948.43045  21248214.7814                   21248212.0904
  -9762763.19147  -7351728.66844  22410201.3594                   22410199.1684
 -12331416.01647  -9561703.39145  22034549.5394   22034549.2814   24851361.37546
                                  22286718.32443  24483523.4694   24483521.9344
 11  8 19  3 11  0.0000000  0 10G26G29G12G18G02G15G05G30G25G21
   3592955.29347   3376838.62544  21922154.7894                   21922151.6174
  -5994384.47747  -4630526.76245  21048729.9224                   21048726.9574
 -24283677.17647 -18875436.37944  22898376.3284                   22898373.8834
  30719144.96546  25147599.28142  24362800.8134                   24362799.6524
 -44493755.35547 -34005999.19944  22370801.7664                   22370796.9694
  13912224.75846  10879079.50444  22633342.9924                   22633340.3554
 -27695208.21947 -21532499.57845  21244661.6094                   21244658.6524
  -9783602.84446  -7367967.37544  22406235.7734                   22406233.2894
 -12366245.82447  -9588843.50845  22027921.3524   22027920.9964   24707933.01246
                                  22174956.09443  24456229.8134   24456228.6174
 11  8 19  3 11 30.0000000  0 10G26G29G12G18G02G15G05G30G25G21
   3437076.65647   3255374.78544  21892491.6954                   21892488.9574
  -6144177.11347  -4747248.27345  21020225.0634                   21020222.3674
 -24279415.37947 -18872115.50444  22899187.2974                   22899184.8204
  30544830.71946  25011770.16842  24329629.7584                   24329628.6604
 -44533341.49247 -34036845.54744  22363268.9454                   22363264.1804
  13733506.40647  10739818.46944  22599333.6174                   22599330.8094
 -27713587.06247 -21546820.75845  21241164.2894                   21241160.7154
  -9804110.21547  -7383947.16444  22402333.2664                   22402331.0514
 -12400662.45347  -9615661.67645  22021372.2344   22021372.1564   24564486.56646
                                  22063179.78143  24428932.8834   24428931.4104
 11  8 19  3 12  0.0000000  0 10G26G29G12G18G02G15G05G30G25G21
   3281637.66447   3134253.52344  21862912.9384                   21862909.7894
  -6293663.75847  -4863731.33646  20991779.0394                   20991775.9304
 -24275017.88346 -18868688.89844  22900024.4384                   22900021.0664
  30370701.77046  24876085.43442  24296493.3524                   24296493.5234
 -44572823.10247 -34067610.45344  22355756.0554                   22355751.2814
  13554960.78947  10600692.04344  22565357.3134                   22565354.9184
 -27731671.76647 -21560912.73045  21237722.9144                   21237719.7854
  -9824287.18447  -7399669.49644  22398493.3524                   22398491.4184
 -12434667.30547  -9642158.98045  22014901.7734   22014901.3134   24421022.65646
                                  21951389.86342  24401632.4454   24401630.9924
 11  8 19  3 12 30.0000000  0 10G26G29G12G18G02G15G05G30G25G21
   4702067.54347   4241082.02044  22133211.2734                   22133208.6254
  -4867416.44147  -3752369.76646  21263184.6334                   21263182.0394
 -22695067.41446 -17637558.68044  23200678.6954                   23200676.1454
  31772185.59045  25968150.83242  24563188.1804                   24563186.4104
 -43036777.44947 -32870691.79344  22648055.6484                   22648050.9774
  14952017.35946  11689307.58644  22831208.8054                   22831206.0944
 -26174043.70347 -20347176.57445  21534129.6414                   21534126.4344
  -8268715.48447  -6187535.72344  22694509.0864                   22694506.7734
 -10892841.25847  -8440736.10245  22308301.4454   22308301.1134   25852966.59446
                                  23067190.44542  24674122.1024   24674120.5904
 11  8 19  3 13  0.0000000  0 10G26G29G12G18G02G15G05G30G25G21
   4547519.10947   4120654.69144  22103801.6884                   22103799.5274
  -5016283.13347  -3868369.75445  21234856.3674                   21234853.5004
 -22690406.51646 -17633926.82044  23201565.6484                   23201563.0314
  31598432.04346  25832758.58643  24530122.5004                   24530122.7114
 -43076046.80147 -32901291.30144  22640582.7194                   22640578.3404
  14773828.35246  11550459.07844  22797299.4924                   22797297.8204
 -26191546.64547 -20360815.21945  21530798.8444                   21530796.0594
  -8288239.71947  -6202749.43744  22690793.4924                   22690792.0314
 -10926029.18047  -8466596.83245  22301986.2734   22301985.3674   25709467.92246
                                  22955373.46143  24646814.9614   24646813.3914
 11  8 19  3 13 30.0000000  0 10G26G29G12G18G02G15G05G30G25G21
   4393421.24247   4000578.46144  22074477.5634                   22074475.5124
  -5164836.60547  -3984125.66846  21206587.7814                   21206584.6844
 -22685618.47746 -17630195.90244  23202476.2034                   23202473.8714
  31424867.74645  25697513.83642  24497094.3134                   24497094.2934
 -43115209.53947 -32931807.72344  22633130.9774                   22633125.6454
  14595822.32846  11411753.16444  22763425.5084                   22763424.3874
 -26208762.45347 -20374230.12945  21527522.8054                   21527519.4844
  -8307442.19546  -6217712.40644  22687140.1254                   22687138.1214
 -10958812.61347  -8492142.37545  22295747.6024   22295746.9384   25565951.38746
                                  22843542.54742  24619504.3054   24619503.0554
 11  8 19  3 14  0.0000000  0 10G26G29G12G18G02G15G05G30G25G21
   4239779.21147   3880857.43444  22045240.5394                   22045238.6294
  -5313071.91847  -4099633.67246  21178379.0234                   21178376.1564
 -22680704.62146 -17626366.94544  23203411.7114                   23203408.8444
  31251496.25845  25562419.27042  24464102.3914                   24464103.5274
 -43154263.47347 -32962239.36344  22625699.3204                   22625693.9494
  14418004.60947  11273193.94544  22729589.2034                   22729586.5314
 -26225691.60247 -20387421.67245  21524301.8984                   21524298.3834
  -8326324.09047  -6232425.58244  22683546.1414                   22683544.5204
 -10991192.28547  -8517373.30145  22289586.0704   22289585.6644   25422418.25846
                                  22731698.65243  24592190.9224   24592189.4494
 11  8 19  3 14 30.0000000  0 10G26G29G12G18G02G15G05G30G25G21
   4086597.58247   3761495.15644  22016090.8674                   22016088.7854
  -5460985.44947  -4214890.92646  21150232.2274                   21150229.1174
 -22675666.30146 -17622441.00044  23204370.4694                   23204367.6094
  31078320.09446  25427476.97342  24431149.9224                   24431148.6844
 -43193206.47347 -32992584.57844  22618288.1804                   22618283.3754
  14240379.66847  11134784.90644  22695788.3674                   22695785.6604
 -26242335.03547 -20400390.58245  21521134.1094                   21521130.7504
  -8344887.11747  -6246890.28944  22680013.2734                   22680011.9454
 -11023169.41847  -8542290.56645  22283501.1414   22283500.4454   25278869.78146
                                  22619842.84442  24564874.6644   24564873.0554
 11  8 19  3 15  0.0000000  0 10G26G29G12G18G02G15G05G30G25G21
   3933879.24647   3642493.89144  21987029.8914                   21987027.4024
  -5608575.31647  -4329895.98845  21122146.7894                   21122143.6564
 -22670506.92646 -17618420.73044  23205352.2734                   23205349.8134
  30905339.92646  25292687.36742  24398231.1174                   24398231.0744
 -43232039.07447 -33022843.75844  22610898.4844                   22610893.4734
  14062950.07846  10996528.09044  22662024.4384                   22662021.6684
 -26258695.88747 -20413139.30545  21518020.2344                   21518016.9884
  -8363134.99647  -6261109.42644  22676541.3914                   22676539.4774
 -11054747.31247  -8566896.73045  22277491.3204   22277491.5474   25135304.99246
                                  22507974.30142  24537555.6724   24537552.6414
 11  8 19  3 15 30.0000000  0 10G26G29G12G18G02G15G05G30G25G21
   3781626.78547   3523855.63744  21958057.5474                   21958054.4064
  -5755840.23847  -4444647.85246  21094123.4304                   21094120.6604
 -22665230.39146 -17614309.14544  23206356.6724                   23206354.0204
  30732556.07846  25158050.69542  24365352.3204                   24365351.3244
 -43270761.26247 -33053016.89144  22603529.9454                   22603525.1024
  13885718.23446  10858425.40244  22628297.6954                   22628295.8954
 -26274777.41447 -20425670.35945  21514959.9924                   21514957.2734
  -8381071.61747  -6275086.02044  22673128.4534                   22673126.5474
 -11085929.46147  -8591194.51245  22271558.0164   22271557.5824   24991722.10246
                                  22396091.67242  24510232.2734   24510230.4414
 11  8 19  3 16  0.0000000  0 10G26G29G12G18G02G15G05G30G25G21
   3629843.34447   3405582.85944  21929174.0084                   21929171.4304
  -5902777.84847  -4559144.66846  21066161.8834                   21066159.0434
 -22659840.45746 -17610109.22344  23207382.6884                   23207379.5204
  30559969.43846  25023567.71142  24332509.8594                   24332508.9734
 -43309372.82847 -33083103.83244  22596182.7034                   22596178.0904
  13708687.03946  10720479.09444  22594610.5944                   22594608.0864
 -26290582.10547 -20437985.69945  21511952.9144                   21511949.6684
  -8398700.32046  -6288822.67644  22669773.8364                   22669772.0944
 -11116718.68047  -8615186.12145  22265698.6954   22265698.5824   24848120.86345
                                  22284194.67242  24482905.5944   24482903.5664
 11  8 19  3 16 30.0000000  0 10G26G29G12G18G02G15G05G30G25G21
   3478532.22747   3287678.11744  21900380.0864                   21900378.4104
  -6049385.71547  -4673384.55145  21038263.4614                   21038260.1374
 -22654339.66846 -17605822.92644  23208428.6884                   23208426.7074
  30387581.49246  24889239.53942  24299705.0864                   24299704.5124
 -43347873.39547 -33113104.28944  22588855.5704                   22588851.2424
  13531859.83246  10582691.71144  22560960.6094                   22560958.6484
 -26306112.49247 -20450087.29345  21508997.6804                   21508994.1294
  -8416024.09447  -6302321.72744  22666477.5474                   22666475.1644
 -11147117.68447  -8638873.66445  22259913.6174   22259913.9264   24704500.73046
                                  22172282.99242  24455575.1724   24455573.6374
 11  8 19  3 17  0.0000000  0 10G26G29G12G18G02G15G05G30G25G21
   3327695.97747   3170143.41444  21871677.0394                   21871674.3364
  -6195662.15247  -4787366.16446  21010427.8524                   21010424.6524
 -22648731.81246 -17601453.18444  23209495.8594                   23209493.6454
  30215392.47746  24755066.40242  24266938.3444                   24266937.6844
 -43386263.18747 -33143018.41044  22581550.5944                   22581545.4844
  13355238.69946  10445064.89544  22527351.8754                   22527348.9844
 -26321371.60547 -20461977.52345  21506094.0944                   21506090.8484
  -8433046.82847  -6315586.20744  22663237.8914                   22663235.4964
 -11177129.85947  -8662259.78545  22254203.1884   22254202.6094   24560860.79746
                                  22060355.91443  24428241.3444   24428239.4884
 11  8 19  3 17 30.0000000  0 10G26G29G12G18G02G15G05G30G25G21
   3177338.90647   3052982.07444  21843064.8204                   21843062.2034
  -6341603.87147  -4901086.96146  20982655.7814                   20982653.1294
 -22643018.71146 -17597001.44544  23210583.4144                   23210581.0984
  30043404.58646  24621050.02042  24234209.6804                   24234209.1954
 -43424540.80147 -33172845.14844  22574267.0474                   22574262.4574
  13178827.72746  10307601.82444  22493781.6644                   22493778.4964
 -26336360.87547 -20473657.48045  21503241.4924                   21503238.4734
  -8449770.69147  -6328617.80144  22660055.7194                   22660053.5234
 -11206757.02347  -8685345.89545  22248565.0784   22248565.4304   24417201.60546
                                  21948413.80142  24400904.3914   24400901.7114
 11  8 19  3 18  0.0000000  0 10G26G29G12G18G02G15G05G30G25G21
   3027460.91447   2936194.05944  21814544.0704                   21814541.6844
  -6487211.88347  -5014547.72746  20954947.5864                   20954944.6134
 -22637207.28146 -17592473.07844  23211689.0554                   23211686.7154
  29871615.45346  24487188.44543  24201520.2584                   24201518.8954
 -43462709.39147 -33202586.91044  22567003.7734                   22566998.8554
  13002626.96146  10170302.53944  22460251.3284                   22460248.3954
 -26351086.24247 -20485131.80545  21500439.5474                   21500436.0984
  -8466202.31247  -6341421.64844  22656928.6414                   22656926.5084
 -11236005.41447  -8708136.85245  22242998.7664   22242998.9144   24273519.17646
                                  21836453.60242  24373562.0864   24373559.6604
 11  8 19  3 18 30.0000000  0 10G26G29G12G18G02G15G05G30G25G21
   2878066.13347   2819782.55944  21786114.9454                   21786113.1414
  -6632483.00847  -5127746.00046  20927303.6804                   20927300.7074
 -22631299.16446 -17587869.37544  23212813.3284                   23212811.1454
  29700027.14846  24353483.39543  24168867.6024                   24168866.4144
 -43500767.14547 -33232242.30544  22559761.6484                   22559756.9064
  12826640.44946  10033170.23044  22426761.8984                   22426759.5944
 -26365549.16047 -20496401.61345  21497687.2424                   21497683.7504
  -8482343.78146  -6353999.41844  22653857.2034                   22653854.7664
 -11264876.66847  -8730633.93745  22237505.2194   22237504.7194   24129814.25846
                                  21724475.81643  24346216.5864   24346213.5274
 11  8 19  3 19  0.0000000  0 10G26G29G12G18G02G15G05G30G25G21
   2729158.39847   2703750.59044  21757779.1334                   21757776.9804
  -6777414.38747  -5240679.53146  20899724.0864                   20899721.1254
 -22625297.08046 -17583192.44944  23213955.1804                   23213953.1524
  29528641.12146  24219935.94142  24136254.1644                   24136251.8634
 -43538713.38747 -33261810.80944  22552540.6804                   22552535.6024
  12650871.61347   9896207.54744  22393315.0004                   22393312.1334
 -26379751.96147 -20507468.74245  21494984.7814                   21494981.2384
  -8498197.84447  -6366353.23444  22650840.2424                   22650838.3284
 -11293373.24647  -8752839.07845  22232082.6884   22232082.5514   23986086.80146
                                  21612480.49643  24318865.9614   24318863.4224
